GFSSW_250_spd_000.txt.gz
Wind_Speed
39 39 40 42 44 45 45 44 44 43 43 44 44 45 43 43 43 42 43 41 41 42 42 39 37 33 33 36 36 36 32 26 30 33 35 37 34 44 43 30 23 35 39 44 40
41 41 40 41 43 46 46 45 45 44 44 44 46 46 46 46 45 43 44 42 41 41 43 41 39 38 38 38 40 40 32 31 27 34 38 46 48 43 37 15 23 30 29 28 26
42 43 42 41 43 45 45 47 47 47 46 46 46 45 44 44 46 45 45 45 43 44 42 42 40 38 37 38 43 46 34 33 33 38 43 41 42 42 39 19 26 38 27 27 27
44 42 41 42 42 45 46 49 49 48 47 45 45 46 46 45 45 46 46 47 47 46 43 41 43 43 43 43 45 46 46 40 40 38 39 41 40 40 39 25 34 42 36 39 29
42 40 40 39 42 46 47 48 49 48 47 46 45 44 46 46 44 45 45 45 45 46 47 46 45 45 45 45 46 46 44 41 39 40 43 41 38 36 33 27 25 35 37 35 23
39 38 38 36 38 43 47 47 46 44 45 45 45 45 45 45 45 45 45 45 45 45 46 46 46 45 44 43 42 40 40 38 38 41 43 38 30 23 17 26 20 20 28 30 22
36 36 37 36 35 35 40 45 45 44 45 45 44 43 43 45 44 43 42 41 41 43 43 42 42 40 41 39 38 39 38 37 36 36 41 35 26 14 23 29 30 39 38 26 18
36 37 36 35 35 35 35 39 45 47 48 48 47 45 46 45 44 41 41 41 40 41 42 40 39 37 36 38 36 37 35 31 26 26 32 31 22 18 15 25 28 30 24 21 19
36 36 37 36 36 35 36 38 40 44 46 47 44 46 44 43 44 41 41 41 39 42 43 40 39 37 36 36 33 30 29 15 3 29 30 34 35 22 27 19 22 20 19 20 22
38 37 38 38 37 37 37 40 41 41 42 44 47 46 44 43 44 39 37 39 33 40 36 35 36 36 33 34 32 29 24 17 2 20 47 48 42 24 18 17 14 13 18 20 24
39 39 38 39 40 40 40 39 40 42 43 43 44 43 50 46 44 41 40 40 39 40 35 35 35 32 30 33 31 28 25 21 28 33 32 39 31 23 6 18 23 16 18 22 21
36 39 41 41 43 42 42 39 41 40 42 42 42 42 44 48 47 43 42 40 39 38 37 34 32 29 33 34 32 29 28 28 28 36 36 30 24 19 16 16 30 18 21 22 20
39 40 42 43 44 44 42 41 40 39 39 39 39 38 35 43 47 43 38 41 42 40 36 38 39 39 36 34 35 33 28 21 26 30 32 19 20 18 21 20 13 20 24 24 19
30 33 36 39 42 43 40 44 41 39 36 38 36 34 33 37 41 43 43 38 36 34 33 31 36 38 34 32 29 30 24 25 27 27 20 22 21 16 20 13 7 16 26 21 18
18 21 24 25 31 35 40 40 42 41 36 33 32 34 37 38 35 36 35 29 33 38 37 36 32 32 34 31 28 26 23 27 24 18 20 19 18 12 15 17 17 9 11 20 14
17 16 17 19 22 25 33 39 41 39 33 32 30 40 35 36 34 32 31 30 35 39 37 38 35 35 30 25 24 24 22 24 19 19 16 14 15 11 6 16 15 17 21 18 13
24 20 18 19 20 22 23 27 35 34 36 29 31 35 29 33 32 32 34 30 31 32 31 32 25 28 26 24 22 25 21 20 18 17 11 11 11 10 11 16 21 20 20 12 14
32 27 25 21 21 19 20 18 19 30 33 29 27 31 30 28 29 28 29 31 35 34 34 29 25 28 23 23 24 23 19 20 16 15 9 8 17 12 11 14 15 19 14 7 8
39 35 32 28 24 21 18 19 21 24 22 22 23 28 23 22 23 26 26 29 31 29 29 30 27 27 22 25 21 21 19 18 19 18 13 13 18 9 16 11 11 14 13 9 8
46 43 39 34 30 24 21 22 23 21 20 21 26 22 21 20 23 23 26 26 30 33 34 29 28 27 26 24 21 19 16 13 16 16 19 18 14 9 20 7 7 11 13 13 12
53 51 43 42 35 30 29 27 24 22 24 22 24 23 24 26 25 24 25 22 22 28 31 31 27 29 25 23 21 16 14 14 14 15 16 18 8 11 7 12 13 15 18 14 20
60 59 50 49 43 39 36 34 29 25 27 26 25 23 26 27 27 22 20 20 18 24 28 26 28 25 23 23 17 16 13 12 13 12 8 17 12 6 1 11 12 27 28 21 21
67 65 59 58 52 49 48 40 34 31 30 28 29 30 27 25 27 23 21 15 18 23 22 23 23 21 25 17 19 19 13 12 7 6 4 12 10 12 8 4 33 30 26 24 27
71 71 67 66 62 57 52 46 44 40 37 34 33 31 29 28 27 23 20 21 26 21 22 24 24 22 22 19 15 15 17 13 7 5 4 5 8 7 7 15 31 35 38 30 30
81 81 73 68 70 66 61 58 52 49 48 42 39 36 34 31 28 25 23 25 26 22 27 22 22 22 21 17 19 18 16 13 9 8 8 10 4 8 7 18 12 17 42 41 42
88 90 81 82 76 75 74 70 64 61 58 52 48 45 41 37 35 31 27 26 28 23 26 23 24 21 16 20 19 16 15 13 7 10 9 8 1 6 6 9 12 20 38 38 42
92 93 91 90 86 83 81 79 74 71 66 63 58 53 48 45 40 36 32 28 30 29 28 27 27 24 20 20 20 14 18 12 9 9 6 1 4 5 6 15 16 27 27 28 19

GFSSW_250_spd_003.txt.gz
Wind_Speed
36 37 36 37 36 37 42 44 45 43 40 41 42 44 43 42 44 42 40 40 39 40 40 41 41 41 42 40 38 38 36 39 38 38 38 43 44 41 40 44 42 39 36 42 39
38 37 38 38 37 38 41 44 45 44 41 40 41 42 44 44 44 42 43 43 41 41 42 44 44 43 45 45 42 41 38 36 38 41 43 41 42 38 44 49 42 36 37 41 49
40 38 39 39 39 39 42 44 44 45 43 41 41 42 43 45 46 45 46 43 43 42 43 42 41 40 43 44 43 42 38 39 41 44 40 38 43 39 48 47 45 38 34 41 44
45 42 42 41 41 41 43 45 46 46 44 44 42 43 43 45 44 45 45 45 45 44 42 40 40 42 43 43 40 39 43 41 43 40 41 42 49 40 41 36 40 38 35 34 41
47 45 44 44 44 43 45 45 45 46 46 46 43 43 44 46 44 45 44 44 44 44 44 42 42 42 42 42 43 43 43 43 42 41 39 39 42 39 31 31 32 32 29 28 23
48 45 46 46 45 44 45 46 44 45 48 48 47 45 44 45 44 44 44 44 43 43 44 44 42 41 40 42 43 43 42 41 39 40 38 34 36 32 24 24 21 27 26 28 34
46 45 46 44 43 43 43 46 46 46 47 48 48 46 43 45 44 44 45 45 45 45 44 43 41 39 39 40 41 40 40 40 36 36 38 30 23 20 26 19 20 27 33 36 39
45 48 43 41 40 42 41 44 47 48 49 48 48 45 42 44 45 46 46 45 43 42 42 41 39 37 35 35 36 36 36 33 23 24 30 23 15 25 29 18 26 32 36 42 44
42 43 39 38 39 39 39 37 38 43 45 46 45 45 45 42 46 46 45 43 41 40 40 39 37 35 34 34 34 35 37 30 19 34 34 32 22 31 14 10 21 30 29 27 34
37 37 37 37 38 38 37 36 35 35 37 41 43 43 45 46 49 46 44 43 39 36 37 33 33 34 34 31 33 33 37 23 23 29 32 36 25 19 24 22 4 22 33 48 21
34 38 38 36 37 39 38 35 36 36 36 34 40 35 45 43 41 43 42 38 37 35 34 32 34 32 29 28 30 31 34 29 26 31 32 34 27 18 19 17 21 22 9 24 29
31 37 39 38 39 39 38 38 39 35 35 35 38 37 40 40 46 46 44 41 36 36 34 35 39 34 29 31 31 31 30 33 29 28 39 45 42 33 15 23 33 20 19 23 34
32 32 36 38 40 41 39 40 41 40 40 37 39 39 40 39 41 45 48 49 45 41 42 40 41 36 35 32 30 26 29 33 30 31 29 40 32 6 10 22 26 24 23 13 30
36 36 36 37 40 39 38 45 44 43 40 42 38 36 34 38 41 41 43 45 46 45 40 37 40 37 32 35 35 36 31 30 29 27 25 23 19 7 8 18 15 13 16 13 19
35 38 39 39 40 36 41 41 41 43 39 44 34 30 38 37 41 36 34 36 44 40 31 36 37 33 32 29 28 34 28 31 26 23 22 22 12 10 6 13 20 24 32 27 19
25 26 26 26 27 27 32 29 34 36 35 40 36 36 35 37 35 36 31 33 32 36 31 33 32 33 35 33 31 31 29 25 21 20 18 13 9 8 12 8 18 24 23 18 19
25 23 23 20 19 20 20 19 19 24 37 39 35 39 37 34 34 33 32 33 32 29 28 32 33 36 38 35 30 28 25 21 21 16 9 11 7 7 1 5 14 16 26 26 16
31 28 28 23 22 17 15 14 17 24 32 37 32 38 34 34 35 34 32 34 35 32 32 32 35 35 33 27 26 26 21 21 18 13 11 11 8 11 5 5 7 14 18 14 12
39 36 34 29 26 20 15 14 21 19 21 25 28 31 32 30 30 30 29 32 36 35 32 32 30 33 27 27 26 26 20 17 17 14 12 14 2 7 13 4 3 4 10 11 10
45 43 39 35 32 25 21 21 23 18 14 17 24 30 35 34 31 30 30 33 31 32 34 35 32 31 28 27 26 21 19 16 15 15 15 18 12 8 6 18 8 6 9 17 17
49 48 43 42 37 31 30 29 24 18 16 18 23 32 31 24 23 27 30 31 30 32 33 34 30 30 28 26 26 20 20 15 10 10 8 9 18 17 17 17 11 2 6 18 17
55 53 49 47 42 38 38 36 28 23 20 22 21 26 24 29 27 28 27 27 25 22 24 30 27 29 27 23 23 23 21 15 9 5 8 12 15 17 15 12 12 8 2 18 25
61 58 56 55 50 46 45 39 34 28 25 26 24 26 27 31 27 29 26 23 15 19 18 22 26 28 23 27 23 22 19 15 7 2 1 15 13 17 9 8 7 12 3 9 25
66 63 59 58 56 51 50 45 38 35 31 31 29 29 28 29 29 33 28 19 21 17 19 19 24 27 26 21 17 22 21 16 9 5 4 14 20 20 15 10 3 2 10 7 36
73 70 62 60 61 56 55 52 49 46 43 36 33 34 37 35 32 33 28 24 23 22 19 22 25 26 23 18 20 23 21 16 13 8 4 12 19 15 16 20 20 6 20 13 31
76 74 71 69 66 64 66 65 63 59 53 47 44 39 38 37 37 36 28 27 27 26 24 25 25 20 21 22 23 24 17 16 14 11 9 10 15 17 24 26 18 7 17 11 34
81 79 77 75 73 73 72 69 67 64 59 54 52 48 42 42 35 32 27 30 29 28 27 29 25 27 25 26 23 19 17 16 16 15 19 17 14 20 22 6 7 7 10 21 24

GFSSW_250_spd_006.txt.gz
Wind_Speed
36 36 35 32 30 27 27 29 34 37 40 41 40 40 39 42 42 40 40 40 40 41 41 42 40 39 40 40 40 41 38 39 37 43 45 38 41 42 40 39 40 41 42 46 47
37 38 37 34 33 31 30 32 34 37 41 41 41 39 40 40 41 43 40 41 40 39 39 40 40 39 40 43 41 42 40 40 42 44 43 44 42 41 40 42 43 46 47 46 44
37 39 38 38 36 35 33 34 35 36 41 41 40 39 40 40 40 42 41 43 43 43 41 43 42 41 43 44 42 41 43 42 39 42 44 43 43 42 39 42 44 46 44 36 35
39 39 39 39 37 37 34 35 36 36 40 41 41 41 42 42 41 41 43 45 44 43 43 43 44 42 41 42 43 44 46 45 43 42 41 41 40 40 37 39 38 36 36 29 28
40 40 40 40 40 39 37 37 38 38 39 42 42 41 43 42 42 41 42 42 44 44 43 43 44 43 42 43 46 48 47 45 40 38 39 38 35 33 27 22 23 21 20 24 22
44 44 44 43 44 43 41 41 41 41 42 43 44 44 44 42 43 42 42 42 43 44 44 43 42 42 44 46 46 45 45 40 39 37 37 38 37 27 18 18 15 14 20 29 26
51 51 50 49 47 45 44 43 43 43 43 44 44 46 47 42 43 44 43 43 43 45 45 43 43 42 44 45 46 45 41 37 37 35 34 37 28 14 15 15 14 15 21 26 32
57 56 53 53 49 47 46 46 45 45 44 45 44 46 46 44 46 46 45 44 43 45 44 44 43 44 45 46 45 43 41 38 35 32 31 31 32 26 16 11 7 10 16 5 18
61 57 53 51 47 47 46 46 45 44 45 46 45 46 47 46 49 49 46 43 44 45 45 42 42 43 44 45 44 39 38 37 34 29 29 32 31 30 18 11 7 16 7 4 9
50 47 46 47 48 47 47 45 44 42 40 43 44 45 48 49 51 48 47 44 45 45 44 40 39 41 40 43 42 36 35 31 31 29 28 31 31 33 17 15 11 19 9 13 8
34 34 40 42 44 42 42 42 39 38 35 33 39 43 45 48 48 45 46 46 48 47 43 42 41 39 34 37 38 32 29 28 28 26 26 29 28 33 29 20 19 27 24 8 2
32 34 35 36 38 38 35 38 35 35 34 33 33 34 42 42 43 46 44 46 48 45 38 36 35 33 33 33 31 31 33 32 28 26 23 30 34 37 36 23 31 32 24 13 1
30 29 32 34 36 32 32 37 36 35 33 35 35 35 36 37 41 44 45 43 43 40 39 35 32 35 37 34 33 35 33 31 30 25 29 23 29 38 35 31 37 30 28 19 10
28 28 28 32 32 31 35 36 34 35 35 41 37 40 33 36 39 42 42 41 47 49 44 38 39 38 40 41 36 38 36 39 39 35 34 17 16 18 25 32 32 32 34 26 15
26 31 29 28 30 32 39 36 37 39 37 45 41 39 42 39 44 39 41 40 43 43 42 54 49 41 38 40 35 38 31 34 35 31 26 6 9 12 13 14 18 17 31 20 16
29 31 33 33 33 33 37 32 35 39 41 44 45 46 44 43 43 38 38 38 39 38 37 46 43 34 36 36 37 33 32 28 28 24 17 11 5 9 7 9 16 18 20 38 31
28 29 30 30 31 33 32 29 32 31 41 42 45 47 43 44 41 35 35 37 39 32 32 38 36 36 33 36 32 30 31 32 29 19 14 11 9 5 8 9 13 14 12 17 23
28 28 29 25 26 23 22 24 24 30 32 25 31 38 40 42 42 34 34 37 38 33 34 33 34 35 34 30 28 33 35 30 25 15 16 10 14 17 13 12 11 18 12 17 24
35 33 30 28 25 22 20 20 26 28 19 16 23 32 40 41 40 34 33 37 38 34 35 35 36 32 30 32 32 33 30 25 22 16 17 12 21 19 16 15 15 17 21 15 16
41 39 35 34 29 27 26 27 29 23 16 13 20 27 38 40 35 33 32 35 38 36 37 39 36 33 34 32 32 27 25 21 22 18 19 12 14 21 25 23 21 21 17 13 14
47 43 42 40 37 33 33 35 30 21 16 18 18 20 31 38 34 27 30 33 34 34 34 35 35 36 34 32 33 24 24 19 20 17 14 13 20 30 29 32 26 25 26 21 10
54 50 48 45 43 42 41 40 34 25 20 21 20 21 29 35 31 22 33 34 39 34 32 33 33 34 35 29 29 23 24 22 21 14 14 17 25 32 32 24 25 22 22 24 21
59 57 55 51 47 45 44 43 38 31 23 25 23 21 23 25 23 26 34 36 25 22 26 30 27 33 31 28 31 26 26 22 19 12 13 16 26 28 26 17 12 15 21 16 18
64 62 59 57 54 48 45 45 42 39 32 32 29 24 22 22 24 27 33 27 20 18 20 23 24 28 27 28 27 27 27 22 17 13 13 26 22 23 17 14 14 19 12 18 25
70 69 67 65 61 56 54 55 53 49 45 39 34 30 28 26 27 31 31 24 18 21 19 19 21 24 23 26 27 29 28 24 23 16 13 27 29 29 29 22 23 4 1 18 21
77 73 70 67 66 64 61 61 58 55 48 42 39 37 31 29 29 31 33 24 22 21 20 16 22 27 25 28 27 29 30 29 23 20 21 26 28 28 30 28 15 11 6 12 12
82 78 74 72 71 70 65 63 59 56 51 49 45 41 35 34 30 34 34 28 27 27 24 22 26 27 27 28 26 27 27 25 25 22 23 23 25 31 30 21 21 19 11 15 14

GFSSW_250_spd_009.txt.gz
Wind_Speed
44 44 43 40 37 32 31 31 32 31 34 37 38 38 39 39 40 40 44 44 41 40 38 38 36 37 42 41 42 42 41 40 38 37 36 38 40 41 41 39 41 39 36 36 31
44 42 41 41 38 34 34 32 30 30 34 36 39 39 40 38 38 40 41 42 42 43 39 38 39 39 42 40 43 44 42 40 37 36 35 37 40 41 43 45 40 36 35 30 22
42 40 41 42 39 36 34 33 30 30 33 34 38 40 41 39 39 40 41 41 40 41 41 40 39 40 41 43 44 43 42 40 36 33 38 38 38 44 45 41 39 35 29 17 9
42 41 42 41 39 38 35 34 33 31 34 36 37 41 41 40 40 41 41 40 39 41 41 42 43 43 44 45 45 44 44 40 40 40 41 41 42 44 40 39 35 32 6 4 5
41 42 42 42 40 39 38 35 35 35 35 37 37 42 42 41 41 42 42 41 41 41 41 41 45 47 46 46 46 47 45 44 43 44 44 41 41 41 38 39 33 27 6 6 5
42 42 43 43 41 41 40 37 36 36 37 37 39 41 43 42 42 41 42 42 44 43 42 44 46 47 48 47 48 43 40 43 43 42 39 39 38 40 37 33 32 15 15 9 8
43 43 42 42 43 41 41 39 40 38 38 38 39 41 42 42 43 43 41 42 43 43 42 44 45 46 46 47 44 42 39 41 42 39 37 37 39 33 31 27 23 16 16 6 9
46 48 48 46 44 44 43 43 43 43 41 40 42 42 42 45 44 45 44 42 42 43 43 44 46 47 47 47 44 41 40 39 40 41 38 36 36 37 30 27 22 14 5 5 2
50 52 52 52 50 50 49 48 45 45 44 44 42 44 45 45 46 47 45 44 44 44 45 45 46 48 48 47 44 41 40 40 42 40 41 39 36 33 31 24 12 13 4 7 1
55 56 57 57 56 56 53 52 49 47 46 47 44 46 46 47 46 46 46 46 47 47 47 46 47 46 46 47 43 41 39 42 42 37 37 36 32 30 29 26 13 17 8 4 5
60 63 64 63 61 57 54 53 48 48 48 47 45 45 46 46 47 47 48 45 51 50 47 48 48 45 43 46 43 39 36 34 37 33 32 34 25 27 30 28 23 16 9 9 12
58 61 60 58 57 55 52 48 50 51 49 45 43 44 46 48 46 44 49 50 48 47 46 48 49 45 46 46 42 39 32 31 31 28 32 30 29 29 24 28 29 18 14 17 11
34 42 37 39 47 43 44 49 48 46 42 41 42 43 42 41 44 45 45 48 50 49 46 48 47 44 43 39 37 35 30 30 31 29 30 29 26 32 30 27 26 22 17 20 16
25 34 37 33 33 36 38 42 40 40 39 39 40 41 34 35 36 37 41 41 43 40 41 45 45 42 37 34 34 36 35 36 35 35 34 35 33 33 30 23 26 24 15 22 23
20 27 26 29 32 36 39 36 36 37 37 38 36 36 36 37 44 36 36 38 41 37 39 49 45 40 37 42 36 41 38 40 41 35 30 29 24 26 20 17 25 23 17 24 26
20 26 28 29 33 39 39 35 37 34 36 37 39 39 40 42 45 40 38 37 40 40 40 45 44 43 51 46 44 46 40 38 35 34 31 18 22 19 18 21 21 20 22 27 31
26 26 31 29 29 33 34 35 36 35 40 38 41 42 44 46 46 43 42 41 43 38 40 44 41 41 44 52 52 43 37 32 32 32 28 19 21 17 17 18 17 22 26 31 29
28 28 30 30 32 32 31 32 32 37 40 38 40 41 45 47 47 43 42 43 43 38 37 37 40 40 40 41 35 34 36 29 29 30 28 20 20 16 17 16 17 18 17 24 20
30 29 29 31 35 34 32 31 35 38 37 32 34 35 39 43 42 40 41 44 39 37 36 36 40 37 35 34 36 32 32 32 29 29 22 19 17 18 20 17 17 20 26 21 12
38 33 29 32 31 30 29 29 32 31 30 27 26 28 32 36 38 37 36 40 42 37 35 35 41 36 35 33 35 33 33 30 27 21 20 20 21 23 20 19 18 16 17 20 12
44 41 37 36 33 32 31 33 32 27 24 22 26 28 27 28 32 32 34 42 43 38 35 35 37 38 36 33 37 35 31 29 23 23 21 21 22 26 27 23 19 18 21 19 17
51 48 45 42 39 37 37 37 32 25 23 23 24 24 21 21 25 27 34 41 42 37 36 37 37 37 36 37 35 35 31 27 24 25 24 23 25 29 29 26 20 21 25 24 19
58 55 52 47 44 43 41 40 36 33 32 30 26 25 22 19 21 22 29 35 34 35 33 34 31 36 32 32 34 36 31 27 23 25 23 20 24 26 35 33 25 23 21 24 23
64 61 58 56 52 48 45 46 45 41 37 35 31 25 23 21 19 22 25 33 35 34 32 25 25 31 31 35 30 29 30 28 28 27 23 21 21 31 33 35 30 27 26 30 27
70 67 64 61 58 55 53 51 49 46 39 37 35 31 26 22 21 24 24 24 30 23 19 16 22 27 33 28 24 29 32 29 31 28 22 17 21 25 26 36 31 23 19 20 23
75 73 71 68 63 61 59 57 52 50 45 40 39 36 32 27 26 29 24 22 22 21 19 20 21 27 30 22 25 31 31 32 33 27 24 21 22 21 24 29 24 24 20 18 25
79 77 76 73 70 67 63 61 58 58 54 48 46 42 37 33 30 32 26 25 25 25 26 22 23 25 26 25 31 33 34 34 33 29 23 25 25 29 31 31 29 30 23 13 20

GFSSW_250_spd_012.txt.gz
Wind_Speed
48 47 50 48 45 41 40 39 37 37 37 37 38 39 39 38 37 38 39 40 40 41 38 38 42 38 36 36 35 36 36 40 39 39 40 41 42 40 40 44 43 40 37 33 22
48 47 49 46 45 44 40 39 37 35 35 34 35 36 39 39 38 37 37 38 38 37 35 36 41 35 35 35 35 36 36 39 40 39 40 41 41 41 42 41 39 37 33 27 3
48 48 48 46 46 45 41 38 37 35 34 35 36 38 37 39 40 38 38 38 38 39 35 36 39 35 35 38 38 38 38 37 37 38 40 42 43 43 43 40 37 35 29 4 5
47 47 46 45 45 43 41 39 37 36 34 35 35 38 38 38 40 40 39 38 39 40 38 37 39 39 38 38 37 38 38 38 38 41 40 44 43 41 39 33 32 32 13 14 10
45 45 44 44 44 44 43 40 38 37 36 34 34 36 37 37 39 40 40 40 39 40 39 39 39 40 39 39 40 41 42 40 40 43 42 38 38 37 36 29 29 25 8 16 15
44 43 43 44 43 43 42 41 40 38 37 37 36 36 36 38 40 41 41 42 41 40 39 40 40 41 40 41 42 42 42 43 44 43 40 37 35 36 31 30 29 22 9 21 17
45 45 44 43 42 41 42 41 41 39 39 38 38 37 35 37 38 41 41 42 41 41 41 40 41 42 42 43 44 44 44 44 42 40 38 36 34 35 34 31 28 24 15 19 23
47 45 43 43 42 42 43 44 42 42 40 40 39 36 38 38 39 41 42 43 41 40 41 43 43 44 45 44 44 45 45 45 43 39 36 36 36 36 38 34 28 22 15 17 30
43 44 45 43 43 44 44 42 43 43 42 42 41 39 39 39 41 41 42 42 42 41 41 42 43 43 44 44 43 44 47 45 42 38 36 36 38 38 39 36 28 19 17 17 20
40 43 44 45 45 45 45 46 46 45 45 44 43 43 42 43 42 40 41 41 43 43 43 43 43 45 44 44 43 44 46 47 41 39 38 38 37 34 35 31 26 14 21 17 22
42 42 44 47 49 51 52 52 50 50 48 47 46 46 45 44 43 43 44 43 44 44 44 46 47 43 46 45 43 45 45 47 45 40 41 37 34 28 26 23 26 14 27 22 24
42 46 49 52 53 56 58 57 57 55 54 53 51 48 48 46 45 46 45 42 43 43 42 46 46 45 47 45 44 41 41 42 42 39 36 35 31 25 21 23 25 23 23 28 27
43 50 56 62 62 64 65 64 61 59 57 55 52 51 49 49 46 46 44 42 41 43 46 45 43 44 45 46 42 39 37 37 35 33 31 34 25 24 25 31 31 26 20 30 30
39 43 52 61 63 66 67 65 62 59 56 56 53 51 50 46 44 42 42 42 41 39 39 46 48 48 47 44 45 45 39 33 31 30 34 34 27 28 31 29 29 23 17 30 29
29 28 37 50 50 47 51 53 54 57 56 56 50 49 43 44 47 41 39 38 38 36 41 41 35 38 40 40 39 41 34 33 31 33 37 37 28 29 26 20 23 22 18 28 30
20 13 10 25 35 43 39 44 50 45 43 43 42 41 41 44 45 38 34 32 32 32 34 37 38 37 41 39 42 44 37 33 32 33 38 34 20 28 20 20 24 22 19 25 30
19 16 19 23 27 38 41 42 39 36 40 35 39 40 40 39 37 34 34 35 36 35 35 37 39 39 40 42 41 42 40 43 41 42 39 31 20 25 16 20 23 21 20 22 37
24 20 21 25 28 27 33 36 34 38 40 39 39 38 37 38 37 36 36 38 43 43 40 38 42 40 40 42 40 37 36 36 39 36 35 29 21 21 18 19 17 21 21 20 38
30 23 24 29 30 28 30 33 38 41 40 37 37 36 37 38 40 40 42 44 48 45 42 40 41 42 40 39 38 33 33 33 29 32 29 22 21 20 21 21 18 21 24 25 26
36 30 27 30 32 31 30 32 36 36 36 37 37 37 37 37 41 41 44 50 51 44 39 38 39 40 35 37 34 34 31 30 30 29 24 22 18 23 22 22 21 24 25 25 26
43 38 34 30 30 32 34 35 36 37 38 39 37 35 34 36 35 34 35 42 44 41 40 42 40 39 34 34 35 34 32 29 29 26 23 19 19 23 23 23 23 23 21 21 18
49 46 42 37 32 30 34 34 34 33 31 30 29 31 32 31 29 28 28 32 35 38 38 38 36 37 36 34 33 31 32 30 27 25 19 19 22 21 21 25 26 22 21 27 14
54 52 48 44 40 36 33 33 33 31 30 30 30 29 29 27 27 26 24 25 32 35 34 32 34 38 37 35 36 33 34 32 28 22 23 22 23 21 23 24 29 24 23 25 17
61 57 54 51 47 44 41 39 38 36 35 33 30 28 25 25 24 24 22 17 25 31 33 31 32 34 33 34 30 30 29 29 28 25 26 25 23 24 25 29 27 23 20 24 17
66 63 61 57 54 52 49 46 45 42 38 37 37 31 29 29 26 25 24 17 21 28 30 31 32 31 32 29 27 26 28 28 27 27 28 25 26 22 30 32 24 27 23 21 19
74 69 66 62 60 58 55 52 51 49 45 43 43 38 35 32 28 29 27 20 19 26 29 27 19 17 26 31 28 28 29 30 30 25 30 30 29 25 29 28 20 24 28 23 23
79 77 73 70 66 63 62 60 57 55 50 47 46 43 38 35 34 33 31 24 22 23 25 25 24 25 30 34 28 21 24 33 31 33 32 32 27 26 28 19 20 19 23 24 20

GFSSW_250_spd_015.txt.gz
Wind_Speed
57 54 55 53 49 44 44 44 42 41 41 38 37 37 36 34 35 34 36 37 38 39 39 39 38 38 39 37 37 39 38 38 38 38 35 34 36 36 36 38 38 38 38 33 29
48 46 47 50 48 45 45 46 42 42 41 40 37 39 38 38 38 36 36 37 39 38 39 39 37 38 38 38 37 40 40 38 40 39 38 36 36 37 37 38 37 37 32 31 26
46 45 46 46 49 46 47 46 45 43 42 40 38 39 39 38 40 41 39 39 38 39 38 38 36 37 39 38 35 37 38 38 40 39 38 36 37 39 37 34 36 33 28 29 16
47 47 46 47 46 46 46 46 46 44 41 41 39 38 36 36 37 38 41 40 39 39 38 38 37 38 37 37 35 35 37 38 37 36 36 38 40 41 37 32 31 27 26 27 12
48 48 47 46 47 47 47 46 45 44 42 41 38 37 35 36 36 37 39 40 39 39 40 41 40 39 39 37 37 37 36 36 37 36 37 39 38 40 34 29 28 26 24 21 19
47 45 45 45 46 45 45 45 44 44 44 41 39 35 35 35 37 38 38 38 39 37 39 40 40 39 39 38 38 39 38 39 38 37 37 38 39 38 35 29 28 26 26 19 24
42 42 42 43 44 45 44 44 44 45 45 42 39 36 35 34 35 38 39 38 38 38 39 39 40 38 38 39 39 39 40 41 40 39 40 39 37 38 36 34 30 27 26 22 30
41 42 42 44 43 43 44 44 44 43 44 44 41 38 37 36 35 36 35 35 37 38 39 40 40 41 39 39 39 40 42 42 41 41 39 39 37 38 38 35 33 31 28 26 20
43 42 41 44 43 42 42 41 42 42 43 43 41 38 36 36 35 34 35 34 36 38 39 39 38 40 41 40 42 44 45 44 41 40 37 39 37 38 38 37 36 34 30 24 22
42 42 44 45 44 42 42 41 43 44 44 43 42 40 37 39 35 33 33 34 35 36 38 40 39 39 38 38 41 46 46 43 40 39 38 37 37 38 38 36 38 34 26 22 27
43 42 44 47 45 44 45 45 43 42 41 44 43 43 40 39 36 35 35 35 33 35 36 37 39 38 41 41 40 43 46 43 40 40 41 39 37 35 34 36 32 31 25 21 26
35 37 41 45 47 48 48 45 45 44 44 43 45 44 43 40 38 38 36 35 36 37 38 37 35 38 40 40 40 42 44 42 40 40 40 38 33 28 28 30 26 27 22 19 28
34 36 39 43 46 49 48 47 47 50 49 48 48 47 47 43 42 41 37 38 39 40 40 37 37 38 39 39 39 41 41 41 40 34 32 33 28 21 27 27 27 26 20 19 33
34 35 37 41 46 50 51 51 53 55 56 55 54 52 51 49 46 45 43 43 42 41 40 36 36 37 41 43 42 41 41 43 39 34 31 25 24 26 30 30 28 25 18 17 37
39 38 41 43 46 53 56 59 61 62 61 58 58 56 56 53 50 47 45 44 42 41 40 38 38 38 37 38 41 41 37 36 31 25 26 25 23 26 31 26 23 23 14 17 30
38 39 40 43 46 53 60 66 70 70 67 64 61 60 59 57 54 48 45 43 41 38 39 38 37 37 35 32 33 33 30 28 28 28 27 29 24 28 31 24 21 21 14 10 21
37 36 38 35 38 47 57 65 68 65 63 63 63 61 59 56 54 48 44 40 40 39 37 36 34 32 29 30 31 34 32 30 33 35 36 36 32 33 32 26 23 19 15 10 12
36 33 30 29 26 23 32 51 49 46 48 50 53 51 53 53 47 40 37 38 39 40 40 37 33 32 31 32 33 34 34 31 31 30 31 30 30 30 29 25 25 19 16 12 14
37 33 28 25 21 14 12 15 38 45 47 46 46 44 41 38 35 34 36 39 40 41 39 38 38 38 35 35 37 34 33 31 30 29 28 21 19 18 22 26 22 18 17 16 16
41 36 31 26 22 20 19 24 29 36 39 39 38 37 36 35 34 36 38 39 42 41 39 41 42 41 39 39 39 34 31 29 28 26 25 20 17 19 23 23 20 18 18 18 16
46 42 38 30 24 25 26 26 28 30 37 38 39 38 36 35 37 37 39 41 40 41 42 43 42 43 41 41 38 32 31 30 26 24 23 19 20 19 18 20 20 19 20 21 18
51 47 43 37 30 27 32 31 30 32 36 37 37 37 36 36 37 38 39 37 38 40 42 42 43 43 40 40 36 33 30 29 27 25 23 19 24 18 19 21 22 20 21 21 17
54 51 48 44 38 33 33 34 35 36 37 37 37 37 38 39 40 38 34 32 32 33 37 36 36 37 36 36 35 33 32 33 32 27 25 20 24 16 21 22 21 22 20 15 18
61 56 53 50 47 42 37 33 36 42 42 41 39 38 39 38 37 32 29 28 26 23 30 35 33 33 34 33 31 29 30 31 29 29 27 23 24 18 23 21 22 23 22 20 23
67 63 58 55 53 49 44 40 37 35 36 36 35 35 35 32 30 28 26 25 23 18 22 28 30 31 34 32 29 27 26 25 26 25 28 26 26 21 24 22 22 21 24 21 20
71 69 65 61 59 55 52 47 45 40 36 36 35 34 33 30 28 28 26 23 18 20 19 22 27 28 28 29 26 22 25 26 28 25 27 27 28 26 27 23 26 18 18 19 22
78 74 71 69 65 61 58 55 52 48 44 41 40 39 36 33 32 31 29 27 20 18 22 21 25 26 28 27 21 21 29 29 29 27 28 27 29 28 27 26 23 16 18 21 20

GFSSW_250_spd_021.txt.gz
Wind_Speed
78 76 73 73 69 68 65 66 59 54 51 48 47 44 40 40 40 41 39 37 36 34 32 32 34 35 37 38 36 37 37 37 37 37 37 36 36 37 36 35 36 36 38 35 33
80 78 74 73 68 67 64 64 63 58 52 49 48 45 42 41 41 40 39 37 36 35 33 31 35 37 37 36 36 34 35 40 40 40 39 39 40 41 40 38 38 40 38 32 29
71 72 70 69 68 67 65 63 63 61 55 52 49 48 44 44 43 43 40 38 37 35 34 32 35 37 38 38 38 36 37 43 42 41 40 41 41 42 41 41 38 39 35 31 26
61 62 63 63 63 59 58 58 57 59 57 55 52 49 46 46 45 44 42 40 40 39 37 36 34 36 38 38 40 40 43 42 43 41 41 42 42 43 42 41 40 37 36 28 25
56 55 54 56 56 54 51 50 49 52 53 53 54 53 51 49 48 45 44 42 41 42 39 38 37 36 36 36 38 42 43 43 42 41 41 41 41 43 42 40 40 35 33 28 25
56 56 56 56 55 55 53 50 47 48 51 53 54 54 52 51 51 47 45 43 43 42 41 41 42 39 38 37 38 38 40 41 42 42 42 42 42 44 41 39 36 32 32 28 26
54 56 55 55 55 55 53 51 49 49 51 53 54 51 53 46 48 48 45 43 42 42 41 40 41 41 40 38 38 38 39 40 42 43 44 44 44 43 41 39 37 36 32 28 26
51 51 53 54 53 53 52 51 49 50 47 50 50 47 48 45 47 45 43 41 41 40 37 37 37 37 36 37 38 38 38 39 41 42 44 44 44 43 42 41 38 38 33 31 29
46 51 52 53 54 52 52 50 48 51 47 47 50 48 48 45 47 44 43 42 39 37 38 36 34 35 33 34 35 37 36 37 38 40 43 43 43 43 43 41 40 39 34 33 31
43 46 49 52 53 52 50 49 50 48 47 51 50 50 49 48 48 44 43 39 36 36 32 29 29 32 32 31 32 34 33 34 37 39 41 41 42 43 45 43 42 41 40 36 33
38 43 46 50 49 51 49 47 48 44 45 53 53 49 50 48 47 42 41 40 37 34 32 30 32 32 32 29 28 29 30 32 36 39 35 39 40 41 43 43 42 42 42 39 35
37 40 43 46 46 47 47 47 46 44 45 48 51 49 47 44 43 42 41 40 36 34 33 31 32 30 29 28 28 28 29 33 35 38 36 38 39 38 38 37 38 37 35 34 31
43 42 41 45 44 44 44 45 43 43 46 48 48 47 45 43 43 42 43 40 38 37 34 33 30 30 29 29 29 29 31 31 32 34 34 34 37 36 35 37 34 31 30 30 28
41 40 41 43 43 44 43 42 42 45 47 45 44 44 44 44 43 42 42 41 40 39 38 35 30 31 30 29 29 32 32 32 33 33 36 32 40 37 39 32 31 28 27 25 24
40 41 42 44 46 43 41 40 41 45 48 43 42 43 42 43 41 42 42 42 41 41 39 36 34 33 32 30 31 31 35 34 35 36 37 38 39 40 28 29 26 25 24 24 21
41 43 44 45 45 46 45 46 46 47 46 42 44 44 44 43 43 40 41 41 41 41 42 39 38 36 35 35 35 34 35 35 36 38 34 32 33 36 30 30 27 28 27 26 23
38 40 40 40 44 43 45 47 48 46 47 44 47 46 46 45 44 43 43 43 43 42 42 41 41 40 38 37 38 37 37 36 36 35 34 25 34 35 30 29 30 29 30 25 23
38 35 32 35 38 40 41 42 38 41 36 38 45 47 48 49 48 46 46 46 47 47 46 45 47 42 40 40 40 40 37 35 32 29 34 28 33 33 33 31 29 28 25 24 23
39 37 39 44 41 45 42 39 41 41 31 42 43 46 48 48 50 51 50 50 49 48 48 48 50 43 44 42 43 41 37 35 31 29 29 33 31 36 32 31 31 27 23 24 22
46 45 43 39 51 46 41 40 37 36 40 43 47 49 51 56 57 57 57 57 55 53 54 51 52 47 45 45 44 39 36 35 32 31 32 29 35 34 31 31 28 24 22 21 18
51 46 41 44 43 39 40 39 42 42 42 45 47 49 56 58 57 62 62 60 60 58 56 55 53 50 46 46 43 39 37 37 36 34 34 22 28 31 31 31 24 24 22 21 18
54 52 45 45 44 41 40 39 40 39 39 42 43 48 47 53 52 54 52 55 52 48 48 49 46 46 41 42 40 40 40 38 39 40 34 33 26 29 31 30 25 25 20 19 18
57 57 53 48 48 45 39 41 40 35 33 31 29 32 45 45 46 45 47 31 41 43 42 40 39 38 36 39 40 39 40 40 41 40 35 32 31 23 20 28 25 23 18 19 18
66 62 59 56 53 53 46 44 39 35 30 28 22 20 35 41 46 44 38 35 36 39 36 36 34 35 37 41 37 40 45 42 42 40 36 30 26 24 28 28 25 23 19 20 19
73 67 66 65 62 57 51 47 43 39 33 27 24 25 25 34 45 41 39 34 37 35 33 31 32 33 34 33 32 33 39 35 33 35 29 23 10 16 36 33 26 22 22 22 22
73 75 71 68 69 66 60 55 48 44 37 34 29 30 30 31 34 36 30 33 34 33 34 33 33 29 28 29 24 24 31 29 28 31 30 26 30 31 54 53 31 25 25 25 27
80 77 77 71 73 70 65 60 55 47 45 39 34 31 34 32 25 27 35 37 35 37 34 32 29 27 27 25 19 18 28 25 26 29 29 32 34 32 47 45 32 30 27 29 30

GFSSW_250_spd_024.txt.gz
Wind_Speed
83 81 77 79 80 83 79 77 76 74 71 70 66 62 57 52 48 47 41 42 39 38 37 35 33 29 30 31 31 31 32 39 46 48 46 39 37 36 35 36 37 41 38 35 35
88 84 84 81 81 83 80 77 74 67 69 66 61 59 52 50 48 44 42 42 39 37 36 34 34 30 28 31 31 27 26 37 42 42 42 41 38 38 37 33 31 24 26 36 36
77 78 80 82 81 79 75 73 69 68 64 62 57 56 52 49 47 46 42 41 40 39 37 35 33 31 29 29 29 28 22 31 28 30 31 35 39 41 40 33 30 30 44 43 37
76 77 77 76 76 75 76 73 73 69 66 60 61 58 55 49 50 47 45 42 42 40 38 36 33 32 30 29 29 31 34 39 46 45 47 47 42 42 42 41 38 44 46 43 39
63 64 66 66 69 69 66 64 63 61 62 60 57 59 57 52 52 49 47 45 44 42 41 36 34 33 32 32 32 32 36 39 43 47 47 47 44 43 41 40 41 41 41 39 36
54 56 56 57 58 57 57 58 57 55 53 49 48 54 50 52 52 50 49 48 47 44 42 41 37 35 35 36 34 35 37 38 40 43 45 44 40 41 42 43 45 43 40 37 34
54 54 55 53 55 54 53 52 50 48 47 47 45 47 48 52 51 49 50 48 47 44 43 41 38 36 38 38 38 39 38 40 40 41 41 40 39 42 42 39 43 44 39 34 33
55 55 54 54 55 54 54 54 50 49 48 46 47 46 49 48 50 48 45 44 44 42 42 40 36 37 37 36 38 38 38 39 39 40 41 40 41 40 46 49 47 43 37 33 32
53 54 55 55 57 56 55 55 54 52 51 49 49 47 50 50 47 45 39 40 35 34 35 37 35 35 36 37 36 34 35 34 35 39 38 39 40 41 45 46 46 44 41 34 31
46 48 51 54 55 54 53 55 53 52 50 50 50 47 46 42 39 39 40 43 38 38 35 36 34 35 36 34 32 31 29 30 34 37 36 36 37 41 42 45 43 44 42 39 33
41 41 44 49 51 53 53 53 52 50 51 49 47 41 42 44 42 42 39 39 40 40 39 37 34 33 31 30 30 29 28 29 31 33 33 35 37 38 40 42 42 40 38 36 33
40 43 41 42 46 49 50 50 50 50 51 49 49 44 42 46 47 48 47 46 43 40 38 37 34 32 32 30 29 28 26 27 29 30 31 33 36 35 38 40 40 35 38 33 28
39 42 40 41 41 44 46 48 49 49 50 49 50 47 53 54 52 52 49 46 42 40 40 38 34 35 30 30 27 26 26 26 27 29 32 33 37 33 36 42 42 41 33 29 26
35 40 42 37 37 42 43 46 46 48 48 47 47 43 54 57 52 48 47 44 40 40 40 39 37 35 32 31 29 28 26 28 30 31 34 31 36 40 38 39 41 39 31 24 23
31 37 42 43 39 38 43 42 45 46 46 51 46 43 47 53 55 51 45 43 42 41 42 41 38 36 35 31 29 29 30 29 31 32 32 34 34 41 37 33 27 28 31 23 24
29 35 41 39 38 40 39 40 37 37 42 43 41 43 43 46 47 45 44 43 42 42 42 41 39 38 36 34 33 32 33 33 34 32 33 33 32 38 29 12 28 38 28 29 28
32 32 40 40 38 42 42 41 40 35 38 39 42 44 43 42 43 42 42 41 42 41 41 41 40 39 38 37 36 34 34 35 34 33 34 24 26 39 37 23 31 37 26 28 28
35 32 38 40 44 46 48 45 42 39 41 43 40 44 43 44 43 42 41 41 40 41 41 41 41 40 37 37 38 37 38 36 34 34 35 28 26 26 30 34 35 41 29 26 26
36 36 38 42 43 44 44 39 43 51 52 42 40 45 46 47 46 45 44 45 44 43 42 42 41 40 38 41 40 39 39 39 36 35 29 27 24 29 23 34 39 37 34 27 24
38 37 40 41 38 39 38 42 47 45 35 28 42 49 48 49 48 47 46 47 47 46 46 45 43 42 42 43 41 40 40 40 39 34 28 25 21 13 8 20 47 43 30 28 26
42 39 38 40 37 33 35 41 43 39 40 39 43 40 40 41 40 42 43 48 47 48 49 49 47 49 40 46 45 41 43 41 40 33 28 25 16 7 13 17 38 46 33 28 25
48 43 43 46 43 45 45 44 48 44 45 42 39 34 38 39 40 44 47 52 50 53 52 54 53 53 48 47 48 44 45 41 37 32 28 24 19 20 31 38 49 39 40 27 24
53 49 48 52 48 48 43 38 58 60 51 42 38 39 40 39 41 50 53 51 44 52 52 51 48 45 49 45 45 40 39 36 32 30 29 21 13 8 19 27 32 31 28 27 23
58 58 54 53 53 46 40 38 44 43 36 34 35 34 37 39 44 49 48 43 46 46 37 35 37 41 39 37 36 32 34 35 30 30 33 28 29 24 9 15 15 26 32 27 26
65 63 57 56 56 53 47 44 42 41 41 34 35 36 36 35 35 41 45 50 51 46 42 36 39 33 34 28 30 31 32 35 34 33 32 32 16 11 11 18 20 30 33 23 28
69 64 65 61 59 58 53 48 46 44 39 38 37 33 30 28 22 31 47 42 36 39 37 32 30 29 30 31 28 30 29 29 33 30 31 23 18 27 21 23 17 37 44 41 41
77 72 71 65 66 64 63 59 55 52 47 44 40 37 32 25 21 13 21 39 34 40 42 39 36 33 31 31 29 21 22 22 26 23 26 21 31 25 23 21 34 52 54 44 43

GFSSW_250_spd_027.txt.gz
Wind_Speed
82 78 78 74 72 73 70 71 67 69 69 67 66 65 62 63 63 62 63 59 56 52 50 44 44 39 36 30 25 24 18 26 35 38 40 43 38 43 44 41 37 37 37 29 20
82 81 80 80 77 76 74 75 75 70 69 73 73 73 68 68 62 60 57 52 47 45 47 43 38 37 36 32 30 21 24 32 40 40 40 37 30 35 34 33 37 39 35 32 35
78 77 79 82 79 78 80 81 82 79 75 72 75 76 71 65 54 53 51 48 46 42 45 41 39 38 37 32 30 26 27 31 33 33 34 34 34 29 39 45 45 40 39 37 38
75 76 74 74 73 72 75 75 77 80 80 75 72 72 71 64 58 55 51 48 45 43 42 37 40 40 36 32 31 28 25 28 33 38 37 36 41 37 47 48 45 43 41 39 40
72 71 73 75 76 75 73 71 69 71 72 71 70 70 69 66 62 57 53 51 48 45 44 39 40 39 37 33 32 29 28 29 34 39 42 42 45 45 45 44 46 44 43 41 40
64 65 67 69 68 68 69 69 68 67 67 67 67 67 62 62 61 59 57 53 50 49 47 42 40 38 38 34 35 33 32 32 35 36 39 39 42 45 42 43 41 42 43 40 38
54 55 55 56 56 56 56 58 59 61 58 59 58 56 52 54 54 51 52 52 50 48 45 43 41 40 40 39 38 37 35 36 38 38 39 39 40 42 45 42 43 44 41 45 41
52 52 52 49 49 50 51 51 50 50 48 47 47 47 48 45 49 49 48 48 47 44 44 42 41 40 42 42 39 37 36 36 36 37 38 38 38 41 41 43 44 44 43 40 37
51 52 54 54 53 53 52 51 50 48 46 46 45 42 49 42 45 44 44 44 43 42 41 39 38 39 40 39 33 34 34 33 34 37 38 34 35 33 38 38 41 38 37 34 33
49 51 53 54 53 52 53 53 51 50 48 48 44 44 47 42 48 45 42 40 39 30 27 27 29 31 32 32 31 31 32 32 30 30 33 36 34 30 33 33 31 35 30 29 30
48 47 48 48 49 50 52 52 51 51 53 49 47 45 50 49 46 46 42 42 38 32 38 35 33 34 34 29 30 24 27 28 30 31 31 29 30 30 29 31 25 31 31 33 32
46 47 47 46 47 49 49 48 51 52 51 50 51 47 51 49 46 42 39 38 37 40 42 40 35 37 34 31 28 25 27 28 27 26 26 26 29 30 30 33 24 27 29 29 30
45 44 43 40 40 45 46 43 50 49 49 47 49 48 49 45 37 33 40 37 41 42 38 38 39 40 40 30 29 27 26 25 25 27 26 28 30 29 29 32 30 24 16 23 30
42 42 44 46 44 45 40 42 45 47 48 47 46 48 48 47 43 43 43 40 46 44 43 44 41 41 36 34 30 27 25 26 27 26 28 26 27 27 25 23 20 15 15 25 36
40 38 36 38 43 39 40 41 43 45 45 52 46 46 49 47 47 45 45 41 43 45 49 47 40 39 36 35 32 28 28 28 27 27 29 30 28 27 25 13 2 15 15 27 36
37 39 36 35 37 40 42 33 37 43 41 45 41 48 46 48 52 50 50 51 52 52 48 44 38 39 37 35 32 31 32 31 30 29 30 27 29 31 23 11 6 9 19 27 34
42 40 39 35 32 41 42 40 36 31 45 41 43 47 47 53 48 51 55 55 54 50 51 42 41 39 38 36 35 32 31 32 31 32 28 24 30 34 21 19 16 14 16 23 28
45 43 38 34 33 37 40 36 30 40 42 43 45 45 44 48 46 46 46 48 52 52 46 41 40 40 38 35 35 33 33 33 31 34 29 25 28 30 24 15 18 12 19 26 34
44 44 41 36 34 34 37 30 36 44 47 42 37 41 41 42 44 43 43 44 44 43 41 41 39 36 35 37 36 35 33 34 32 34 29 28 24 25 22 17 11 23 35 36 42
50 45 39 39 35 33 34 37 47 49 43 41 41 38 38 43 45 42 43 43 42 42 42 41 38 38 35 36 38 36 36 35 35 30 27 30 26 21 14 10 10 10 8 30 37
52 47 45 36 35 32 38 45 56 51 48 49 40 40 39 42 43 42 43 45 45 45 44 43 40 41 41 37 39 39 38 34 33 32 29 30 27 15 7 16 6 14 18 29 37
54 49 44 40 36 36 43 47 52 45 47 41 43 47 47 46 43 42 45 47 49 47 45 43 39 43 42 40 44 43 37 36 35 36 30 32 26 16 15 16 6 6 25 33 34
54 54 49 45 40 42 44 45 44 42 44 43 44 44 48 46 43 42 42 41 44 42 39 40 42 46 45 47 49 40 43 40 37 36 35 30 24 15 21 28 25 23 30 44 24
59 57 53 48 44 42 42 43 40 34 35 38 43 42 39 41 41 40 41 37 40 40 44 43 47 48 48 49 45 42 42 40 34 32 30 31 25 20 24 29 30 27 35 45 28
66 58 50 51 49 48 52 49 45 45 46 44 47 49 45 42 36 38 35 36 38 43 50 50 49 48 37 43 43 38 33 33 29 28 29 34 24 27 31 32 26 38 22 19 25
69 65 62 59 58 53 57 53 47 48 42 36 45 61 53 42 39 33 32 30 35 41 47 39 37 37 33 30 31 28 26 24 26 29 32 31 22 30 34 28 25 18 20 14 17
76 72 69 62 63 62 58 60 55 51 46 41 44 41 35 27 25 24 23 29 32 36 36 43 44 40 29 30 20 16 29 26 27 31 26 23 13 22 28 32 28 18 4 12 21

GFSSW_250_spd_030.txt.gz
Wind_Speed
72 71 69 65 63 63 64 65 64 62 58 59 59 56 57 57 58 59 59 61 61 60 58 55 53 47 49 45 42 38 35 37 37 31 30 28 33 31 33 29 27 26 28 32 36
78 78 76 77 78 77 76 73 69 70 67 64 61 63 61 63 63 61 63 64 63 61 57 56 54 45 44 44 35 34 32 34 34 31 30 31 35 29 30 31 30 30 35 39 36
83 83 81 81 80 79 78 77 79 73 72 73 69 67 67 69 68 69 65 64 65 63 59 56 49 44 38 34 34 35 33 32 31 30 27 30 35 29 29 29 34 40 42 39 37
80 81 81 80 82 82 80 79 78 76 75 73 75 71 70 71 71 70 69 67 63 62 60 52 48 40 38 36 36 36 34 34 33 32 29 30 31 34 32 33 35 39 39 39 35
76 76 74 75 74 72 71 73 72 74 71 69 68 68 68 67 66 66 68 65 63 63 60 53 51 45 41 39 38 37 37 37 35 35 32 31 30 36 37 37 39 41 42 41 39
78 78 76 75 73 74 72 69 66 66 67 66 66 67 67 64 61 61 60 63 62 60 55 53 53 47 45 42 40 40 38 36 33 33 30 31 31 34 37 39 41 42 42 41 38
73 73 71 71 71 67 67 67 68 67 65 65 63 64 63 62 62 60 56 55 54 54 51 49 47 47 46 46 44 41 36 36 34 35 33 34 32 34 34 35 38 38 38 37 37
60 59 58 58 59 61 61 59 60 60 60 60 57 58 58 56 56 54 52 48 47 48 48 48 47 46 47 46 42 40 38 34 32 33 35 33 31 29 30 31 32 33 34 33 33
51 51 52 52 52 53 53 54 53 49 48 48 47 47 48 45 44 42 43 44 44 44 44 44 42 40 44 41 40 39 38 33 32 33 30 30 29 28 30 28 29 25 25 23 23
51 51 52 52 52 52 52 50 49 47 45 43 41 44 45 43 45 42 41 42 41 38 36 37 37 36 39 31 29 33 28 28 31 27 30 28 28 29 24 25 23 24 21 22 21
53 53 52 53 53 52 50 51 50 49 48 45 45 45 46 48 44 42 37 38 36 33 32 33 32 32 22 22 27 29 25 22 22 24 25 28 26 23 23 23 21 22 24 20 18
53 52 51 50 49 48 47 49 50 49 49 44 46 46 49 50 47 46 44 42 41 36 37 35 33 29 25 30 33 31 29 21 21 24 24 24 23 25 22 21 20 22 19 18 9
50 49 47 47 48 49 46 46 44 46 46 47 49 48 51 50 51 51 53 48 49 42 41 40 35 37 37 34 31 33 31 23 24 23 22 23 24 21 21 20 21 21 15 19 14
48 48 47 48 47 45 44 46 45 45 43 46 47 50 49 54 54 50 51 47 45 40 41 35 42 43 42 33 32 36 33 29 26 22 22 22 24 20 22 22 23 15 24 21 24
50 48 47 46 45 43 43 44 39 41 41 49 46 49 49 50 52 51 49 41 36 37 41 38 41 39 37 36 38 37 34 31 26 23 25 20 22 20 20 19 12 13 18 21 27
48 46 45 44 41 43 46 44 43 42 38 40 42 49 48 51 49 50 46 43 42 41 43 38 41 41 44 42 43 35 33 31 28 25 27 24 21 18 9 10 11 17 12 10 13
47 46 44 43 40 40 38 33 38 35 39 41 44 51 52 50 49 50 52 48 44 41 42 45 43 45 44 44 40 35 33 31 29 26 28 25 23 18 14 9 6 11 10 12 29
48 47 46 42 39 41 33 29 33 41 46 44 47 50 50 50 50 51 55 52 46 48 46 44 44 45 46 41 38 34 33 31 30 28 28 28 25 19 14 9 13 19 6 13 32
51 50 47 46 42 37 34 30 33 45 52 39 39 43 48 48 48 49 50 55 56 54 52 51 52 50 46 44 36 34 33 29 31 31 29 30 24 18 11 14 16 14 14 11 25
53 52 50 47 43 39 35 33 38 48 46 41 40 45 47 48 47 46 49 55 53 52 52 51 51 50 48 39 36 33 31 32 32 30 30 31 24 15 13 13 6 20 13 24 13
54 54 55 48 42 40 39 39 41 44 44 41 43 43 44 42 42 40 44 51 48 47 47 46 43 41 39 36 36 34 33 32 32 32 32 31 26 16 17 14 4 5 13 16 3
55 55 53 50 46 44 42 42 42 40 45 43 44 42 42 41 41 38 42 45 44 44 41 41 38 37 34 37 35 37 36 35 34 35 32 28 27 18 15 17 13 13 13 7 7
57 57 56 55 52 48 41 42 42 38 46 46 48 45 42 43 43 43 44 41 42 43 40 41 36 37 38 39 39 37 36 39 39 37 36 27 25 21 15 22 27 17 16 12 10
62 57 52 55 52 48 44 46 44 38 47 48 48 47 48 48 47 44 41 37 37 38 40 41 35 39 41 39 37 37 42 42 40 36 33 27 24 22 20 26 28 22 17 27 19
67 59 58 56 54 52 48 48 45 36 43 50 53 52 48 47 48 44 37 36 38 36 32 35 34 38 39 37 41 44 46 44 41 39 34 26 20 22 24 33 36 34 36 23 13
74 69 68 62 58 55 53 52 46 42 43 49 50 52 45 46 45 41 32 32 34 37 34 37 37 43 45 48 47 37 39 47 46 38 32 28 25 23 29 45 44 48 38 31 21
80 77 75 68 64 59 54 53 50 47 48 48 43 35 33 36 42 39 30 34 36 37 38 40 42 45 50 51 45 41 40 40 42 31 26 23 20 20 33 47 50 45 47 39 23

GFSSW_250_spd_033.txt.gz
Wind_Speed
65 61 60 59 59 58 58 57 57 56 54 52 52 52 55 55 54 54 54 55 54 53 57 58 57 55 55 54 50 42 41 39 35 33 33 31 31 30 28 30 28 31 29 31 30
69 70 67 66 65 63 63 63 62 61 57 58 59 62 62 61 60 61 61 59 60 60 59 62 61 63 59 55 53 46 40 36 34 35 35 35 30 30 29 30 31 29 31 34 34
78 76 75 70 70 70 68 67 67 67 68 67 70 70 69 67 68 65 65 66 66 63 64 64 63 63 61 58 54 47 35 34 33 34 36 35 33 30 30 32 31 32 33 33 32
87 83 79 77 76 74 73 72 71 72 74 74 73 74 71 70 71 69 70 67 66 62 63 61 61 62 58 56 53 45 40 34 32 31 32 32 34 33 31 33 34 35 36 36 35
90 87 86 83 80 79 79 78 77 76 76 77 76 76 73 71 71 68 66 65 64 61 59 61 61 59 56 54 49 46 39 36 35 30 30 32 33 35 35 35 37 38 37 36 37
94 92 89 87 86 85 79 76 75 74 73 71 68 69 68 68 67 66 65 63 63 60 57 59 54 53 55 51 47 41 35 35 38 32 29 30 32 31 33 35 36 36 35 34 34
92 89 86 84 80 78 76 73 71 70 70 68 67 66 62 59 60 61 61 61 61 56 56 56 52 51 49 51 46 40 39 39 40 38 34 31 29 29 31 33 34 34 33 33 33
89 86 84 82 80 78 77 75 73 69 69 70 70 64 62 61 62 59 59 57 58 57 54 52 49 48 49 46 44 40 39 39 39 37 32 27 26 26 28 29 28 28 29 32 33
82 82 81 80 79 76 73 72 71 68 66 62 63 62 59 56 55 56 54 56 54 53 49 48 44 46 46 41 38 34 34 36 36 34 29 24 22 26 24 23 22 24 29 30 30
64 66 67 66 64 63 61 59 60 58 58 57 57 56 54 51 50 50 45 46 46 46 44 43 45 46 41 32 30 31 27 27 25 25 24 21 17 23 19 18 23 27 30 26 26
55 54 53 54 53 49 50 49 47 48 48 47 48 46 46 46 44 42 42 43 42 42 41 40 41 37 25 17 26 22 18 20 24 22 16 14 13 11 10 18 23 25 26 24 22
54 53 52 52 51 48 48 46 47 49 47 48 48 49 49 48 45 45 45 43 43 40 36 36 37 25 18 21 30 22 21 24 31 22 15 14 8 7 12 17 23 22 19 20 17
55 55 54 52 49 46 48 47 49 51 50 50 50 52 52 51 47 49 48 46 43 43 39 43 34 26 26 24 31 26 27 27 28 19 17 14 10 12 11 16 20 22 15 10 8
56 55 52 50 49 47 50 49 49 49 47 50 51 52 51 52 51 48 50 48 47 48 41 39 39 33 33 36 31 33 31 28 30 23 20 15 14 13 12 13 19 17 12 2 10
58 56 54 51 50 48 49 49 46 48 48 50 49 48 49 53 54 54 52 53 55 50 47 46 43 36 34 39 34 31 33 32 33 32 23 15 16 18 12 12 15 18 13 1 5
53 53 52 51 48 48 49 46 47 48 48 48 47 49 47 51 51 53 52 53 60 56 51 46 39 37 38 34 39 40 37 35 36 31 24 19 19 18 15 14 17 18 9 12 9
54 54 53 50 47 49 48 46 47 46 47 48 47 46 46 49 48 51 51 52 55 51 45 41 33 41 43 44 38 39 38 41 40 30 25 21 21 19 16 15 16 17 16 15 11
51 51 50 47 50 50 48 44 43 44 50 48 48 48 45 45 49 51 51 52 50 46 44 44 42 43 44 43 38 41 41 41 33 29 26 23 21 23 19 15 14 14 17 19 12
51 50 47 51 50 49 46 41 41 47 43 40 43 46 44 42 46 49 49 50 49 49 48 41 42 43 41 43 42 42 41 36 33 29 24 25 24 23 20 18 17 11 15 12 12
56 54 53 55 52 49 45 43 49 48 45 40 41 45 46 41 40 45 48 48 47 52 51 45 43 40 38 43 43 45 41 38 35 28 25 27 27 21 20 20 20 16 13 27 20
58 54 53 54 52 50 49 50 49 47 44 41 40 42 46 41 37 40 46 51 51 50 54 52 50 45 46 45 46 48 46 45 35 29 28 29 30 21 18 22 22 20 16 18 19
61 58 55 55 52 53 55 53 50 48 42 42 37 39 42 40 40 39 46 48 46 45 48 52 53 48 47 48 45 41 40 38 34 30 29 31 31 23 16 20 21 24 15 20 23
62 60 58 57 57 58 57 53 51 50 45 42 36 33 40 41 39 39 44 45 42 42 43 45 42 43 41 40 40 38 36 36 33 34 34 30 30 29 21 20 20 23 24 23 25
67 63 60 57 55 57 61 57 52 45 41 43 36 31 38 39 41 44 38 40 39 38 38 38 39 38 38 39 39 38 38 38 35 33 30 28 28 30 26 21 25 30 30 29 22
81 69 67 63 57 57 58 59 57 49 40 40 37 32 37 38 41 43 38 38 39 39 39 37 37 37 40 37 40 42 44 42 36 32 30 30 27 25 27 27 30 34 35 33 24
91 80 73 67 61 59 60 60 57 51 43 41 40 35 40 43 46 45 41 42 41 37 37 37 36 35 37 41 44 45 48 40 34 33 31 34 31 29 30 30 33 38 42 36 27
79 87 78 69 66 61 59 57 57 52 45 44 45 39 44 47 47 47 43 41 40 42 41 40 38 38 37 39 41 43 42 38 39 37 37 38 36 34 34 32 35 41 46 36 27

GFSSW_250_spd_036.txt.gz
Wind_Speed
63 62 57 55 56 52 51 48 48 49 48 47 49 49 48 47 47 45 46 51 54 52 55 57 56 57 56 56 57 53 54 53 53 49 38 32 32 32 35 36 33 32 30 29 32
64 63 61 60 58 58 56 54 53 53 53 53 52 54 54 53 52 53 56 58 57 58 58 60 60 58 57 57 58 55 50 46 51 45 36 33 33 34 34 34 34 33 32 32 33
68 67 64 63 61 60 61 60 59 58 58 59 58 58 59 58 59 61 63 60 61 61 60 63 62 59 57 58 55 46 42 40 39 39 35 34 33 36 35 33 33 34 34 34 34
75 72 70 70 67 67 65 65 65 64 62 63 63 64 64 63 63 64 65 64 64 65 63 64 64 61 58 56 51 43 40 35 36 40 37 35 34 37 35 34 35 38 37 35 34
83 81 78 77 73 73 73 74 73 72 69 67 68 68 68 69 69 68 68 65 62 61 60 62 61 59 57 55 48 40 39 36 36 39 40 37 36 36 36 34 32 34 35 35 34
88 87 85 83 81 80 79 79 78 76 75 73 73 72 73 72 71 68 63 64 62 58 56 55 57 54 55 51 48 43 41 39 35 38 38 38 35 35 33 34 32 31 30 33 34
94 91 91 90 89 86 86 84 84 82 79 78 76 75 73 74 72 67 66 64 59 56 56 57 58 58 53 49 45 41 39 39 37 33 35 35 35 31 30 32 30 29 29 32 31
98 97 97 95 93 90 89 88 85 83 81 78 77 75 69 69 69 68 65 64 61 60 60 57 55 54 53 47 41 38 38 35 38 33 31 31 31 29 30 26 27 28 29 29 29
101 100 98 94 94 92 90 88 87 83 83 80 76 74 70 67 69 67 65 62 60 59 57 56 56 56 51 48 38 37 37 33 33 30 24 25 24 26 24 23 24 27 24 25 25
98 98 98 95 94 92 90 87 85 82 80 79 75 73 74 70 67 63 62 62 58 56 56 54 54 49 46 39 35 33 32 28 24 19 15 16 24 21 20 19 21 21 22 23 22
94 92 93 92 90 87 82 81 82 78 76 72 70 67 66 63 59 57 55 53 53 52 50 48 47 45 34 31 29 22 17 17 16 16 14 11 17 20 17 17 20 20 18 19 16
83 83 83 81 82 78 72 67 70 69 62 56 55 56 56 55 53 50 48 47 46 43 42 44 45 36 28 25 26 17 16 18 18 17 14 16 15 13 17 17 17 20 13 11 7
65 67 67 66 62 58 56 56 56 54 51 52 51 51 50 50 48 47 46 45 46 44 44 45 39 33 24 24 27 16 10 20 22 17 12 15 16 13 14 15 18 20 12 6 10
57 57 57 55 53 53 54 53 52 49 49 48 48 48 48 48 49 48 48 48 49 47 48 43 36 33 31 30 31 24 17 24 25 17 16 15 16 16 12 13 17 21 13 15 16
58 56 55 54 52 52 53 52 49 49 46 48 46 47 51 51 48 49 50 51 51 48 49 43 41 38 36 34 34 28 27 29 25 17 23 26 17 20 14 14 17 22 16 19 20
57 58 55 54 53 54 54 52 50 48 46 46 46 48 47 50 48 49 49 50 49 48 49 47 45 42 38 37 35 37 28 28 27 28 30 28 20 21 16 17 20 22 17 18 20
54 55 55 54 54 56 55 51 49 45 48 48 47 48 48 51 47 46 47 48 48 50 52 49 47 46 44 43 39 39 36 29 29 29 29 27 20 19 20 22 22 24 24 14 19
52 52 53 54 57 59 56 51 47 49 49 48 50 50 50 49 47 44 42 43 45 47 51 49 51 52 51 47 39 39 36 38 32 31 29 28 22 21 21 21 21 24 27 23 17
49 51 54 57 58 56 52 48 49 51 49 49 51 50 48 47 43 41 40 42 44 46 48 48 47 50 51 46 41 40 36 39 37 29 27 27 23 24 24 21 21 25 28 18 11
52 51 53 55 55 52 49 51 53 51 51 51 50 47 44 43 43 43 40 40 42 47 48 47 46 43 46 44 41 41 41 37 34 32 31 29 26 25 24 23 20 27 23 12 15
53 54 53 55 53 50 50 53 52 50 51 50 47 43 43 38 36 39 38 40 40 43 45 45 44 44 44 40 38 38 34 32 33 35 39 39 32 25 25 23 22 25 26 14 14
56 57 55 56 55 54 53 54 52 52 52 48 45 42 40 37 34 36 39 41 42 39 41 45 42 45 43 41 38 36 36 37 35 38 39 36 35 26 24 23 23 25 29 19 13
63 64 62 61 59 58 56 55 55 56 53 48 45 40 40 39 34 33 38 41 39 38 39 44 40 45 46 45 43 43 45 40 38 42 36 33 34 28 28 22 23 25 30 25 17
62 61 64 68 65 62 60 58 56 57 53 49 47 41 40 37 34 33 37 40 39 39 43 43 41 43 43 50 49 49 47 43 44 39 34 32 32 28 30 25 27 26 28 28 23
64 67 70 66 63 63 62 62 60 60 54 51 48 43 42 38 32 35 39 41 38 38 42 41 40 41 43 45 44 43 41 38 38 36 35 34 32 32 30 28 28 29 29 30 31
55 60 65 74 69 67 67 65 64 61 55 52 49 44 42 41 36 37 41 42 40 38 40 41 41 42 42 43 44 42 38 37 36 36 34 32 34 34 32 29 28 32 33 33 37
56 63 70 76 75 76 70 68 65 60 57 56 54 48 45 41 37 40 43 42 43 42 41 41 42 42 42 43 41 36 34 37 37 36 33 35 36 37 33 31 31 34 37 32 37

GFSSW_250_spd_039.txt.gz
Wind_Speed
60 58 59 58 57 54 51 48 47 44 42 42 43 41 38 38 38 40 43 41 41 47 51 52 49 50 51 52 53 53 51 52 52 50 47 45 43 38 37 34 32 33 32 33 35
62 62 61 61 62 57 54 51 51 50 47 47 43 44 44 43 43 43 47 48 47 50 55 54 53 55 55 54 53 52 54 55 52 49 43 44 44 40 36 35 32 32 31 34 36
64 63 63 62 62 62 59 55 54 52 51 49 49 50 48 47 48 47 49 51 52 54 57 58 58 60 58 56 52 51 53 56 53 46 43 43 45 40 38 34 32 31 31 33 36
69 68 66 64 64 62 62 61 59 56 53 53 55 55 52 53 53 53 53 54 56 59 61 60 59 61 60 55 50 51 52 51 49 45 44 41 42 39 37 35 32 30 33 32 35
75 71 71 69 66 66 65 63 63 62 61 60 59 57 59 58 59 58 58 58 62 62 65 64 64 63 61 55 51 53 49 48 48 46 43 41 39 37 40 37 32 29 31 29 28
82 78 76 74 74 70 68 66 66 66 65 66 62 64 64 65 64 63 63 64 64 64 65 64 64 64 59 54 53 51 47 47 47 46 43 39 37 35 36 34 25 24 24 23 19
88 86 84 82 79 78 75 75 74 73 72 72 71 70 69 69 69 67 66 66 65 64 64 67 65 63 59 56 52 49 47 46 43 42 40 36 35 34 34 32 21 22 21 16 14
93 90 88 85 84 83 82 80 80 78 77 77 78 75 75 74 74 73 70 70 69 66 66 65 62 59 56 50 50 49 47 43 39 37 34 33 32 32 31 24 18 16 13 11 6
97 95 94 92 90 88 87 87 86 83 82 83 82 82 79 80 79 76 76 75 72 70 68 64 61 59 56 52 48 48 43 36 35 31 28 27 25 23 23 20 13 8 7 3 13
102 100 97 96 93 92 92 91 91 89 87 86 86 86 84 82 81 79 78 73 71 70 66 65 61 57 52 47 44 43 37 31 27 24 18 19 18 20 19 13 10 5 1 16 33
96 100 102 100 97 94 94 94 95 93 92 90 89 88 86 82 81 78 76 73 69 64 62 58 55 50 44 41 38 34 29 23 17 16 13 16 20 21 18 12 8 7 8 18 15
97 96 95 97 96 95 94 94 95 95 93 93 91 89 85 80 78 77 71 68 61 56 55 55 50 41 36 35 32 26 21 17 13 17 16 12 14 21 18 13 11 10 11 12 19
85 93 96 96 95 94 93 93 91 89 87 85 85 82 80 76 70 67 65 58 51 49 48 47 39 36 32 32 29 20 19 18 16 20 16 10 16 21 16 14 16 16 12 9 15
70 73 76 80 81 83 84 85 85 80 78 77 76 74 67 63 56 52 51 48 48 46 44 41 36 34 35 36 31 22 21 23 23 17 16 14 19 21 19 15 19 20 16 12 14
61 61 61 62 63 64 65 63 59 58 58 59 54 52 53 52 48 46 44 46 44 44 43 39 39 38 39 38 35 30 28 27 28 22 14 16 20 22 23 20 21 24 23 20 16
58 57 57 58 56 55 54 54 54 53 50 48 47 47 46 45 41 43 42 43 41 44 44 42 43 42 41 40 40 35 29 29 28 27 21 23 26 24 26 22 24 26 23 23 17
55 53 57 56 55 55 54 52 50 47 50 48 47 46 45 44 40 40 41 42 40 44 45 43 45 44 43 43 42 35 30 29 31 32 28 26 26 26 26 23 28 26 23 24 17
50 49 50 53 56 54 54 52 48 49 49 48 49 48 47 44 40 39 41 42 43 44 44 42 42 43 43 45 42 36 33 33 36 35 33 28 25 27 24 24 31 27 23 25 20
49 48 52 52 54 53 52 49 50 51 52 51 51 49 45 43 41 41 42 42 41 41 43 43 44 45 46 46 41 39 39 41 36 35 33 29 26 25 22 24 30 28 25 24 19
47 50 49 52 51 50 49 51 53 53 55 54 51 48 44 42 41 41 42 43 41 40 41 40 42 43 43 43 40 44 46 42 39 37 33 28 32 26 21 22 28 29 25 22 10
49 48 51 52 51 49 50 52 54 53 56 54 50 46 44 42 42 41 41 42 41 42 42 43 43 44 44 41 39 38 41 39 34 30 32 32 32 26 22 28 29 29 26 20 9
49 48 46 47 47 49 49 52 54 56 56 54 50 47 44 41 41 41 40 40 39 40 40 41 39 41 40 39 37 37 35 30 32 32 32 32 30 25 27 29 29 30 27 23 12
49 49 50 49 48 49 50 50 52 52 51 49 47 48 46 42 42 40 39 36 36 38 39 41 37 39 36 35 36 32 32 33 32 35 36 37 34 32 28 28 30 30 27 25 16
52 52 52 51 51 50 51 52 53 54 53 53 52 48 44 45 43 40 40 39 39 39 39 39 37 37 38 38 38 33 36 38 39 40 40 39 33 32 31 31 29 31 29 27 22
54 55 55 52 54 54 55 56 57 57 54 52 50 48 47 48 44 43 43 41 42 39 36 38 35 38 40 41 42 44 44 44 44 45 43 39 37 34 33 30 28 32 29 27 26
39 48 55 57 57 58 59 62 63 61 57 56 53 51 49 50 47 46 44 41 41 39 37 39 37 40 42 43 41 44 48 48 48 46 43 39 35 33 34 34 33 33 31 30 30
43 43 44 46 52 60 65 64 64 63 64 61 59 55 53 52 50 50 47 45 42 39 39 41 40 41 44 44 42 42 43 44 46 45 38 33 33 36 37 37 36 35 34 33 34

GFSSW_250_spd_042.txt.gz
Wind_Speed
58 55 52 51 50 51 51 50 48 46 45 44 42 40 35 33 33 32 31 33 35 37 39 41 42 42 47 48 49 51 53 54 51 52 50 47 44 42 35 34 32 33 32 32 30
59 57 54 54 53 51 53 53 52 51 49 47 44 42 38 37 38 36 35 36 38 39 41 44 44 45 50 52 52 53 54 54 51 52 49 46 44 42 38 35 31 32 33 31 28
58 56 56 55 55 54 54 56 55 54 51 49 47 45 43 42 40 42 42 42 42 43 46 47 48 49 51 54 55 58 59 56 54 54 49 46 46 43 37 35 33 32 32 31 26
62 60 59 58 58 57 58 57 57 56 56 52 50 48 46 44 45 45 45 47 49 48 49 50 52 53 54 55 57 60 61 58 55 53 50 49 48 43 38 33 31 30 30 27 24
69 65 64 64 62 62 61 60 61 60 57 56 55 54 51 51 48 49 49 52 52 53 54 54 55 56 58 58 59 60 59 60 56 50 49 50 47 43 36 33 27 27 25 20 23
76 73 71 70 66 66 65 65 63 63 59 59 58 58 57 54 55 55 55 55 57 58 60 60 61 61 61 61 62 61 59 58 55 53 52 50 46 42 35 28 23 22 18 16 19
80 78 76 75 72 71 69 67 66 66 62 61 59 59 58 58 59 59 60 60 61 64 63 64 66 67 65 60 60 59 57 54 54 51 51 50 44 38 33 26 18 16 10 9 6
85 83 82 80 79 77 76 73 72 71 70 69 67 64 63 65 64 64 64 65 66 68 68 68 69 69 63 60 62 58 56 55 53 51 50 47 38 33 28 21 11 7 2 2 14
90 89 88 87 84 82 82 79 78 76 75 74 72 70 69 70 70 68 68 68 69 70 72 71 71 68 64 58 57 56 54 51 51 48 44 37 29 26 22 13 7 6 9 12 23
94 94 92 91 90 88 87 85 84 82 81 80 77 76 75 74 73 73 74 72 72 72 74 75 70 63 60 52 52 53 50 47 45 40 33 28 21 21 18 8 7 10 12 18 25
100 98 97 96 94 94 93 90 89 87 86 83 82 81 80 80 79 79 77 78 78 78 77 72 68 62 54 49 48 45 43 39 37 29 23 21 18 18 16 17 13 16 16 19 28
96 94 91 89 91 92 94 95 94 93 90 90 88 86 85 83 83 83 82 81 77 75 69 66 62 53 44 44 41 40 37 33 28 22 20 19 17 15 10 12 14 17 23 24 30
97 97 96 94 93 92 89 88 90 92 94 93 92 90 88 86 86 83 77 73 71 68 67 63 47 40 38 38 35 36 34 28 22 22 22 19 21 18 13 9 16 20 22 19 23
86 90 93 93 95 95 93 91 90 89 88 88 89 89 87 84 80 78 77 74 71 67 58 48 40 36 36 36 35 33 31 21 20 22 23 20 24 22 17 19 19 24 22 18 15
71 73 78 82 85 87 91 91 91 92 90 86 85 84 84 82 80 77 72 65 60 51 45 39 37 35 36 34 35 34 31 26 25 26 30 21 24 20 18 19 18 26 25 21 15
67 66 66 67 67 69 72 73 76 82 83 83 78 75 70 68 63 59 55 51 45 43 40 38 38 38 37 37 38 36 35 30 32 34 33 27 30 24 23 24 18 26 26 23 20
67 64 61 60 60 59 59 57 60 59 59 59 58 56 53 51 49 47 45 43 39 39 39 38 39 37 37 39 39 37 36 36 37 35 33 31 31 34 32 31 22 24 26 23 21
66 66 65 63 62 58 54 55 51 51 53 49 49 48 48 48 46 44 41 40 38 41 40 40 41 39 39 40 37 36 36 38 38 35 34 35 35 33 32 28 22 21 25 24 21
62 62 62 61 60 57 55 53 50 52 51 50 51 51 49 47 45 42 42 41 40 42 41 41 41 41 40 40 39 36 38 38 38 38 39 35 34 32 32 27 21 18 23 25 22
58 57 56 56 55 52 49 48 52 54 55 54 52 50 49 46 44 43 42 43 43 44 44 41 43 42 40 40 40 39 38 39 39 38 40 37 36 38 30 28 23 20 20 24 24
50 51 51 48 47 46 46 51 55 54 53 53 51 52 49 47 46 45 43 45 45 45 42 43 41 39 38 38 38 37 37 40 42 40 43 41 41 38 32 26 25 22 21 23 22
45 46 50 49 45 47 49 51 54 51 55 54 52 51 50 50 49 48 45 46 44 43 41 42 40 37 39 37 39 39 39 37 40 40 39 40 42 38 30 26 25 21 21 22 22
47 44 49 53 48 45 49 51 53 54 52 52 52 51 49 51 51 48 47 45 45 42 40 40 38 37 36 34 34 37 38 38 38 36 36 38 42 35 30 26 24 24 23 23 24
47 46 42 45 50 45 48 53 53 50 53 53 52 51 51 54 53 49 48 47 44 42 40 39 34 35 37 37 33 36 37 37 35 36 36 39 40 36 33 31 27 25 25 26 27
46 48 49 45 44 50 47 47 49 51 52 52 51 50 52 52 49 50 51 49 46 45 42 39 34 36 41 38 36 35 36 40 38 37 37 38 43 39 37 34 30 27 29 29 27
51 50 48 48 50 48 49 51 51 47 50 50 51 51 48 49 50 50 49 48 46 46 44 40 39 39 39 39 36 35 40 41 44 41 44 45 44 41 38 36 32 29 30 31 28
46 47 50 51 52 52 52 53 52 51 51 50 52 53 53 54 51 52 51 48 48 48 47 43 39 40 38 39 38 35 41 47 46 48 49 48 43 42 36 34 34 33 31 32 29

GFSSW_250_spd_048.txt.gz
Wind_Speed
56 55 53 52 50 49 46 43 42 41 40 40 39 37 36 36 37 36 35 33 32 30 27 28 30 34 33 33 38 43 48 49 51 49 55 59 60 61 49 48 40 37 52 44 37
58 56 55 53 49 49 48 45 44 43 41 42 40 40 39 39 38 39 39 38 35 35 33 32 33 35 37 36 37 42 48 50 52 56 59 58 60 40 44 39 43 48 51 44 34
60 58 56 54 51 52 51 49 47 46 44 44 42 40 40 40 40 38 40 39 36 36 36 36 35 38 40 41 43 40 47 49 52 56 58 61 68 52 36 38 45 46 48 40 31
64 61 59 58 55 54 52 50 49 48 46 45 45 42 43 43 41 41 44 43 40 39 40 39 40 42 44 45 46 49 47 51 55 59 61 63 54 52 44 44 41 44 42 34 27
67 64 62 59 59 58 57 55 52 51 48 47 45 45 44 43 43 45 47 43 42 43 43 41 42 44 47 48 49 53 54 57 59 61 63 64 54 53 51 45 48 46 39 25 17
71 69 66 62 60 59 59 59 56 55 52 51 50 49 46 44 44 46 47 46 44 45 45 43 42 46 48 52 52 53 57 61 63 65 65 62 54 50 51 48 43 41 31 19 4
76 71 68 65 62 61 58 56 56 55 53 53 51 49 49 48 47 49 48 47 48 48 46 46 46 46 50 54 55 55 58 59 66 71 71 63 49 45 38 24 44 38 27 9 7
80 80 74 70 66 64 64 64 61 58 57 56 55 54 54 52 52 51 51 51 51 51 50 51 51 52 55 58 58 58 61 64 55 67 70 58 44 42 37 18 38 29 20 6 16
85 80 78 77 75 72 68 67 66 64 62 61 60 58 58 57 54 54 54 55 54 53 52 53 56 56 58 58 60 61 62 65 50 62 60 53 47 38 44 40 32 20 17 10 15
91 89 84 82 79 77 76 76 71 69 68 66 64 63 62 61 59 58 59 59 58 58 59 58 58 58 60 62 63 65 66 58 45 59 53 51 52 50 47 43 30 14 14 18 21
95 94 91 87 84 83 82 79 75 73 74 73 71 66 65 64 63 63 62 62 65 64 65 63 64 64 64 65 66 62 63 48 48 69 54 44 46 43 40 35 27 14 19 25 26
99 97 96 94 91 89 87 84 85 81 80 77 75 72 71 70 69 67 66 67 68 70 69 68 68 66 64 64 67 63 57 51 54 56 44 45 44 39 34 30 28 10 15 34 25
104 101 99 97 96 94 93 91 89 86 85 83 81 78 75 74 73 72 73 71 72 72 72 70 67 64 63 59 60 62 57 52 42 39 45 42 38 37 31 28 26 15 12 35 30
104 104 104 101 99 98 94 95 93 91 88 88 84 83 82 82 79 77 78 77 76 73 71 69 68 62 62 62 62 60 55 45 39 40 41 37 36 27 28 28 31 25 20 18 33
105 102 99 99 98 95 95 94 93 93 88 91 86 83 86 83 83 81 80 78 75 73 72 71 69 68 67 62 62 61 53 46 39 38 35 35 32 29 19 16 40 31 33 25 27
97 99 100 98 98 96 96 93 91 91 86 89 84 86 84 81 79 79 77 74 73 73 74 76 72 70 68 64 57 54 44 38 34 33 33 35 30 39 20 21 42 38 40 33 32
84 86 89 92 91 91 94 96 94 90 91 92 87 91 87 85 83 80 79 77 76 76 74 74 65 64 54 48 44 39 37 35 33 33 34 34 32 43 29 34 37 32 35 31 33
77 77 77 79 82 85 86 86 86 85 87 89 85 81 86 86 83 80 79 74 71 67 65 60 51 48 50 45 41 37 36 33 34 33 36 27 28 39 33 36 37 35 33 32 32
78 75 74 72 71 69 71 71 67 72 75 74 73 68 66 63 64 66 61 57 57 54 52 49 45 49 43 42 38 37 33 37 35 33 36 36 37 39 41 39 38 37 38 37 31
76 76 76 77 73 71 66 60 60 63 63 56 47 56 55 55 57 57 52 50 50 49 46 45 41 44 37 41 38 37 34 36 35 35 33 37 43 35 30 36 46 38 40 34 31
74 72 72 72 72 67 64 65 65 65 57 54 56 59 54 52 49 47 44 46 46 46 43 45 38 43 38 38 39 37 34 37 37 36 31 27 26 22 5 7 31 40 38 35 30
67 66 65 63 62 64 63 64 65 64 57 61 60 57 54 54 48 44 46 46 47 46 42 41 41 43 38 37 40 38 37 37 37 38 32 37 40 35 30 41 49 55 45 36 32
60 64 70 65 61 61 62 61 60 57 54 61 56 55 55 53 45 46 50 47 41 44 45 43 41 42 37 40 40 38 38 38 38 37 33 29 36 39 35 35 47 41 38 38 29
51 51 57 59 67 66 67 64 61 62 59 58 57 55 53 50 43 48 54 44 42 52 46 46 44 43 43 42 40 41 38 36 35 33 35 39 37 35 12 17 32 38 39 32 28
48 46 46 47 49 53 58 61 64 65 59 56 54 52 50 53 52 50 52 46 50 56 47 47 44 45 45 44 38 38 36 33 34 33 33 37 28 31 16 22 29 32 40 41 28
46 46 46 42 43 45 45 46 51 51 52 52 49 48 46 49 47 50 51 49 45 53 46 48 48 49 45 43 40 36 28 6 17 35 32 35 29 26 26 32 31 32 30 38 37
47 43 44 45 46 48 49 47 46 45 42 45 51 51 49 51 45 47 43 44 45 46 47 48 48 49 46 47 43 32 30 32 34 34 33 33 27 32 33 37 42 37 39 36 36

GFSSW_250_spd_051.txt.gz
Wind_Speed
58 56 55 52 48 45 44 41 40 40 38 38 37 36 35 34 34 32 31 31 30 31 32 34 31 33 31 35 39 41 43 44 44 47 49 51 56 60 65 65 63 56 55 50 37
59 58 58 56 53 51 48 46 43 41 40 39 37 36 35 34 35 34 35 33 32 32 32 35 33 33 34 35 42 44 47 48 47 45 47 50 55 63 68 63 54 54 54 45 34
58 58 58 55 54 52 51 52 48 45 43 40 39 38 36 35 35 33 34 35 35 37 35 36 38 37 35 34 39 43 46 48 51 50 48 51 55 59 65 64 49 52 50 38 28
62 60 60 57 56 55 55 53 50 50 47 44 43 41 39 38 38 36 36 36 36 38 38 36 38 40 37 36 36 42 47 49 50 56 51 55 59 62 61 68 43 45 43 25 20
67 64 63 60 58 55 55 53 51 49 48 46 45 43 41 40 40 39 39 39 37 38 38 36 36 40 42 41 41 43 46 51 54 56 61 58 63 62 61 46 49 41 45 21 17
70 69 67 64 60 59 58 57 55 53 51 49 47 45 42 41 41 41 42 40 40 38 36 38 39 42 44 45 47 50 52 55 58 61 62 64 66 67 57 51 51 49 40 14 8
73 70 67 66 64 64 61 61 58 56 53 51 50 49 47 47 44 43 44 43 44 43 38 39 42 44 45 47 49 51 52 57 59 63 65 62 62 67 57 56 55 48 28 5 7
77 76 72 68 67 66 64 66 62 57 56 53 50 48 45 47 45 45 46 46 47 46 44 42 42 45 48 51 52 52 53 60 63 64 66 65 63 57 45 50 53 39 22 10 16
83 80 76 74 71 71 67 66 63 61 57 54 51 51 48 49 50 49 49 50 50 47 46 46 45 49 53 56 55 55 57 64 63 66 69 64 63 56 48 46 39 23 16 9 21
88 86 82 79 75 74 71 69 65 61 59 56 57 54 55 55 54 54 54 54 51 50 50 48 48 51 55 61 61 60 59 61 59 61 62 64 58 55 46 50 32 20 18 14 24
93 91 87 85 83 79 75 73 69 67 68 65 63 63 61 59 60 59 58 57 55 54 52 51 51 54 57 62 63 62 56 58 60 62 60 61 63 51 44 46 29 12 19 23 34
99 96 93 90 88 85 83 78 78 76 74 71 67 66 65 64 64 63 61 61 60 59 56 55 57 57 59 63 63 65 54 55 61 58 61 62 63 55 36 43 32 7 12 25 35
104 102 99 96 94 92 90 84 84 79 78 75 74 73 70 69 69 68 66 65 65 63 62 60 63 61 62 62 65 64 62 59 57 60 58 60 49 41 42 31 16 9 16 16 25
105 107 105 101 99 97 93 91 89 86 82 84 80 78 75 74 75 73 72 70 70 69 67 67 68 65 64 63 63 64 66 65 61 53 47 48 42 34 31 15 15 10 19 19 22
103 104 108 107 106 101 100 99 95 91 85 92 84 81 83 80 82 78 77 76 75 73 70 69 70 66 62 63 63 66 66 63 57 48 40 41 40 23 27 9 17 11 10 25 34
102 101 101 103 108 105 105 102 99 95 89 94 90 87 88 84 84 82 79 77 75 73 72 71 71 66 65 64 63 64 63 53 46 38 39 41 28 23 25 15 26 27 34 29 33
97 100 101 100 100 103 108 105 100 92 95 96 92 89 91 88 87 82 79 78 77 75 74 75 74 70 69 67 63 60 51 45 42 40 38 32 35 28 28 23 19 30 35 35 37
85 89 92 94 93 96 98 100 99 96 96 97 93 86 88 87 85 84 81 81 79 79 80 77 73 70 70 66 62 49 43 39 41 39 30 33 37 32 28 16 16 25 22 27 31
76 78 79 81 85 86 86 85 85 88 88 98 95 92 89 88 84 84 82 81 80 76 72 73 66 64 64 52 46 40 37 43 36 33 30 31 30 28 28 32 28 38 26 27 20
78 76 73 74 74 75 76 72 70 73 80 86 82 82 80 83 86 83 79 72 68 64 61 58 56 54 47 43 42 38 41 38 32 32 35 25 25 27 22 24 19 19 33 34 24
81 78 76 76 73 71 66 65 66 69 74 68 63 65 60 60 62 65 59 56 52 52 50 49 46 46 45 36 39 39 36 32 32 31 34 26 25 30 11 4 18 23 20 41 43
82 79 77 73 72 70 68 69 67 70 70 63 57 54 55 60 60 50 44 43 49 49 47 46 42 43 40 36 39 34 31 31 31 33 33 31 22 25 8 21 25 16 18 24 35
72 75 77 77 73 70 71 69 69 69 68 63 59 56 59 56 51 46 48 50 46 45 44 43 37 40 38 34 32 33 36 35 32 34 35 27 20 18 15 22 26 29 28 14 23
55 61 69 71 74 72 66 66 65 66 63 56 53 62 61 56 53 51 53 50 47 45 42 41 40 41 38 36 37 41 35 29 31 34 34 28 20 18 29 36 33 36 38 33 22
48 53 53 59 62 65 68 64 61 61 61 59 58 59 55 54 50 47 53 51 47 46 43 43 41 39 41 40 37 38 35 32 33 32 31 28 23 19 25 35 33 34 35 33 29
27 34 45 50 52 55 59 64 63 58 60 57 56 58 56 53 52 50 57 56 45 38 39 42 37 39 41 43 39 38 38 37 35 31 27 20 19 18 19 29 34 42 42 39 46
42 39 36 40 41 43 47 49 56 66 70 67 64 59 60 58 53 49 52 51 44 36 44 42 44 45 43 46 40 35 39 37 33 30 29 22 26 23 28 33 42 44 45 45 46

GFSSW_250_spd_054.txt.gz
Wind_Speed
54 53 53 50 47 46 46 46 44 42 40 39 36 34 33 33 31 29 31 30 30 32 32 32 33 35 34 36 39 39 38 40 40 47 51 54 55 57 61 61 63 51 45 35 31
58 55 54 55 52 49 47 46 44 41 39 37 36 35 34 35 35 31 31 30 31 31 33 35 35 38 39 38 38 38 37 36 42 45 48 51 54 57 58 57 63 52 40 24 19
60 58 57 55 55 53 52 48 46 42 40 39 37 36 35 36 35 33 31 29 30 31 33 35 37 35 38 38 40 40 40 41 42 48 49 51 55 54 55 58 61 50 32 14 18
62 62 61 58 55 54 54 51 50 48 45 43 42 40 39 38 37 34 34 34 33 32 33 35 36 35 35 40 41 43 45 45 45 47 48 50 55 53 56 58 62 48 25 5 15
62 62 61 59 58 57 56 55 54 53 50 47 46 44 44 43 41 38 37 34 32 33 33 36 39 36 34 37 37 40 43 44 44 46 47 49 53 57 56 58 56 49 18 6 12
66 64 63 60 60 59 57 57 55 54 52 50 48 47 45 44 42 40 40 35 36 36 37 38 42 40 40 39 38 36 40 47 49 47 49 49 55 62 57 57 56 45 29 17 6
69 65 66 64 63 63 61 59 58 56 53 51 49 48 46 46 43 41 42 41 38 38 39 41 43 44 44 42 41 39 42 46 52 58 54 53 52 57 58 54 55 41 36 26 18
75 73 68 67 67 66 64 63 62 60 56 55 54 52 48 49 47 46 44 39 38 40 40 42 44 45 45 45 42 42 46 48 51 58 59 59 55 52 56 55 54 31 23 37 25
82 78 76 71 69 65 66 65 63 61 60 57 56 55 53 51 49 48 43 44 42 44 44 46 46 47 48 46 45 43 48 51 52 56 59 59 59 58 60 54 45 29 24 30 34
89 85 82 79 78 73 70 69 64 61 59 57 56 53 55 53 51 47 50 46 47 48 49 49 48 50 50 50 47 48 47 54 53 57 57 57 58 57 59 47 22 26 39 26 35
95 92 88 85 82 81 76 72 70 64 64 58 56 55 55 53 54 53 53 52 51 52 52 50 52 53 54 55 50 52 53 57 55 55 55 55 57 60 58 42 22 19 25 25 28
101 99 95 90 88 85 81 77 76 69 67 64 61 62 59 59 57 57 56 56 56 56 54 53 56 56 56 59 55 57 56 58 57 56 57 58 64 60 49 37 28 23 20 19 23
104 103 102 98 95 92 89 82 81 75 73 71 68 67 68 64 65 64 62 59 59 59 58 57 59 57 58 61 61 59 57 53 55 55 54 62 66 64 34 26 29 25 17 17 11
104 102 102 103 99 97 93 89 87 83 79 80 75 77 74 71 69 67 66 65 64 64 61 63 62 61 62 62 62 59 59 56 55 57 58 63 65 56 34 24 29 26 27 21 10
108 106 103 102 105 100 96 96 93 89 82 88 83 80 79 76 80 73 71 69 69 68 64 68 65 64 63 64 62 60 64 62 61 58 61 61 46 39 34 32 27 30 24 24 21
107 107 106 103 102 100 100 100 98 92 85 91 90 86 86 84 83 81 76 76 74 72 70 72 71 66 65 65 64 66 67 62 62 62 60 54 37 32 31 27 17 28 24 24 29
107 105 105 108 105 101 101 97 93 89 94 98 98 96 91 89 88 84 83 80 80 76 76 75 74 69 66 68 69 68 67 64 57 57 62 40 32 32 22 19 17 18 17 21 19
101 106 102 105 103 105 103 99 92 89 90 98 98 94 91 93 91 88 85 83 83 79 78 74 73 72 74 71 70 68 66 55 53 59 49 34 30 20 17 17 10 10 37 38 36
94 96 98 100 99 100 99 97 93 91 96 99 91 88 88 90 90 90 86 87 85 81 80 77 76 75 72 71 68 64 49 54 52 50 37 31 24 14 16 17 5 9 27 36 42
86 88 89 90 91 92 93 88 87 89 92 94 90 90 85 83 84 83 82 77 81 79 78 81 78 75 70 66 58 47 50 50 47 43 32 30 21 14 11 18 18 21 33 32 29
75 85 84 81 78 75 72 71 72 80 85 85 82 81 78 78 78 77 71 72 75 81 79 75 69 65 59 47 44 44 46 48 46 37 32 30 21 16 20 24 25 24 31 27 21
68 77 80 77 74 69 66 66 66 72 72 71 67 68 65 63 59 63 67 68 65 62 55 52 49 46 43 41 40 42 43 43 42 34 31 29 20 21 25 26 25 27 28 29 32
60 69 76 75 75 73 71 66 62 66 67 63 57 58 55 54 55 56 55 54 51 48 49 44 40 37 43 38 36 41 44 39 35 31 26 25 23 26 26 28 27 23 28 27 15
53 64 68 75 72 71 71 70 68 70 70 62 56 55 54 54 54 54 54 54 48 44 45 43 39 35 42 44 38 35 40 41 33 27 25 27 25 28 31 28 27 27 27 30 33
41 50 62 68 71 72 67 69 69 71 69 64 59 55 59 58 58 56 58 56 48 47 47 45 41 38 40 43 36 35 40 41 28 26 30 32 27 29 30 29 28 29 32 36 32
37 45 50 57 63 68 71 73 70 67 63 60 60 56 59 64 57 54 57 56 48 47 46 40 42 38 39 44 38 35 39 40 31 34 35 32 24 24 27 24 23 25 29 37 39
31 37 42 48 54 59 62 66 69 72 72 68 61 59 61 61 56 55 56 56 45 43 42 40 42 42 39 40 37 35 38 40 38 34 34 31 31 20 22 23 23 25 33 37 39

GFSSW_250_spd_057.txt.gz
Wind_Speed
52 54 53 50 49 49 48 45 42 42 38 37 35 36 35 34 32 32 30 31 32 31 29 29 31 32 33 35 36 36 36 39 40 42 43 46 47 51 53 55 54 53 33 4 13
56 53 55 54 51 50 48 49 47 46 44 41 41 40 38 37 35 33 32 32 32 31 29 28 32 33 34 35 36 37 38 38 39 39 40 44 47 49 52 54 52 51 40 8 3
61 56 55 54 52 53 52 49 47 47 47 45 43 42 38 36 33 30 32 33 34 32 31 32 33 35 37 35 35 36 35 36 37 36 39 43 46 50 52 54 52 52 43 14 8
64 64 61 58 56 54 54 54 51 48 45 43 43 40 39 38 36 34 34 35 36 35 34 34 34 35 39 38 36 37 37 34 35 34 38 44 47 49 53 54 55 54 43 20 16
67 66 65 64 60 59 58 56 55 53 51 47 45 44 43 41 40 39 39 39 40 38 35 34 36 35 41 41 39 40 39 39 38 35 40 41 47 47 51 50 55 52 45 32 10
64 66 67 66 65 63 60 59 55 54 52 51 49 48 47 45 42 43 42 41 40 40 37 38 39 37 41 44 42 42 43 39 39 38 38 42 44 46 49 50 57 57 53 29 35
68 66 64 66 65 63 62 61 58 56 56 54 54 52 49 50 46 46 46 42 41 39 39 39 39 40 42 42 41 41 43 42 39 38 39 42 41 45 48 48 56 57 58 36 28
75 73 70 67 64 63 63 62 59 62 57 56 55 54 49 52 49 47 47 45 43 40 40 41 41 44 46 45 42 43 43 44 40 40 40 43 45 44 44 44 58 58 57 44 28
83 78 77 73 70 67 64 64 62 61 61 58 58 54 53 54 54 51 48 48 47 45 43 44 43 46 49 48 46 46 46 46 47 47 44 46 48 49 44 46 59 57 49 34 31
89 86 83 81 77 74 69 65 60 61 63 59 59 56 55 56 56 53 49 51 49 47 45 45 46 48 51 50 47 45 47 50 52 51 50 50 52 51 53 50 56 53 43 33 36
96 93 90 85 84 82 76 73 67 62 59 59 60 61 59 59 57 53 54 52 49 47 47 48 48 49 51 52 50 46 46 50 51 52 52 51 53 55 51 55 59 55 39 31 34
102 99 96 92 91 89 84 78 73 67 67 67 63 62 60 58 58 55 52 53 52 52 49 51 54 51 52 54 52 49 47 53 53 51 52 53 51 54 52 54 56 47 37 31 32
106 104 103 101 98 95 90 84 80 77 75 74 70 68 68 62 64 62 58 57 56 56 56 57 57 54 54 56 55 53 51 57 54 52 56 56 52 50 53 52 47 50 39 30 33
110 109 109 107 105 101 94 91 88 85 81 79 76 73 73 66 66 69 63 61 61 63 60 64 60 59 57 59 59 57 57 57 58 53 56 59 52 49 50 53 41 53 39 30 24
115 112 108 108 106 104 100 97 96 93 84 85 85 80 80 72 78 73 69 67 68 67 62 69 65 62 60 63 62 62 62 60 57 56 57 59 55 50 53 38 34 34 16 18 18
116 116 114 111 108 104 102 102 98 96 88 91 94 88 85 83 81 80 74 72 73 71 69 72 71 66 67 67 67 67 66 61 57 56 59 61 54 48 44 29 30 16 13 23 39
110 114 118 117 112 107 105 103 100 93 92 96 96 94 88 88 86 85 81 78 77 76 76 76 75 72 70 69 70 67 65 64 59 60 60 61 47 48 38 24 19 7 17 35 28
103 107 113 115 114 111 112 107 100 95 98 97 94 93 93 93 91 89 85 82 81 81 81 78 78 76 73 72 71 65 66 68 66 63 59 53 46 42 36 26 16 25 35 21 16
92 97 103 109 108 112 113 107 99 98 100 99 99 95 92 90 90 85 80 79 83 79 76 75 74 77 74 74 73 72 68 69 63 58 54 51 43 40 30 28 27 39 31 27 24
82 90 91 93 98 103 108 105 102 101 100 100 99 97 92 88 86 85 84 84 83 78 75 72 68 67 66 66 64 61 60 56 54 51 49 46 39 40 30 33 33 38 34 28 25
68 77 83 80 85 89 91 91 93 99 100 102 98 95 93 89 87 87 87 84 80 77 74 72 68 65 62 59 57 52 49 47 45 43 45 43 41 39 32 36 32 31 33 27 25
57 63 66 71 71 79 82 83 86 95 98 96 94 90 88 84 83 82 84 80 77 72 71 66 62 59 53 51 44 44 43 40 42 46 47 44 40 32 30 32 29 29 29 34 28
48 51 56 63 70 75 80 80 77 82 80 77 80 78 77 74 72 69 70 68 67 63 60 54 47 45 45 43 40 44 41 41 40 43 43 41 36 32 32 34 27 30 30 28 35
41 41 46 56 64 70 74 76 72 72 69 66 65 63 63 59 54 54 55 60 56 51 45 41 39 39 42 44 43 42 42 42 42 42 40 35 30 30 34 33 30 29 30 31 34
33 35 41 51 59 64 68 71 71 68 65 62 55 52 53 51 49 51 52 54 48 45 43 44 43 41 42 46 44 41 39 43 43 41 40 34 31 31 34 32 26 29 29 34 36
29 34 39 44 54 60 65 67 66 68 66 62 57 55 55 53 51 51 55 54 48 44 44 45 45 43 47 51 49 45 43 42 42 42 36 34 33 30 31 31 29 29 30 32 33
29 31 35 38 47 56 63 64 66 67 66 63 62 60 59 59 59 57 58 58 54 50 49 47 48 50 51 51 53 50 46 44 44 42 35 34 34 32 32 31 26 26 28 31 31

GFSSW_250_spd_060.txt.gz
Wind_Speed
53 52 51 48 47 47 45 43 41 39 37 36 35 33 33 32 31 33 33 32 30 28 29 30 31 31 31 30 30 32 35 35 37 39 40 40 42 42 45 47 47 47 43 43 25
59 56 54 53 51 50 49 47 46 45 43 41 39 38 37 36 35 38 38 35 31 27 27 28 31 33 33 32 32 32 35 36 37 37 39 39 39 41 42 44 43 49 47 38 30
62 61 57 56 54 52 51 50 50 50 50 49 46 45 43 42 42 39 39 32 29 28 27 29 31 35 35 33 34 34 35 36 36 37 37 36 38 39 41 43 44 45 47 42 29
63 63 63 58 57 56 56 54 52 50 48 48 48 48 46 45 45 40 36 34 32 32 32 32 33 33 34 33 35 34 35 36 36 37 36 33 39 41 42 45 46 46 51 53 28
65 66 67 65 62 58 55 56 56 55 52 50 50 49 47 45 44 42 38 37 36 37 37 37 36 34 34 36 38 37 37 36 36 36 36 35 40 42 44 45 48 50 52 55 52
64 66 67 68 68 64 60 56 55 54 54 54 54 53 53 51 47 46 43 41 41 42 41 39 36 33 34 35 39 40 38 38 39 38 38 37 38 41 46 48 50 54 56 57 55
68 66 65 67 70 68 66 62 60 59 57 56 55 55 54 57 53 51 50 48 46 45 45 41 39 35 36 35 39 42 39 38 38 39 39 40 39 39 48 49 52 55 59 60 59
76 72 69 68 67 67 68 67 64 62 61 59 59 57 54 57 54 52 54 51 50 46 45 41 42 39 37 38 38 40 40 41 38 41 41 40 39 38 46 48 51 54 56 61 60
82 80 76 74 71 71 68 65 65 63 61 61 60 59 58 58 58 55 52 49 49 46 43 42 43 42 41 39 40 39 39 40 38 39 40 42 42 41 42 48 51 55 58 63 54
89 87 84 81 78 76 72 68 63 61 62 61 62 62 59 60 60 56 52 52 51 48 44 46 46 46 43 43 43 41 39 42 40 39 39 41 41 42 44 46 50 53 56 53 43
97 94 91 88 85 83 80 75 69 64 62 61 60 61 60 59 60 60 56 52 52 49 47 45 46 47 46 48 47 44 42 44 42 41 42 43 42 43 46 48 50 53 59 41 25
104 101 99 94 92 90 86 82 78 73 70 66 64 61 60 57 60 60 58 55 54 52 48 47 50 46 48 50 50 48 46 48 47 45 44 46 46 46 44 46 53 51 44 21 26
107 106 104 102 100 97 92 87 84 81 78 75 70 68 67 63 62 59 57 56 54 53 50 51 52 49 50 52 53 52 49 52 52 48 48 46 50 46 45 50 47 44 42 12 28
113 111 108 109 105 105 100 94 92 90 87 79 76 75 73 71 63 71 64 63 59 60 55 56 55 55 54 56 56 55 54 55 55 52 54 52 52 48 48 46 45 39 40 13 10
119 116 114 111 110 111 107 103 102 97 92 85 84 81 80 77 73 76 70 66 65 64 58 66 60 58 58 62 59 62 60 58 58 57 56 56 51 53 50 46 40 36 37 18 8
117 117 118 116 115 111 112 112 109 105 96 89 89 88 85 82 81 82 76 70 72 68 64 71 67 64 64 66 66 67 65 63 61 60 60 60 53 52 50 46 43 39 38 26 18
105 114 117 118 119 116 115 114 112 105 97 98 95 94 92 90 89 85 83 77 75 75 71 75 73 70 71 71 71 70 71 67 63 63 61 61 54 49 48 45 42 40 37 37 32
96 98 106 116 118 116 119 118 112 103 102 100 101 102 102 95 94 90 86 83 80 79 80 77 77 75 73 74 75 74 72 63 61 60 60 57 52 46 42 44 43 38 37 40 38
80 93 97 99 108 113 119 117 112 110 105 102 104 101 101 96 94 92 89 88 85 81 78 78 79 80 74 70 68 67 65 64 62 59 56 53 48 40 41 42 43 40 37 41 43
68 78 88 92 96 99 110 111 108 109 108 110 108 104 101 97 93 90 90 83 83 80 76 72 70 74 74 71 70 71 69 64 60 55 53 47 41 39 41 43 41 41 36 42 45
60 67 73 82 89 94 94 94 95 102 104 107 109 107 105 101 96 94 90 86 84 81 80 77 73 75 75 74 72 69 64 60 53 48 45 44 42 42 44 45 40 38 38 43 45
50 57 62 68 76 84 87 87 86 93 101 101 102 101 101 100 98 95 91 86 82 79 76 77 76 75 69 70 68 64 56 52 48 46 46 43 42 44 43 41 36 35 38 42 41
43 47 51 56 63 69 78 78 76 84 87 85 87 92 94 91 88 90 88 85 82 79 76 74 70 67 67 66 59 54 51 46 44 44 46 44 41 43 41 37 32 35 36 42 40
40 41 46 50 51 53 57 64 68 75 76 76 76 76 77 79 78 78 76 76 73 72 69 68 64 61 59 56 52 47 41 44 44 46 42 43 42 41 40 36 32 34 40 40 36
35 38 44 47 44 47 49 54 60 66 69 68 71 69 64 65 64 64 62 61 64 64 63 60 55 52 51 51 48 46 44 46 45 45 42 42 43 38 35 32 34 37 37 34 33
36 36 39 37 40 44 49 53 59 63 65 63 67 65 58 54 53 51 52 52 54 56 54 51 49 49 51 52 51 48 48 44 44 47 46 43 42 39 32 31 33 34 30 32 32
34 34 31 30 32 34 37 44 51 56 61 59 61 58 54 54 52 52 52 54 55 56 53 49 46 49 50 52 51 51 49 46 47 48 49 44 40 35 33 32 31 32 32 31 29

GFSSW_250_spd_063.txt.gz
Wind_Speed
49 49 48 48 47 44 42 41 39 36 35 34 34 35 35 32 30 30 30 31 33 32 31 27 24 25 28 29 30 32 30 35 37 37 36 35 35 35 37 38 40 43 45 47 43
53 53 52 52 52 49 47 46 44 42 41 40 38 37 37 37 36 35 34 35 36 35 32 26 25 26 29 32 32 33 33 33 36 38 37 35 35 36 37 38 39 43 46 44 43
59 56 58 57 56 53 52 51 50 49 47 47 44 43 42 41 41 39 39 39 38 35 30 27 28 29 31 33 35 36 35 36 36 37 38 36 35 37 37 37 39 42 45 46 48
64 63 60 61 59 57 54 53 53 53 50 49 49 47 47 46 45 45 43 42 39 37 32 29 31 32 36 34 33 35 36 36 36 36 37 36 36 37 37 38 41 44 46 50 53
65 65 66 64 63 62 60 56 55 53 53 51 51 49 47 46 44 42 42 40 38 39 37 33 33 34 36 35 33 35 35 35 37 35 35 34 36 36 37 40 43 45 48 53 49
67 66 66 68 66 66 65 64 60 57 56 54 54 53 51 49 48 45 46 44 42 43 41 39 39 40 38 36 33 33 38 36 34 35 35 33 33 38 37 39 43 45 49 51 49
72 71 69 66 68 68 68 66 66 63 58 56 55 55 53 51 48 48 49 49 50 49 47 46 45 42 41 36 34 35 36 38 33 37 37 34 34 38 38 40 43 45 49 47 39
78 76 74 72 69 69 69 68 68 66 66 62 60 56 55 54 51 51 51 50 50 50 50 48 44 40 38 35 34 34 37 40 37 36 38 38 36 39 40 43 44 44 40 35 22
87 84 82 79 75 73 70 67 68 69 67 66 65 63 60 60 55 53 54 53 51 50 51 50 46 43 39 36 34 36 36 42 41 40 39 40 42 40 43 44 46 43 36 25 15
98 94 89 86 84 81 77 71 68 66 68 67 67 65 63 63 61 57 55 54 54 51 51 51 49 44 39 35 34 34 34 44 44 40 38 39 43 44 46 45 44 42 38 21 12
104 103 100 96 91 89 85 80 75 69 67 66 64 65 64 62 62 61 59 57 55 53 52 51 49 44 40 38 35 35 34 43 44 40 40 38 43 45 44 47 48 43 38 33 26
108 107 107 105 103 97 92 87 85 79 74 70 67 64 64 60 59 59 59 57 53 52 49 48 47 44 41 42 41 40 38 43 46 42 41 40 42 46 47 46 47 48 39 41 35
113 112 111 109 108 106 101 96 92 88 82 78 74 70 68 64 61 62 57 55 54 51 49 47 50 45 44 44 43 43 42 44 47 47 45 45 46 46 48 49 48 49 48 45 33
117 118 118 113 111 110 106 104 99 96 91 85 82 77 75 71 65 72 64 61 58 57 53 50 51 47 47 50 47 50 48 49 50 51 49 50 52 51 49 48 47 51 50 48 35
102 118 120 121 118 114 110 108 106 102 100 91 89 83 81 78 74 76 73 65 63 63 59 58 57 54 53 55 53 57 55 54 55 54 56 56 53 56 52 49 48 51 48 47 37
80 99 114 125 122 120 117 112 110 109 100 95 95 93 88 84 81 80 80 72 69 68 65 66 65 61 61 60 58 61 61 59 58 59 59 58 58 56 55 53 52 49 46 43 41
70 82 96 111 124 122 121 119 115 110 102 99 99 97 95 93 89 87 86 81 73 73 69 73 71 68 67 66 65 65 65 65 64 62 61 59 55 55 56 53 50 48 47 46 44
58 73 85 93 104 114 119 120 119 109 106 102 100 102 99 99 96 92 89 86 82 77 76 76 77 75 74 72 70 69 69 70 68 66 65 59 55 55 54 54 53 53 48 47 44
48 62 74 81 90 99 108 116 114 111 110 108 107 105 102 101 100 99 93 91 88 83 80 80 78 81 77 76 74 72 70 69 65 63 62 60 57 54 57 55 52 47 49 49 47
40 50 62 69 79 89 95 95 98 109 109 109 109 107 103 103 101 98 96 93 90 86 85 82 84 86 81 78 76 71 71 69 63 60 62 61 60 59 56 51 48 43 49 50 45
34 41 50 58 68 77 83 86 86 89 100 108 109 109 107 105 103 100 96 91 88 88 89 86 81 82 79 76 76 73 74 72 68 65 62 61 61 59 53 49 43 43 50 49 43
33 35 42 49 57 65 71 79 84 86 88 91 98 105 106 104 103 102 100 97 91 88 87 85 82 82 80 80 77 73 72 69 66 65 62 58 57 54 50 48 43 44 46 43 43
31 33 37 42 49 55 61 67 73 78 82 79 78 86 93 97 100 100 98 94 91 89 87 86 83 82 83 82 77 76 72 69 65 63 57 52 48 49 49 48 48 44 42 40 45
30 30 33 38 44 48 52 57 64 72 75 77 75 77 78 75 81 85 87 86 85 83 84 82 78 78 78 78 74 71 68 63 60 56 52 48 46 46 48 48 46 44 40 38 36
28 30 31 33 38 42 48 52 56 62 66 67 69 71 70 70 69 67 69 75 76 76 74 75 73 73 70 70 67 65 62 60 55 52 50 48 47 46 43 41 42 43 37 31 33
26 28 28 31 35 38 40 41 44 46 53 59 63 64 64 62 63 63 60 59 62 65 67 69 69 69 66 63 60 59 58 55 54 53 52 48 41 41 40 39 39 39 32 29 29
24 26 27 27 29 33 37 37 38 43 45 44 52 59 64 59 61 60 60 57 57 58 60 60 60 59 59 58 59 56 55 54 52 49 47 43 42 42 40 40 36 34 31 30 29

GFSSW_250_spd_066.txt.gz
Wind_Speed
49 48 49 47 44 41 39 39 40 39 38 35 35 33 31 32 32 30 31 31 31 32 33 34 31 27 28 25 26 30 33 35 34 29 31 31 29 28 30 32 35 38 40 43 37
54 55 53 51 52 49 46 44 43 42 40 38 37 36 37 37 37 35 34 35 35 36 36 36 33 29 28 31 30 33 39 38 38 35 32 31 30 29 31 33 35 37 40 37 39
56 56 59 57 55 54 52 50 49 48 46 43 43 42 41 39 38 38 38 39 39 39 37 34 31 30 31 32 34 36 39 40 39 38 33 28 29 29 30 32 35 38 40 35 37
62 61 61 61 59 57 57 55 55 53 51 50 49 47 45 44 43 42 42 42 41 41 36 33 32 30 33 34 37 39 41 41 42 37 36 29 30 30 30 31 36 37 34 36 40
67 67 67 65 64 61 60 61 61 59 58 55 54 51 50 48 45 47 45 42 39 38 38 36 36 35 35 37 39 41 40 41 41 39 35 34 33 32 31 32 35 36 32 37 34
72 71 73 71 70 68 66 63 61 62 62 61 59 57 53 54 50 47 46 44 41 41 42 43 40 41 40 41 41 38 38 36 39 36 37 34 37 34 32 32 34 36 38 33 22
75 75 75 76 76 73 71 68 66 64 64 63 62 59 56 54 53 51 49 47 45 43 41 43 43 42 42 41 42 36 38 36 35 37 37 36 35 36 34 34 34 36 36 34 20
82 79 78 77 77 77 74 72 71 68 67 67 66 64 63 60 55 54 50 49 47 45 44 43 44 44 43 42 42 39 37 38 35 36 39 37 37 39 37 36 34 35 35 33 23
91 90 87 85 82 81 78 75 73 71 71 70 69 67 65 64 64 58 55 52 49 50 49 47 46 45 46 42 40 39 36 37 35 35 39 39 39 40 40 38 36 36 38 37 32
97 96 95 94 92 89 85 81 78 76 73 71 71 69 68 67 67 63 60 58 56 55 53 51 48 47 46 44 39 38 34 35 35 37 37 39 40 40 43 41 40 37 37 40 38
106 106 104 101 99 97 94 90 87 82 78 75 72 72 69 70 69 66 64 62 59 57 55 54 52 49 46 42 41 36 30 38 37 38 39 41 42 41 42 46 45 42 39 42 42
101 108 112 110 107 105 102 100 96 91 86 81 78 72 70 68 68 71 68 63 61 59 56 56 55 50 46 39 39 35 33 37 38 38 39 43 45 43 43 45 47 48 47 45 46
77 95 105 113 116 111 108 106 102 100 95 91 85 81 76 70 67 68 69 66 61 58 57 54 53 50 46 42 40 38 38 38 41 40 42 45 48 47 46 48 49 51 51 49 48
55 73 84 101 112 118 116 111 109 106 103 97 92 89 86 80 71 73 70 69 64 60 56 51 52 47 42 43 41 43 39 42 43 44 47 46 53 50 51 52 51 52 53 49 48
50 56 69 86 93 114 119 120 115 111 110 105 100 92 91 89 82 78 76 76 66 64 62 56 55 52 51 53 48 50 46 47 48 49 51 52 53 58 57 54 54 50 51 51 55
53 58 58 71 91 96 111 121 121 120 114 107 101 102 96 93 89 86 83 81 76 73 67 64 61 61 59 58 54 55 54 54 54 53 55 57 57 60 60 58 55 51 53 53 56
56 58 55 57 74 89 97 109 122 122 114 111 106 103 101 100 96 92 90 88 82 78 73 72 69 68 64 61 60 61 60 58 57 58 61 59 61 61 61 58 54 51 55 55 56
59 56 50 50 60 76 89 96 103 112 115 115 111 107 104 102 99 97 94 90 87 83 79 77 75 74 72 69 68 64 63 63 63 63 63 61 62 63 59 57 57 53 56 57 57
62 57 46 45 52 63 77 86 87 99 109 114 115 111 110 104 101 98 95 94 91 88 83 81 80 78 79 74 71 70 67 68 68 66 64 65 64 63 61 61 60 57 61 58 52
66 58 48 43 46 54 61 70 81 87 96 101 110 114 110 109 106 101 97 94 94 92 90 86 87 85 84 78 77 75 74 75 73 71 68 66 64 63 62 60 60 57 56 54 51
66 56 47 41 41 46 52 62 68 77 86 90 94 104 111 109 108 106 103 96 94 92 89 89 87 91 86 83 83 78 76 73 71 69 66 64 63 62 64 59 57 53 51 53 52
68 56 45 38 36 38 43 51 61 69 74 80 84 88 97 101 106 106 104 99 96 93 91 89 88 88 83 83 81 77 74 73 75 69 66 64 65 64 64 62 56 51 50 51 53
68 57 44 36 33 34 37 43 50 56 62 69 77 78 78 85 92 102 103 99 96 95 95 93 89 88 87 83 80 79 79 76 73 71 68 67 67 64 61 59 55 51 48 50 48
65 53 41 33 31 31 34 39 44 51 56 62 68 74 74 73 75 80 89 97 97 94 92 92 90 90 88 88 82 79 79 77 75 71 69 65 66 65 60 55 53 50 50 46 39
60 48 36 29 28 28 31 36 40 44 45 51 59 66 71 71 69 70 70 73 81 87 89 89 88 86 84 83 82 78 78 77 73 68 64 59 59 55 56 54 52 50 47 42 38
54 41 33 27 26 27 30 32 34 36 40 43 51 59 64 62 64 66 64 62 64 67 72 77 82 82 82 81 80 78 74 70 65 60 57 54 54 57 55 52 52 49 42 38 32
49 36 29 25 24 27 30 30 27 30 35 38 45 51 58 62 65 63 63 60 59 59 58 60 63 67 72 71 70 70 65 60 56 56 53 53 54 57 55 51 49 44 40 36 32

GFSSW_250_spd_069.txt.gz
Wind_Speed
47 47 45 42 41 41 39 39 39 38 38 36 36 36 35 34 31 30 30 32 33 36 36 36 35 34 31 27 27 30 33 36 36 35 35 29 25 25 26 27 30 30 33 37 41
53 52 50 49 48 44 43 42 42 41 40 40 40 38 36 36 35 34 34 34 36 38 38 36 34 32 31 29 31 32 35 39 40 38 36 30 26 26 26 27 28 30 32 36 40
54 58 58 56 54 53 51 49 45 45 44 42 43 43 41 40 38 38 38 37 39 40 39 39 38 31 30 30 32 35 36 41 42 41 38 34 28 28 28 26 27 30 32 35 37
57 57 58 60 60 58 57 57 56 53 50 49 47 45 45 46 43 42 43 42 42 42 42 43 39 33 34 35 35 37 39 41 43 44 40 36 31 28 28 28 28 29 31 35 37
64 63 62 63 64 62 62 62 61 60 59 57 54 51 51 50 48 47 47 46 45 44 43 43 39 37 37 37 37 37 39 40 43 44 44 40 33 28 28 30 29 29 30 33 34
71 70 70 69 69 67 66 66 67 66 64 62 62 59 55 54 53 53 52 51 51 49 45 45 43 40 41 39 39 38 39 42 42 45 44 43 38 33 28 31 30 30 32 31 34
76 75 74 75 74 74 74 72 71 70 68 68 67 65 63 62 59 56 56 54 53 51 50 48 47 43 42 42 41 40 43 42 41 43 43 43 40 39 32 30 31 31 33 34 33
79 80 81 80 79 78 77 76 77 76 76 74 72 70 68 65 62 60 59 56 54 52 50 49 48 45 43 43 43 42 44 43 40 40 40 40 41 39 35 32 32 32 34 35 34
87 85 84 83 83 83 81 80 81 80 80 79 79 76 74 72 69 66 63 62 59 57 54 53 50 48 46 47 47 45 45 43 41 34 38 38 40 40 39 35 31 33 36 37 36
94 95 95 95 94 92 90 89 87 85 83 82 80 80 78 76 71 71 67 67 64 60 58 57 56 53 52 49 47 46 44 43 40 37 36 38 40 42 42 41 38 36 37 40 37
91 93 94 100 101 101 99 98 97 95 89 86 85 81 79 75 73 74 71 67 67 63 61 59 55 56 56 52 49 47 47 43 38 38 35 38 40 42 43 45 44 42 38 41 41
58 70 83 90 101 105 106 108 105 103 98 96 94 87 85 80 77 74 72 70 68 66 65 61 59 59 55 53 51 50 48 43 40 37 36 38 40 42 43 45 48 47 46 47 47
54 58 67 73 76 84 95 103 112 111 107 104 100 95 92 88 82 77 72 71 69 68 66 64 63 61 57 55 51 50 46 43 41 38 36 39 41 42 45 47 50 49 49 52 52
46 49 52 56 69 77 82 83 98 110 113 107 109 102 102 92 87 83 78 75 73 69 67 66 66 64 59 54 51 48 45 39 41 39 40 41 46 45 47 51 50 52 54 55 53
45 51 53 60 62 63 70 79 82 90 102 108 112 112 105 102 92 92 85 82 77 74 70 66 65 64 58 55 52 48 46 44 47 46 43 46 50 55 50 52 55 55 56 57 53
45 50 50 56 58 59 63 66 76 83 89 101 113 109 109 102 99 95 93 88 82 84 77 69 66 64 61 60 58 56 51 49 50 50 50 53 51 55 62 56 57 57 60 59 54
49 52 52 54 58 62 64 64 65 76 82 96 104 110 111 110 105 101 96 95 90 88 82 77 73 69 69 65 62 59 58 56 55 56 57 60 55 55 60 61 59 61 62 61 57
51 53 56 59 60 63 57 59 54 61 76 88 100 106 110 111 110 106 101 98 92 92 89 84 79 76 72 71 70 66 64 62 60 61 61 63 60 60 59 61 61 63 60 59 57
56 57 57 56 58 59 56 52 51 59 70 82 90 95 104 111 112 109 107 99 96 96 93 91 85 85 81 76 73 69 67 66 65 64 64 68 68 63 63 65 64 60 57 59 58
59 62 65 56 58 57 54 49 50 56 60 65 75 85 93 106 111 112 109 105 99 98 96 91 90 89 86 81 78 74 73 72 69 68 69 69 68 73 68 64 61 59 56 58 59
66 70 67 58 57 57 51 47 47 48 52 61 69 78 84 92 108 108 109 107 105 100 96 93 94 92 96 84 85 80 79 74 75 71 72 71 72 76 72 65 60 57 58 59 59
71 71 67 59 55 55 48 42 41 43 49 53 61 66 74 83 86 98 104 108 104 102 97 94 95 94 98 86 88 85 81 80 80 77 76 74 70 77 72 63 59 58 58 60 58
73 72 67 59 54 52 43 37 37 40 41 45 53 58 66 71 75 82 89 102 99 101 101 99 95 92 90 87 85 83 85 83 81 77 74 70 67 76 72 67 65 61 59 55 54
76 72 64 60 53 47 38 33 33 34 34 39 45 51 56 61 66 71 75 80 81 98 96 97 96 94 91 88 90 84 85 81 78 75 73 70 71 73 73 73 67 63 58 53 53
74 69 62 60 51 43 35 29 30 30 31 33 38 44 51 56 60 64 66 70 71 76 83 92 95 93 89 89 91 83 83 83 82 78 75 73 74 56 59 62 66 62 54 52 51
72 65 61 56 46 37 32 27 26 27 31 34 36 42 48 51 55 60 63 63 63 65 66 71 79 88 87 90 87 85 86 83 81 77 72 70 71 64 73 74 64 55 54 52 52
70 63 59 51 41 32 28 25 23 21 27 30 34 39 43 49 51 54 60 60 62 56 58 57 60 60 67 75 77 81 82 82 78 75 72 72 76 66 65 65 61 54 53 53 53

GFSSW_250_spd_072.txt.gz
Wind_Speed
42 41 41 42 43 43 42 41 41 39 37 38 38 38 37 36 33 33 32 34 34 35 35 36 38 39 33 32 29 29 32 38 37 37 40 38 31 24 21 24 27 29 31 33 36
48 47 46 45 45 45 45 45 44 43 43 41 41 42 41 41 39 37 37 37 38 39 39 38 38 40 36 35 33 33 34 37 40 40 39 39 35 26 22 24 35 26 28 31 34
55 55 55 53 52 50 49 48 49 48 46 45 43 42 43 42 42 41 41 41 41 40 41 40 42 44 41 37 34 35 36 37 39 40 40 41 38 32 24 21 18 21 25 30 33
57 56 61 61 59 56 57 55 54 53 51 51 49 46 45 45 44 45 44 44 43 43 44 43 43 46 45 42 38 38 39 38 38 39 41 41 41 37 27 25 23 22 26 27 29
62 61 61 61 64 65 64 63 63 62 60 57 54 54 55 51 48 49 47 46 47 47 46 48 47 47 48 45 41 42 41 41 39 40 40 42 42 37 30 26 25 26 26 26 28
66 65 66 66 66 66 67 69 69 68 68 67 64 60 57 58 58 54 53 52 50 50 51 50 49 50 50 46 43 44 42 41 41 40 43 42 42 38 32 26 26 27 27 26 28
71 71 72 72 72 72 72 72 72 72 71 72 72 70 67 65 62 60 59 56 56 55 56 57 54 52 50 47 44 45 45 44 44 45 43 43 41 39 35 32 27 26 27 27 25
73 74 78 78 79 79 78 78 79 78 76 75 75 73 70 70 69 68 64 63 59 57 57 56 55 53 50 50 47 46 47 48 48 46 46 45 43 34 33 32 30 27 28 27 26
82 81 81 80 82 82 84 84 85 85 84 80 79 75 76 75 75 73 71 69 67 63 60 59 58 56 56 54 52 51 50 50 50 47 45 45 43 39 35 32 31 30 30 29 31
83 84 85 87 89 89 88 88 90 91 89 87 85 79 82 80 77 74 76 74 72 68 66 66 64 63 59 58 56 53 53 54 52 49 45 44 42 39 36 34 32 34 35 35 34
68 72 78 86 88 88 90 94 97 99 96 94 94 90 87 83 81 78 78 77 76 72 70 69 64 62 62 58 57 56 54 55 51 48 46 43 41 39 37 38 36 37 38 39 38
42 49 52 53 60 71 79 84 87 94 97 99 99 98 95 95 87 85 84 78 77 74 73 70 65 65 65 61 58 56 56 55 51 50 47 42 41 39 37 38 40 42 43 45 45
44 43 45 48 55 57 60 67 72 76 73 84 96 100 94 102 94 91 90 85 81 78 75 72 69 69 67 64 59 58 57 56 53 51 48 44 41 39 40 39 41 45 45 47 48
49 49 46 44 45 51 57 66 68 72 65 68 73 79 92 102 104 92 94 90 88 83 79 76 73 71 69 64 61 60 59 60 55 52 48 44 41 43 45 43 43 46 51 48 53
51 52 49 51 48 50 55 59 64 72 70 67 77 74 77 89 95 97 98 98 92 88 87 77 77 74 71 66 64 62 62 59 53 52 48 45 45 47 50 50 46 47 48 52 52
47 51 52 50 52 56 57 63 68 68 69 70 73 73 75 78 83 93 102 102 96 95 91 85 81 78 73 70 63 63 62 60 56 55 50 50 51 51 55 55 49 52 54 56 54
41 43 48 50 51 59 61 61 66 70 70 67 71 74 75 79 84 90 102 108 102 96 91 86 85 80 77 71 68 65 62 61 58 57 53 57 56 52 59 60 57 53 52 56 58
43 45 48 52 55 59 57 60 62 68 67 69 69 71 73 75 84 91 101 107 108 101 93 93 92 84 80 77 73 70 67 62 60 58 60 62 60 62 60 61 64 56 60 58 59
47 49 53 56 56 57 60 59 64 63 69 71 65 68 65 68 81 90 97 106 107 103 99 97 94 91 90 84 79 74 70 69 65 64 64 65 65 69 69 59 60 57 64 62 63
53 54 60 61 61 60 59 61 58 60 66 66 59 58 59 65 68 78 89 96 106 106 102 99 97 96 93 88 85 78 74 72 69 67 66 66 68 71 71 74 62 57 62 65 65
56 62 68 67 66 64 63 62 58 60 61 59 56 55 57 59 64 74 82 84 89 104 105 102 102 95 95 93 91 83 78 77 76 72 69 69 70 74 75 72 76 66 63 64 63
67 68 73 72 72 69 66 61 58 57 54 51 51 51 49 52 56 61 69 81 88 92 104 103 99 97 96 94 97 88 82 81 82 75 76 73 72 77 79 83 70 76 68 65 63
73 76 76 74 72 70 66 60 58 53 48 43 43 40 41 44 45 52 61 72 74 77 90 100 100 99 96 98 98 90 86 84 85 81 78 78 76 78 85 76 72 76 70 69 69
78 79 77 74 71 67 61 59 53 48 41 37 35 34 35 39 42 49 56 63 61 66 74 80 89 95 94 92 93 94 91 90 88 86 80 82 87 82 79 70 72 79 79 65 59
78 78 76 72 69 64 59 55 48 40 34 32 30 28 29 34 37 43 53 58 60 59 62 62 70 83 89 91 93 93 90 88 86 80 80 79 81 74 69 66 57 60 36 49 51
77 75 74 70 64 59 55 48 43 36 27 26 27 24 23 25 34 40 49 52 55 59 58 58 55 59 67 76 83 84 85 84 85 81 80 79 82 76 69 70 72 76 78 79 76
75 73 70 66 61 57 49 43 37 30 24 24 24 25 22 26 29 35 41 46 49 54 55 53 49 50 43 40 49 63 69 80 78 78 80 78 74 69 72 74 70 72 78 73 63

GFSSW_250_spd_075.txt.gz
Wind_Speed
41 41 40 39 39 39 40 41 42 42 42 41 41 41 41 40 38 36 35 35 36 37 37 39 40 40 41 41 38 35 37 35 39 41 38 35 36 36 25 24 22 23 25 26 29
47 46 46 47 46 45 45 45 44 44 45 46 45 44 44 44 44 42 40 40 39 40 39 41 43 43 43 43 39 39 37 35 37 39 39 37 36 34 28 24 22 21 22 24 28
52 51 50 51 52 52 51 51 50 49 48 48 48 48 47 46 47 44 43 42 42 41 42 43 45 46 44 44 44 44 42 39 37 38 37 38 37 30 26 21 21 19 21 22 26
54 56 57 57 57 58 57 56 56 55 54 54 52 50 50 48 48 46 45 44 42 44 43 43 43 46 47 47 47 45 42 38 38 39 40 37 39 32 24 21 19 19 17 21 23
57 60 60 59 59 60 62 64 64 61 61 58 57 56 55 53 52 51 52 51 48 46 46 45 45 46 47 48 49 49 45 42 40 40 41 40 38 36 25 19 14 13 18 19 21
59 60 62 63 64 66 66 67 66 67 68 67 65 64 60 59 59 60 57 57 54 53 50 49 47 47 48 49 51 50 47 43 42 42 43 43 40 38 29 24 16 14 17 17 20
65 65 66 67 68 69 71 71 72 72 70 69 70 70 69 69 65 67 63 61 60 60 59 57 56 54 53 53 54 52 50 47 46 45 47 46 43 38 35 25 21 17 16 17 19
69 71 71 73 73 74 74 74 77 77 76 74 74 72 70 74 70 71 69 70 69 68 65 63 60 59 57 54 53 53 53 51 51 50 49 49 46 39 33 31 25 18 18 20 20
75 77 78 79 79 80 80 80 80 79 81 80 81 76 75 80 78 78 75 76 72 72 70 68 67 65 63 59 55 56 57 57 57 53 51 49 48 42 35 31 29 26 21 23 22
74 79 81 83 83 83 86 86 86 85 84 84 84 80 78 86 87 83 80 80 78 76 74 73 69 66 66 65 64 62 59 58 58 55 54 50 47 46 41 34 32 27 27 28 31
48 51 54 55 64 68 74 76 73 79 83 83 86 85 84 89 89 86 87 85 84 81 77 77 71 66 68 66 65 64 62 58 59 57 54 51 49 46 44 40 36 30 32 30 31
47 50 53 53 52 53 51 53 59 66 59 61 68 70 78 89 88 85 90 89 89 83 86 79 71 71 70 68 65 63 61 59 60 57 55 53 50 48 45 42 40 34 31 37 31
49 50 53 55 55 54 52 55 53 52 47 53 63 62 67 75 78 85 85 91 93 91 86 83 75 75 73 71 69 64 61 62 60 60 56 53 51 49 47 43 40 40 33 36 38
47 49 49 55 58 61 58 58 56 53 47 52 65 69 67 71 63 66 67 79 94 94 92 90 85 82 78 74 71 67 62 63 61 61 57 57 51 49 50 45 40 44 39 39 40
45 47 45 50 52 55 59 61 60 60 55 62 67 73 74 74 71 66 67 70 69 86 99 87 90 88 83 78 76 69 67 63 64 62 59 58 55 54 51 49 45 39 38 43 42
43 45 47 43 45 48 50 54 60 63 65 67 72 74 76 74 73 71 74 76 72 75 88 92 94 94 87 84 81 74 67 66 65 62 59 61 58 57 54 52 48 46 43 44 45
41 43 45 46 46 50 50 53 55 60 65 72 73 74 73 75 73 71 75 73 71 74 73 85 95 93 91 88 85 79 71 69 67 62 64 63 58 59 56 57 53 49 48 50 49
45 44 45 50 50 52 53 57 60 64 68 74 69 72 76 77 78 71 77 75 72 76 75 76 89 96 92 92 87 83 77 73 71 67 69 63 58 61 63 60 55 50 51 55 51
49 49 52 52 54 57 60 64 64 66 70 70 70 70 70 69 72 77 76 74 71 73 77 80 80 96 99 95 92 84 83 76 75 70 68 66 64 62 66 62 61 54 50 57 55
52 51 56 57 61 63 67 68 68 68 69 65 66 63 64 64 68 71 69 69 71 72 80 82 85 91 98 99 98 92 82 84 74 70 68 67 68 66 67 69 70 61 55 57 58
57 57 60 64 67 68 71 71 71 70 69 63 60 58 58 58 56 57 58 57 67 69 71 82 85 85 98 101 99 96 90 86 79 74 72 69 69 73 70 68 65 59 59 61 61
63 64 67 69 72 71 73 73 69 68 64 61 55 54 53 51 48 48 53 55 56 58 60 66 70 80 87 95 95 94 93 91 86 76 78 73 73 78 73 65 65 59 60 68 71
70 71 71 73 74 74 74 73 69 65 60 56 52 51 47 44 41 42 44 40 47 52 57 60 65 71 69 83 93 94 92 93 89 83 81 79 77 79 75 71 66 58 61 69 82
72 73 73 74 74 74 73 71 68 61 58 53 48 44 40 39 36 38 35 41 36 41 39 49 56 59 54 58 71 88 92 89 89 85 79 82 80 81 79 75 65 64 50 19 44
74 74 74 73 73 73 71 69 64 59 54 51 44 38 33 30 30 31 30 36 27 39 49 53 47 48 40 39 49 62 80 84 88 85 85 83 83 85 75 74 66 58 45 41 59
73 73 72 73 72 72 69 66 60 56 52 46 38 33 27 26 26 28 36 39 41 49 36 26 30 19 28 34 40 52 57 63 80 90 82 83 83 86 76 70 64 63 56 58 67
75 73 73 74 71 72 67 65 58 53 46 39 33 28 25 21 20 20 25 34 48 37 45 50 34 36 31 30 33 35 42 50 59 64 78 82 79 76 75 73 69 66 67 68 74

GFSSW_250_spd_078.txt.gz
Wind_Speed
36 36 36 37 37 38 39 41 41 40 41 41 40 41 41 42 42 42 39 40 41 42 40 38 40 40 41 41 40 41 41 41 35 34 35 35 34 25 23 17 17 18 21 23 26
43 42 41 43 42 43 43 45 46 46 45 45 46 45 45 45 44 45 44 43 43 44 42 40 42 43 43 44 44 41 43 42 35 32 32 34 33 27 27 16 14 18 19 19 21
48 47 49 50 50 49 50 50 49 50 50 50 50 48 48 49 48 46 47 47 44 44 44 44 44 47 47 47 47 47 47 45 41 36 33 31 35 32 26 21 15 14 17 17 19
49 53 55 56 55 57 57 58 56 56 56 56 55 54 52 53 54 51 52 50 48 47 45 46 46 49 49 48 48 50 49 47 46 44 37 35 35 36 32 25 19 14 16 16 18
53 53 55 56 57 58 60 61 60 60 60 60 58 57 57 57 61 58 55 53 51 50 50 50 52 48 48 47 47 49 50 49 47 45 41 37 36 37 34 29 20 15 14 14 17
56 57 58 59 61 62 62 64 65 65 65 63 63 62 60 60 59 60 59 58 56 55 54 53 54 52 52 51 50 52 51 51 50 47 45 42 38 37 35 29 23 15 12 14 17
62 63 64 65 65 65 67 68 67 67 68 68 68 67 67 71 67 66 68 65 65 63 61 58 59 56 58 54 54 50 51 53 49 50 48 47 41 39 35 29 23 19 12 15 14
67 68 69 70 70 71 73 75 74 75 74 72 72 70 71 80 72 75 76 73 72 71 69 66 65 63 62 60 58 55 55 54 54 50 48 48 43 37 33 30 29 23 20 16 14
70 71 73 75 77 78 77 78 77 79 78 78 78 75 74 80 80 79 78 81 77 77 76 75 71 68 65 64 63 61 61 58 54 52 49 46 47 34 33 30 28 27 22 21 17
60 63 65 68 69 72 68 68 68 70 75 79 82 82 82 82 82 80 79 82 82 82 80 80 78 73 71 69 65 65 62 58 55 51 49 46 45 46 34 31 28 26 26 22 22
37 39 41 43 45 49 50 56 59 55 51 60 63 72 78 81 80 81 85 82 84 83 80 83 78 75 76 74 72 70 64 64 59 55 53 48 46 45 44 37 30 30 26 28 26
40 43 45 46 48 48 51 53 52 51 52 54 54 49 55 59 62 67 79 82 85 85 88 87 82 80 82 78 75 74 71 64 61 60 59 52 48 48 47 44 36 33 28 30 33
43 45 47 47 49 50 49 50 51 47 47 64 59 55 55 54 56 61 64 66 69 72 80 88 78 92 86 84 80 75 73 67 59 64 61 56 51 51 52 51 42 37 31 32 37
43 45 47 49 49 49 47 47 46 48 49 60 63 64 63 62 59 65 66 65 62 61 66 63 71 86 91 87 85 80 76 71 64 67 63 61 53 53 58 53 48 42 34 33 38
42 45 46 51 50 50 47 47 48 48 48 52 57 62 66 68 71 73 76 73 69 69 68 56 62 68 83 84 94 84 81 77 70 69 64 63 58 57 61 53 53 43 37 36 38
42 46 46 46 48 50 50 50 49 50 50 55 56 59 63 69 75 77 81 81 78 78 73 66 67 67 68 78 89 90 88 82 75 71 66 69 66 62 59 58 53 48 37 36 36
43 44 48 48 49 52 52 53 54 55 53 57 59 63 68 75 78 77 79 81 78 77 74 71 70 69 69 74 79 88 93 86 78 73 63 75 66 62 61 59 57 51 41 38 39
45 47 47 49 52 54 56 56 57 58 62 65 65 68 73 81 77 76 80 81 81 80 78 71 69 69 70 68 76 87 91 90 81 77 73 78 64 69 66 62 56 51 45 41 41
50 53 53 54 55 56 58 61 63 65 68 70 72 68 73 80 75 70 71 75 74 80 77 74 66 75 73 70 77 76 85 87 89 81 80 77 72 71 70 64 58 51 48 45 43
53 57 57 58 59 61 64 66 69 69 71 71 72 66 69 74 65 63 63 65 66 71 71 69 64 65 70 75 75 78 81 93 94 89 82 80 77 76 73 67 61 56 51 47 46
56 58 61 63 62 64 65 67 71 71 70 70 68 66 64 66 57 53 57 56 57 61 66 64 56 62 68 71 74 78 83 87 93 92 85 82 81 79 75 68 63 59 53 49 46
57 58 59 62 64 67 68 70 70 72 71 70 69 65 60 58 53 51 53 53 50 53 56 55 53 61 63 64 70 72 83 84 88 92 86 84 82 82 76 70 64 61 53 47 48
60 61 63 63 66 68 71 73 72 74 73 70 67 60 58 54 50 48 47 47 46 45 47 51 49 50 51 50 57 62 65 71 81 88 89 87 82 84 77 76 65 60 53 48 49
64 66 68 68 71 72 73 75 75 75 72 69 63 60 55 51 47 42 39 42 41 42 44 40 34 29 35 38 44 46 56 68 74 79 83 84 84 87 82 78 68 59 55 52 48
68 71 72 72 77 76 76 76 76 73 69 64 62 57 52 50 42 37 36 35 34 39 33 37 28 23 28 37 39 38 46 48 50 66 75 83 83 84 80 71 67 66 62 57 47
72 73 76 78 79 78 78 77 75 72 69 61 58 53 50 41 32 25 25 27 29 32 33 21 23 22 39 25 32 26 31 39 46 36 51 63 77 73 70 66 66 66 63 58 53
76 77 78 80 83 80 78 77 72 71 67 62 54 49 42 34 29 29 26 24 24 36 30 18 27 29 35 21 21 24 30 33 29 48 34 39 44 59 66 57 59 62 70 63 54

GFSSW_250_spd_081.txt.gz
Wind_Speed
35 35 35 36 35 35 37 37 38 38 39 39 40 41 42 43 42 44 43 44 43 43 42 44 43 43 45 45 43 43 41 41 40 40 33 29 32 33 33 27 22 19 16 17 21
40 39 40 41 40 40 41 43 44 43 43 44 45 45 45 46 45 46 47 49 48 45 45 45 43 45 45 44 45 45 42 43 40 39 37 34 30 31 30 26 22 19 16 14 17
44 45 46 47 48 49 49 50 49 49 51 51 51 51 53 54 51 51 53 53 51 51 51 49 46 49 45 43 44 44 44 43 41 40 39 38 36 32 31 29 21 14 15 13 15
48 50 51 51 51 52 53 54 54 55 55 56 57 58 58 58 59 54 56 54 55 55 54 53 49 48 47 46 42 44 44 46 45 41 37 37 37 37 32 30 22 12 13 15 17
47 50 52 53 54 55 55 56 57 56 57 57 58 58 58 60 62 58 58 57 57 58 57 56 54 51 50 48 43 45 44 48 44 43 41 37 39 38 36 28 24 15 12 14 17
50 51 52 54 57 57 58 60 61 61 62 63 64 64 64 64 64 64 65 62 63 63 61 61 60 55 54 52 48 48 48 49 45 39 42 40 39 39 37 28 26 25 18 13 16
56 57 59 60 61 62 64 64 65 67 67 68 69 69 71 77 70 69 68 72 67 68 68 66 66 64 61 60 57 57 54 55 54 43 39 38 42 40 39 35 26 24 22 16 11
63 65 65 67 68 68 70 72 72 73 73 75 74 74 77 81 77 78 76 77 77 74 73 71 69 68 67 66 63 59 58 61 57 50 43 38 41 39 37 36 30 26 23 22 14
67 66 69 70 70 70 71 73 73 74 77 77 79 76 76 83 83 83 81 83 82 79 78 76 72 71 69 68 70 66 66 63 63 58 52 42 42 37 39 35 36 32 27 24 21
45 46 46 44 44 42 45 47 45 48 52 56 58 59 62 67 70 78 80 82 83 84 81 78 76 72 71 70 70 75 68 67 66 64 58 52 48 41 39 37 37 37 32 28 25
31 32 34 35 38 38 39 39 39 44 48 47 48 50 57 60 57 56 61 75 78 84 84 85 79 75 77 75 73 73 71 71 69 70 63 61 56 48 44 40 38 39 37 31 29
32 34 35 39 41 42 43 43 45 46 55 43 46 45 48 49 53 57 55 55 56 60 64 75 75 79 84 80 78 76 75 72 71 71 65 65 62 59 49 48 40 40 38 36 32
35 37 39 41 43 43 46 47 47 48 50 51 50 45 46 50 51 63 59 59 57 56 59 58 56 67 73 78 78 78 76 77 76 77 70 66 61 59 55 51 48 42 38 39 35
37 38 40 41 43 45 48 49 49 50 51 53 51 51 51 49 52 56 56 57 60 63 66 60 60 61 60 59 65 64 70 81 79 82 73 72 62 60 61 57 53 44 40 41 38
36 37 38 43 44 46 48 49 51 52 54 54 52 54 58 55 54 59 63 62 61 66 71 67 69 68 60 58 69 56 70 70 73 77 78 73 68 58 62 64 57 48 44 43 41
39 41 40 44 47 47 49 52 53 55 57 57 58 60 61 62 61 62 67 67 68 72 71 70 72 71 66 70 75 66 70 66 66 65 63 74 74 59 64 65 58 52 48 46 44
44 44 47 46 49 50 52 53 55 58 60 62 64 67 67 69 69 72 75 76 73 76 75 77 77 76 70 66 78 73 73 71 68 64 55 77 77 61 70 64 58 53 50 49 48
49 48 50 52 53 53 55 56 57 57 60 61 63 69 70 67 67 71 71 76 76 78 77 76 75 77 77 74 80 76 75 71 69 69 62 74 67 69 75 66 60 56 54 53 48
54 53 53 54 54 53 54 54 55 55 56 57 63 66 73 71 66 69 65 69 70 72 71 71 70 70 71 71 78 74 73 72 74 70 68 68 65 77 77 69 63 61 58 54 48
57 56 56 55 54 53 53 55 56 57 60 61 65 69 73 73 70 70 64 64 63 65 58 57 55 60 66 70 70 71 70 73 71 68 67 65 67 79 79 72 68 65 58 54 48
61 59 58 57 55 56 57 58 62 63 65 69 72 72 73 74 68 65 64 61 58 57 51 48 47 55 61 63 64 69 63 67 64 70 60 63 65 81 74 75 72 65 59 55 53
63 62 61 59 58 59 59 62 68 70 69 74 75 77 76 70 67 62 60 59 51 52 46 43 42 47 52 57 63 66 64 67 68 64 62 64 65 73 71 74 71 66 61 59 54
65 64 63 62 62 62 64 67 72 74 75 78 80 77 76 70 64 61 58 52 49 45 39 37 37 42 48 54 58 63 60 62 62 63 65 65 63 73 69 73 73 71 66 63 57
67 66 65 64 64 65 68 71 76 76 80 81 83 79 75 70 63 60 53 51 46 40 31 35 37 39 44 48 53 53 54 57 59 60 60 58 62 69 66 67 67 69 67 64 57
71 69 67 66 67 68 70 75 79 80 82 82 83 79 73 65 63 57 51 47 42 34 28 32 37 33 35 40 39 31 38 42 48 48 47 47 52 55 57 56 61 66 57 57 53
71 70 69 69 71 72 73 77 81 83 84 85 79 80 69 61 61 53 46 41 39 29 28 32 31 35 35 42 34 30 25 27 32 31 31 40 46 44 46 49 53 50 54 50 47
73 73 73 72 74 76 78 80 83 83 86 83 79 73 67 61 53 47 39 34 32 31 28 32 30 32 39 36 30 31 31 27 38 42 34 31 31 26 31 38 42 46 43 40 35

GFSSW_250_spd_084.txt.gz
Wind_Speed
35 36 36 35 35 36 36 37 38 39 40 41 43 44 45 45 46 46 48 47 47 48 49 47 46 45 43 43 43 42 42 42 38 37 38 33 30 28 29 31 30 23 21 20 19
37 37 37 39 40 40 41 42 43 44 46 47 48 49 50 49 52 53 52 53 54 52 50 48 45 47 44 43 43 43 43 42 39 36 37 35 33 31 29 26 28 25 19 18 19
41 41 42 43 44 45 47 49 49 51 52 51 52 53 55 56 55 56 55 55 56 55 52 49 47 49 46 43 43 42 43 44 40 40 36 35 34 30 28 25 22 24 17 16 18
43 44 45 46 48 50 51 52 52 53 54 55 55 56 58 58 59 58 57 58 57 56 57 56 54 51 51 47 43 43 47 46 42 39 39 36 33 30 27 23 18 18 15 16 18
42 44 44 45 45 47 48 50 52 54 56 57 58 59 61 62 64 61 62 62 63 63 63 61 59 54 54 53 49 44 51 49 47 41 40 40 36 34 32 27 18 13 16 16 18
41 43 45 48 49 51 53 55 57 58 60 61 62 63 65 69 67 67 70 69 66 66 67 66 63 61 59 57 54 51 52 55 54 50 44 42 37 37 35 30 23 14 13 15 16
47 49 52 56 57 58 59 63 64 66 68 69 70 71 74 75 71 73 72 74 75 73 72 69 68 67 64 65 62 56 55 59 61 55 47 45 41 38 38 35 28 22 17 15 15
53 56 59 62 64 66 68 67 67 69 72 72 71 72 76 75 73 75 76 77 76 77 77 74 72 71 70 69 67 64 60 62 68 60 53 52 47 43 39 38 36 30 24 18 15
62 62 62 62 60 55 53 53 52 51 48 49 51 51 56 56 57 56 64 69 70 71 76 76 74 74 72 70 66 66 64 63 68 65 58 55 50 49 43 41 38 39 33 25 20
48 41 36 35 33 34 35 36 40 43 40 38 40 43 45 48 52 54 54 58 61 62 61 59 64 71 74 73 73 74 70 64 63 70 63 59 50 55 48 45 43 41 41 36 30
31 32 31 34 34 35 36 37 39 43 37 41 39 41 43 41 45 50 47 47 51 55 55 54 50 53 62 67 71 74 72 66 67 73 67 61 54 53 49 46 44 44 44 41 37
25 26 26 31 31 34 37 38 40 44 38 43 44 46 49 50 51 52 46 47 47 45 49 53 51 51 55 56 58 61 64 68 74 77 71 65 57 55 51 47 47 45 45 45 42
25 27 28 32 33 35 38 41 44 48 48 46 49 51 52 53 55 57 55 54 52 50 52 50 51 58 57 56 56 52 51 61 72 79 70 70 63 60 56 49 45 48 44 46 43
30 31 33 34 36 39 40 42 45 47 49 49 50 52 52 54 57 58 58 60 61 59 61 56 58 58 56 58 62 55 60 61 61 68 58 60 59 63 61 50 46 52 46 46 45
34 37 38 41 40 42 44 45 47 49 50 52 54 57 57 57 57 62 61 62 63 64 66 64 65 66 62 61 62 56 72 64 62 62 57 46 43 60 63 56 51 56 51 46 47
41 44 44 48 47 48 49 50 52 53 54 53 55 56 54 52 54 55 58 60 62 63 63 65 70 73 72 71 68 65 68 65 64 64 54 52 44 40 60 62 58 59 51 47 49
46 49 51 52 52 53 54 55 55 55 55 53 54 52 50 51 57 58 60 61 64 63 61 62 63 67 72 75 75 73 75 73 67 64 56 61 50 38 54 56 61 59 53 50 51
51 52 53 54 55 56 57 57 56 55 56 55 53 55 55 53 60 65 67 68 64 62 60 60 60 66 70 71 75 77 78 74 68 63 58 59 51 49 58 49 51 56 59 53 54
54 55 56 58 58 58 60 59 58 56 57 57 59 58 63 64 63 72 76 76 71 62 56 53 54 62 67 68 71 72 72 74 73 70 64 56 46 53 61 54 52 55 60 60 58
58 58 59 61 61 63 63 62 60 59 60 59 59 63 67 69 72 75 79 79 73 64 54 49 48 54 62 63 64 66 67 71 74 67 59 48 48 47 63 62 57 54 60 61 60
61 61 63 63 65 66 66 64 64 62 61 62 63 65 70 72 77 80 82 84 72 64 54 52 43 49 55 57 57 62 63 66 66 66 51 50 45 58 68 60 57 56 55 60 62
67 67 67 67 67 68 68 67 67 65 63 64 65 70 73 76 80 84 85 82 70 60 56 50 43 44 50 53 54 57 55 58 61 59 49 49 48 58 60 57 52 53 54 54 60
71 71 71 71 71 71 70 69 70 67 66 66 69 72 75 78 82 84 87 80 68 57 54 46 44 43 46 50 51 54 52 53 55 55 49 49 51 56 54 52 50 54 54 55 56
74 74 74 73 74 72 71 70 72 70 70 70 75 78 79 81 84 86 84 76 67 58 49 43 41 41 42 44 46 48 49 48 49 47 52 51 51 55 52 50 49 54 56 55 55
76 76 77 76 76 74 74 73 75 74 71 74 78 80 83 84 86 88 79 71 67 57 45 40 39 36 38 39 41 44 44 44 44 46 48 50 53 52 54 50 51 53 56 53 53
80 79 79 79 77 75 74 76 77 76 77 78 78 84 86 86 87 87 77 65 64 52 41 35 34 32 32 35 38 29 23 14 21 36 45 46 48 49 49 48 51 54 52 49 49
83 83 82 81 78 77 77 78 78 81 78 80 82 85 87 87 86 82 72 66 55 46 34 28 29 31 30 28 28 30 20 6 28 22 24 42 44 43 47 45 47 42 42 44 46

GFSSW_250_spd_087.txt.gz
Wind_Speed
32 33 33 33 34 35 36 37 38 40 41 44 45 45 47 48 48 49 49 48 46 44 44 46 45 43 42 43 39 40 40 41 37 36 33 31 31 31 33 29 23 21 21 19 19
36 37 37 37 37 37 38 40 42 45 47 49 50 50 51 51 50 51 50 51 50 49 49 49 49 50 49 43 42 40 41 43 39 35 34 30 30 30 31 28 23 19 19 18 19
37 37 38 40 41 42 43 46 47 48 49 49 51 53 54 54 53 53 53 54 55 56 53 50 50 50 51 48 45 42 42 43 43 39 34 33 33 30 31 27 25 20 16 17 18
37 38 40 41 43 45 46 48 48 48 50 51 52 54 56 57 59 56 57 58 59 59 59 58 56 52 52 52 49 44 48 45 49 44 39 35 33 32 30 31 26 22 16 15 17
36 38 38 40 40 43 45 47 49 51 53 54 56 58 60 62 63 62 64 65 64 64 63 63 61 57 54 55 52 49 50 49 52 49 44 40 36 34 33 31 28 24 20 17 15
39 40 42 41 42 44 46 49 53 56 58 60 62 64 64 63 64 64 67 68 68 67 67 65 65 64 61 60 57 55 52 52 58 53 48 44 42 36 35 35 31 29 26 23 16
41 43 43 45 48 51 54 56 59 61 62 62 63 62 58 56 58 57 59 60 63 64 63 65 66 68 66 66 62 59 56 54 61 61 54 47 43 43 37 39 33 31 29 27 25
45 47 49 51 54 57 58 60 59 56 52 47 45 44 43 43 45 46 46 47 49 50 53 52 52 56 60 64 66 66 61 58 65 64 59 52 41 46 39 38 37 34 31 31 29
50 53 54 56 54 53 49 44 39 35 36 38 40 42 42 43 43 43 43 43 45 48 48 48 50 52 53 54 55 59 62 64 66 68 64 57 47 52 43 38 42 39 35 33 32
54 53 49 43 36 35 36 37 38 35 35 36 35 37 41 42 43 41 41 42 43 43 45 46 44 45 50 50 49 52 52 58 65 67 66 59 51 49 48 39 41 40 42 36 34
36 29 31 32 29 29 28 30 31 27 31 34 36 39 41 42 46 45 46 47 48 48 48 45 42 46 49 53 53 52 49 48 59 65 64 62 54 53 51 43 42 43 44 40 34
29 24 23 23 24 27 29 30 31 30 33 39 41 43 46 48 49 52 52 52 54 54 54 52 48 49 50 51 50 53 55 53 57 55 54 61 56 55 50 47 43 43 42 43 38
23 20 21 25 26 29 32 35 37 37 37 41 46 48 50 51 51 52 53 53 53 52 52 51 52 55 55 53 53 53 54 59 61 57 54 49 47 55 55 51 49 47 45 43 43
26 25 27 29 32 35 37 39 41 42 42 45 48 50 50 53 53 51 50 47 47 47 49 51 56 59 61 59 61 57 62 62 59 58 57 47 38 41 51 56 55 52 49 48 49
32 31 34 35 36 39 42 43 44 46 47 48 51 51 51 51 53 51 46 44 45 45 47 52 56 61 64 65 67 61 68 65 61 57 53 53 44 40 39 43 57 57 55 53 51
38 39 40 42 43 43 45 46 47 51 52 52 55 55 54 54 53 52 50 50 52 52 52 57 61 65 69 68 69 68 68 68 68 63 55 56 49 42 43 44 44 53 60 57 55
45 46 47 47 48 49 48 49 50 53 55 57 60 58 56 58 59 56 55 53 54 55 57 62 66 69 72 71 70 71 71 71 71 70 59 63 52 41 48 51 50 49 54 60 57
49 51 52 51 51 51 52 53 53 55 58 59 61 60 61 60 60 61 60 58 56 57 59 62 68 76 73 68 69 72 69 69 68 69 63 64 48 43 52 56 57 48 44 52 57
55 55 55 55 56 56 57 57 58 60 62 63 64 64 64 64 63 64 63 64 64 63 63 65 71 73 70 66 65 65 66 67 66 68 65 59 52 49 53 55 56 49 48 47 50
59 59 59 59 60 61 62 62 63 65 66 66 67 67 68 68 67 66 66 67 71 68 70 72 72 70 63 60 61 60 62 62 60 62 57 52 48 49 57 59 55 53 53 49 46
61 62 62 63 64 65 65 66 68 68 69 69 68 69 69 69 69 69 70 73 72 78 77 77 74 68 60 55 54 56 55 56 55 54 44 45 45 57 61 63 60 56 51 51 50
65 65 66 67 68 70 70 70 71 71 72 71 71 72 72 70 70 71 75 75 77 75 80 81 73 63 56 53 47 49 49 50 49 45 42 45 43 56 58 60 60 55 49 50 53
70 71 71 72 73 74 74 75 76 75 74 74 74 74 74 72 71 73 76 81 80 81 80 80 72 61 56 47 42 44 44 45 45 42 37 35 44 51 54 58 61 58 53 52 52
75 75 75 77 78 77 77 79 79 78 77 77 77 77 76 74 72 74 78 84 87 84 81 76 66 61 54 43 41 39 37 40 38 38 39 33 43 51 53 55 59 56 56 53 51
80 80 81 80 81 80 82 83 82 80 80 79 79 79 78 76 76 79 81 84 88 88 78 70 60 53 46 41 34 30 31 30 28 27 28 39 41 44 49 52 56 56 57 55 52
84 84 84 84 83 84 85 85 84 83 82 81 80 80 79 78 78 81 86 87 88 85 75 63 54 47 40 35 26 21 24 19 18 19 19 17 30 35 44 48 55 57 58 55 53
90 89 88 88 87 85 85 86 87 86 84 82 81 81 80 80 81 83 86 89 86 79 68 58 47 42 36 27 11 13 15 24 18 14 11 4 19 32 30 34 47 51 55 53 52

GFSSW_250_spd_093.txt.gz
Wind_Speed
27 28 28 28 28 31 34 35 35 34 35 36 37 38 38 38 39 40 42 43 44 45 46 45 46 45 43 41 39 38 41 41 40 38 35 33 31 27 24 20 15 15 10 16 15
30 29 30 32 33 35 37 36 38 37 38 39 39 39 41 42 42 43 45 45 47 48 48 48 48 48 45 42 42 40 41 41 42 41 39 36 35 32 28 26 21 15 13 8 14
32 33 34 35 37 37 38 38 38 38 40 42 43 44 44 46 48 52 52 52 52 50 49 46 44 45 45 45 44 44 45 42 42 44 44 41 37 36 33 30 29 23 17 12 7
36 37 39 37 36 37 36 38 40 42 43 44 44 46 49 52 54 54 53 50 46 42 37 34 35 37 37 38 40 42 43 43 45 45 46 42 41 37 36 33 31 32 26 20 14
37 37 36 36 37 37 39 40 40 41 44 46 48 51 53 53 48 43 35 33 33 33 34 34 35 35 35 36 36 36 39 38 41 43 48 44 42 40 40 39 35 31 33 29 22
34 36 37 39 40 41 41 40 43 46 50 51 51 51 46 37 34 37 36 33 31 30 31 32 31 33 34 35 35 38 36 38 37 41 43 46 43 42 43 43 40 37 33 35 30
37 39 41 43 43 41 39 44 49 51 52 50 43 33 31 33 28 30 31 33 34 34 34 34 35 36 36 35 35 35 35 36 36 33 37 40 43 46 45 45 45 41 38 34 37
42 43 43 40 40 41 45 49 52 51 44 33 32 29 26 26 26 26 28 30 31 33 34 34 35 37 38 41 40 37 34 31 34 31 32 33 39 40 44 46 45 45 40 40 36
44 42 41 40 42 46 49 50 45 33 31 27 25 25 25 25 27 28 29 30 32 33 35 36 36 36 39 39 36 35 31 31 31 32 33 31 33 37 39 44 47 49 46 43 41
39 42 44 46 46 48 48 38 31 25 23 23 25 26 26 27 29 31 31 32 34 37 38 41 42 41 41 39 38 37 34 32 33 34 32 33 33 36 36 38 47 50 50 47 45
44 48 49 48 47 46 34 30 23 22 25 27 29 30 33 33 33 33 35 36 37 39 41 43 47 44 43 44 42 42 40 36 38 38 36 37 36 39 38 36 42 50 53 53 50
48 50 49 47 43 31 28 23 23 26 29 31 33 34 35 36 37 38 39 39 40 43 44 47 47 48 48 47 46 47 46 46 44 45 46 41 38 42 42 43 38 44 51 53 56
48 48 46 38 32 28 26 26 28 30 31 36 38 39 38 39 39 40 42 44 45 46 48 50 51 49 48 51 51 51 51 49 49 50 50 51 46 45 46 46 43 44 47 56 59
47 42 37 33 30 29 30 31 33 34 36 41 42 44 43 41 42 44 45 47 48 50 53 54 55 56 56 55 54 53 53 51 52 54 54 59 53 52 49 50 50 49 50 51 60
38 35 33 32 32 32 34 36 38 40 41 43 45 46 46 47 47 45 49 49 51 52 52 57 58 58 58 59 59 56 56 56 57 59 60 58 66 52 55 52 53 53 54 54 53
35 34 34 34 36 38 39 42 43 44 45 47 47 47 48 50 51 52 50 50 52 56 56 60 61 62 62 64 63 61 60 60 64 68 68 67 69 56 55 53 54 57 61 59 50
38 38 38 40 41 43 45 46 48 49 50 49 50 51 53 54 53 54 55 53 54 57 61 63 64 65 65 66 66 63 61 63 69 75 73 68 64 49 49 57 57 58 56 53 55
42 43 44 45 46 48 50 52 52 53 53 54 55 55 57 58 58 59 59 60 55 58 64 67 66 68 71 68 67 63 66 69 76 77 72 62 58 39 45 51 48 54 60 60 59
49 50 51 51 52 54 55 57 55 56 57 58 59 60 59 60 64 63 62 61 61 63 65 68 68 71 74 72 70 68 70 75 77 70 64 53 49 37 43 47 50 55 61 68 55
56 57 58 58 59 60 59 58 59 60 61 63 64 64 65 64 67 65 66 63 64 68 68 72 69 73 73 75 72 73 76 81 76 60 44 42 36 34 42 48 51 56 62 62 63
63 63 65 64 62 62 62 62 64 65 66 67 68 68 68 68 68 68 69 70 66 70 73 72 73 74 76 76 75 77 82 83 63 47 42 30 25 34 43 46 48 57 59 62 68
69 68 70 69 69 69 68 70 70 70 71 71 72 71 71 71 71 72 73 72 73 73 73 76 76 76 76 75 74 79 83 79 51 44 39 22 20 15 29 42 49 59 49 65 67
76 76 76 76 76 76 76 76 76 76 76 76 76 74 74 75 74 76 77 77 77 76 72 76 81 79 77 77 76 81 76 62 52 39 28 21 12 10 9 25 50 46 53 62 62
83 83 82 83 83 84 81 83 82 81 79 78 78 77 78 78 78 79 81 82 81 76 76 78 82 81 79 75 78 80 70 53 43 34 21 23 18 23 8 16 37 42 48 54 54
90 89 90 88 89 89 86 86 85 83 81 81 81 82 81 83 83 84 83 81 80 79 80 80 81 81 80 79 80 81 64 48 37 27 36 30 25 35 27 38 31 36 39 45 50
94 93 92 91 91 90 89 88 88 87 85 86 85 86 86 86 85 84 80 82 82 84 81 80 80 80 80 81 82 76 60 46 36 26 36 45 53 49 25 29 30 28 32 36 44
95 95 95 94 95 95 94 92 92 91 89 89 86 86 87 84 85 84 84 85 84 84 85 81 78 80 82 81 83 68 54 43 29 23 32 45 50 34 16 8 8 10 19 27 37

GFSSW_250_spd_096.txt.gz
Wind_Speed
25 25 26 26 26 26 29 31 34 37 37 38 38 39 40 40 40 40 42 44 48 49 49 47 46 44 41 38 37 35 35 34 28 23 36 39 35 31 30 25 17 10 7 5 12
28 27 28 29 28 30 33 36 38 38 37 38 40 41 40 42 42 45 48 51 50 46 41 38 36 33 30 29 31 31 35 35 33 28 41 43 36 35 33 30 25 21 16 12 7
30 31 31 30 31 35 37 39 38 38 38 39 38 40 44 47 48 49 49 43 34 31 31 30 28 29 29 30 28 28 29 31 37 38 41 42 39 37 36 36 31 27 23 19 11
32 32 33 36 37 38 38 37 39 40 39 41 40 44 49 51 50 47 36 30 30 27 26 26 26 27 29 29 30 27 28 28 30 35 39 42 41 40 38 39 38 29 32 27 21
35 37 39 39 41 39 39 40 42 41 41 41 45 49 52 50 40 31 28 23 24 24 24 25 26 27 28 30 31 30 29 28 28 29 32 36 37 41 42 41 41 36 30 33 28
36 37 35 35 39 40 42 43 43 41 40 45 49 50 44 31 29 24 23 23 23 24 25 26 27 28 28 28 29 28 28 28 26 27 26 26 33 34 39 44 42 40 36 33 34
37 37 37 39 43 43 43 42 40 41 45 48 48 37 28 23 23 25 24 25 25 25 25 27 29 30 29 30 27 29 27 28 26 24 27 29 31 30 31 34 44 42 43 37 35
41 40 40 43 44 43 41 41 43 47 48 46 33 26 22 21 22 23 25 28 28 28 28 29 31 32 34 35 36 33 32 30 29 27 23 26 29 32 31 31 31 43 43 42 38
44 43 43 44 43 40 42 45 48 49 44 34 27 23 21 22 24 26 29 29 29 30 30 32 33 34 36 37 39 37 35 35 34 32 27 26 29 30 31 32 32 33 41 42 42
46 46 43 41 40 42 46 50 50 44 34 28 25 23 24 27 28 29 30 31 31 32 33 34 35 37 38 39 40 40 37 36 35 37 33 29 32 32 34 34 32 35 38 41 41
47 45 43 42 44 47 50 49 45 33 28 25 26 26 29 30 33 33 33 33 34 35 36 36 39 39 39 41 41 41 42 41 42 40 37 33 32 38 37 40 37 38 42 40 44
47 46 46 47 49 49 46 44 34 29 26 27 29 31 33 35 37 38 37 38 40 40 39 41 40 41 43 47 45 45 45 46 44 44 40 40 38 39 41 43 45 41 42 42 47
47 48 50 51 50 48 44 35 31 28 28 32 33 34 36 38 40 40 42 43 43 44 43 44 44 45 45 47 47 48 49 49 48 46 43 46 39 43 47 48 51 48 45 47 48
50 52 52 52 50 45 39 33 31 30 30 34 36 37 39 41 42 44 43 46 46 48 48 50 50 49 49 53 53 49 52 53 53 49 42 53 42 47 54 57 58 56 53 55 53
54 56 53 51 46 39 35 33 33 34 32 36 39 41 42 45 43 43 50 48 49 52 52 52 53 52 52 54 55 53 55 56 59 55 49 49 60 49 58 66 69 61 57 60 60
55 53 52 45 40 37 35 36 37 39 38 40 42 44 47 47 48 50 47 49 52 54 57 56 56 55 55 57 61 58 59 61 64 62 53 58 66 62 65 67 65 60 54 62 52
55 50 44 41 39 39 40 41 43 43 45 43 48 49 50 50 50 52 55 56 52 55 58 60 60 57 56 58 60 59 61 62 65 64 60 64 71 72 66 61 59 56 54 54 43
48 45 43 43 43 44 45 46 47 46 50 51 52 53 54 54 54 56 58 60 57 57 60 60 61 64 64 65 62 59 62 68 66 64 63 72 77 65 54 43 44 49 40 50 42
47 47 46 47 48 49 51 53 50 54 56 57 58 56 59 55 61 60 61 63 65 61 63 60 60 64 66 66 67 65 66 71 74 70 68 74 62 60 47 40 34 34 40 43 37
52 51 52 52 53 55 57 59 57 61 60 61 62 59 62 63 63 65 67 67 67 65 65 64 62 67 68 68 67 68 70 69 71 74 71 69 56 42 26 32 33 31 27 21 28
58 58 61 59 60 62 63 63 64 64 65 64 65 67 67 69 70 73 74 74 69 68 66 67 68 68 70 68 67 69 73 75 72 75 73 63 53 37 22 5 2 16 5 11 33
66 66 68 67 68 69 70 68 70 69 69 72 72 73 74 75 75 77 79 78 72 71 69 73 71 71 70 70 69 72 73 73 73 74 73 50 41 19 8 20 29 23 18 9 41
74 75 71 75 75 75 75 75 76 76 76 76 78 79 81 81 81 81 81 80 77 76 72 75 74 72 70 74 73 73 75 71 74 78 70 46 38 19 22 31 28 40 23 25 43
82 83 81 82 82 82 83 81 82 82 84 82 84 85 85 85 84 82 82 82 82 80 77 76 73 73 72 73 77 76 73 75 75 73 64 41 33 21 32 33 30 24 28 8 49
89 89 89 88 88 89 89 89 89 88 87 87 89 89 88 86 86 85 85 84 84 82 79 77 74 75 76 75 77 76 73 74 75 69 54 41 17 34 43 35 30 29 20 24 55
91 92 91 94 93 91 93 94 93 92 92 90 90 91 92 90 88 87 87 84 84 83 81 80 78 77 78 78 76 76 74 73 71 59 44 28 27 32 38 32 39 34 30 38 35
93 93 93 94 95 96 96 94 93 94 94 94 92 91 90 91 87 89 87 87 86 84 84 84 82 80 77 78 75 74 73 71 67 36 38 20 32 25 41 36 31 32 33 29 33

GFSSW_250_spd_099.txt.gz
Wind_Speed
22 21 22 23 24 25 27 29 31 34 38 38 38 37 37 37 40 43 46 47 47 39 28 26 26 23 19 19 22 27 26 23 20 18 28 20 27 26 32 35 21 15 15 10 8
25 24 25 26 27 28 29 31 36 38 38 39 41 38 39 39 43 48 48 43 31 27 25 22 20 19 19 18 20 24 27 26 20 14 25 34 37 39 42 29 21 23 18 14 11
26 27 27 28 30 31 33 37 37 39 39 41 42 41 39 43 47 48 38 29 25 22 23 21 21 22 21 22 21 21 27 27 27 26 20 24 30 34 31 30 18 24 28 18 15
28 28 28 30 32 36 37 39 41 40 41 41 41 40 42 48 47 35 26 20 18 19 20 20 20 21 21 20 19 20 21 25 28 27 28 27 27 28 28 31 21 24 28 25 21
29 30 31 32 36 39 40 39 39 41 41 38 38 42 46 48 38 27 19 18 19 19 19 19 21 21 21 20 20 19 18 19 21 27 30 29 29 29 30 28 26 23 24 32 26
31 31 32 35 37 37 37 39 40 40 37 37 41 45 48 38 28 21 20 21 22 23 24 23 22 21 22 20 20 20 21 20 19 20 22 25 28 27 28 29 30 21 25 29 32
34 33 36 38 39 39 40 42 38 38 36 39 44 47 40 30 24 21 21 24 25 26 25 25 24 24 25 24 23 23 25 24 23 23 22 22 25 22 23 23 29 22 19 27 31
39 41 41 42 43 42 42 41 38 37 39 43 45 42 32 25 22 23 25 25 27 28 27 28 27 27 28 29 28 27 25 29 26 27 26 23 28 26 24 24 22 26 20 22 26
43 44 44 46 46 43 43 39 38 40 44 45 41 33 25 22 23 23 26 28 29 29 30 30 30 30 30 31 32 31 30 27 31 28 28 27 24 30 29 27 28 28 23 21 25
47 48 49 49 48 45 42 41 42 44 46 43 37 27 24 23 24 27 29 30 31 31 33 34 33 33 34 33 34 35 33 30 29 32 31 32 29 28 29 31 32 29 32 22 19
51 52 51 48 45 43 42 43 45 47 46 42 33 26 25 24 26 29 31 32 32 32 33 34 35 36 37 38 37 37 37 36 36 37 36 37 35 33 32 33 31 34 32 32 30
52 51 50 47 44 43 44 46 48 49 46 38 30 26 26 28 30 32 33 35 34 34 36 36 37 38 40 42 43 42 40 40 39 39 40 40 40 41 36 34 37 36 40 37 37
50 50 47 46 46 47 48 50 49 48 42 36 29 27 30 30 31 33 36 36 35 37 39 40 41 42 44 44 42 43 42 43 41 41 44 42 41 42 42 42 43 44 46 45 42
52 50 49 48 48 51 53 53 51 45 35 33 32 29 32 32 35 37 38 39 38 41 42 44 45 46 48 50 50 48 50 48 45 42 47 50 40 43 44 47 51 52 55 54 51
54 53 53 54 55 55 55 52 50 42 33 33 38 34 35 36 37 42 45 42 42 45 48 49 50 51 52 54 53 52 51 51 50 47 46 57 52 41 47 55 57 60 64 61 57
60 59 59 59 58 56 53 51 45 39 34 35 39 38 39 40 43 43 45 49 47 47 52 55 55 54 55 55 55 53 53 54 52 50 51 56 61 52 55 62 65 60 50 48 35
62 62 61 59 57 54 51 46 41 38 36 39 43 42 43 44 46 47 52 50 47 45 51 58 60 60 61 58 57 58 56 52 53 53 57 60 63 62 57 65 60 38 24 19 22
62 60 58 56 54 50 46 43 42 41 41 47 45 46 49 48 52 53 54 56 53 51 55 60 63 65 67 65 62 62 63 61 55 54 55 61 63 59 61 66 50 22 9 31 35
60 58 56 52 50 47 46 46 45 47 49 48 51 51 54 53 55 59 59 60 58 56 60 64 63 68 68 67 68 66 65 64 63 61 60 62 67 62 63 60 39 1 40 40 45
54 52 53 50 50 50 51 51 50 50 55 54 57 58 60 61 59 62 65 64 64 63 66 70 66 72 68 69 70 69 65 63 68 65 61 64 68 62 64 48 21 20 44 44 38
56 54 58 54 55 55 57 56 57 55 61 61 63 64 66 68 67 68 71 71 66 68 69 71 73 69 71 71 70 68 66 68 69 69 68 63 63 62 56 32 11 32 50 48 43
63 61 63 61 63 62 63 62 63 66 64 68 69 71 71 72 73 73 77 78 74 75 75 77 76 72 71 74 72 68 67 66 67 69 71 64 65 59 47 16 21 48 53 47 42
72 71 67 71 71 70 71 71 71 74 73 73 75 77 78 79 79 79 80 84 83 81 79 78 76 73 71 75 71 69 70 71 68 66 67 60 65 48 32 23 40 53 50 46 50
80 79 76 78 78 77 79 79 78 79 80 83 81 82 84 85 85 85 85 86 87 85 81 80 79 77 72 71 72 72 74 72 73 71 66 66 52 33 17 35 48 48 54 60 53
85 83 82 83 84 84 85 85 84 85 85 84 85 88 88 86 87 86 85 85 88 87 84 82 78 76 74 75 73 71 71 73 75 74 70 63 53 42 24 41 51 42 39 28 24
85 84 85 86 86 85 85 86 87 88 87 87 86 85 87 90 89 86 86 90 87 89 86 84 78 77 76 79 77 75 74 75 75 72 69 59 58 40 27 44 52 50 36 28 22
88 87 85 87 87 88 88 87 87 88 88 89 91 89 89 92 89 90 89 91 90 89 89 87 85 83 80 81 79 79 76 75 74 66 56 57 42 35 20 49 48 48 46 38 21

GFSSW_250_spd_102.txt.gz
Wind_Speed
20 19 19 19 21 23 25 27 28 31 36 34 35 38 39 38 35 42 47 39 29 25 22 22 20 19 20 21 21 20 18 17 14 11 24 30 30 27 23 26 30 32 19 16 8
19 20 22 22 24 25 27 28 31 35 34 37 38 40 38 35 39 46 40 29 24 21 20 20 19 19 19 20 22 25 20 18 18 16 23 22 24 26 28 30 31 28 28 17 14
22 23 22 24 25 27 28 31 34 35 35 37 39 38 35 37 44 44 32 22 20 19 20 20 20 22 23 22 22 24 26 20 16 17 19 26 26 24 22 21 19 21 27 21 17
24 24 25 26 27 28 31 33 36 36 36 38 38 35 36 40 44 36 23 19 18 20 21 22 22 22 22 22 23 23 24 25 23 18 17 16 20 23 22 20 18 17 22 25 21
24 25 26 28 30 31 33 36 37 36 37 38 36 36 39 43 41 27 19 18 18 21 22 22 22 22 22 22 22 23 23 24 25 24 23 21 20 19 19 17 12 14 16 24 25
26 26 28 30 30 32 34 37 38 38 37 37 35 37 41 42 35 23 16 18 19 20 20 20 21 22 21 22 22 23 24 23 24 24 25 26 25 23 22 19 14 14 14 17 27
30 32 33 34 36 39 38 40 40 39 37 35 36 38 43 40 31 19 18 17 20 20 19 19 20 23 23 23 24 25 26 25 23 23 24 28 29 27 25 24 16 16 15 17 21
33 36 38 41 42 43 43 44 42 40 38 36 37 40 41 38 30 20 17 20 22 22 21 21 21 22 23 23 24 27 27 29 28 26 24 23 30 31 29 24 20 17 17 18 18
38 39 40 43 46 47 46 47 44 40 38 37 38 42 41 35 27 22 21 22 23 24 23 22 23 25 26 28 28 28 30 32 31 28 28 24 26 25 29 34 25 17 16 18 20
41 44 46 48 48 50 49 47 42 38 38 38 40 43 41 33 27 23 21 24 26 27 26 24 24 25 27 30 33 32 32 33 35 35 31 30 30 31 28 30 33 26 14 15 17
47 48 50 50 51 50 47 45 40 39 39 41 42 42 43 31 29 25 24 26 27 28 28 27 28 30 31 32 36 38 37 37 39 38 35 36 33 34 32 31 29 27 24 15 16
52 52 51 52 51 47 44 42 40 40 42 45 47 46 38 32 31 26 27 28 27 28 31 31 31 31 34 36 37 40 39 39 38 40 39 38 36 42 41 37 34 30 26 25 20
55 55 53 52 49 47 45 42 41 43 47 48 49 45 38 32 32 31 28 29 30 32 33 34 35 35 36 39 40 42 41 40 39 42 44 40 40 39 42 47 47 37 32 30 30
55 55 54 53 52 49 48 47 46 48 50 51 49 41 36 34 33 34 32 32 33 35 37 38 38 38 40 43 43 46 49 47 49 47 46 48 37 47 42 43 41 41 40 39 40
58 57 57 57 55 55 54 53 54 54 51 47 44 43 37 35 35 37 35 34 35 37 41 42 42 43 44 46 48 51 53 51 53 55 53 54 48 42 46 46 44 42 44 49 52
62 61 61 61 60 59 59 58 57 55 50 39 43 43 37 36 37 40 40 38 38 41 46 48 47 47 48 51 53 54 53 53 52 55 56 54 51 46 45 44 49 47 49 52 44
65 64 64 63 61 61 61 60 58 52 47 42 44 40 38 39 41 40 45 42 44 45 50 57 55 55 54 55 58 58 58 54 54 57 56 56 54 52 51 50 49 45 49 38 32
67 67 66 65 62 61 59 57 53 50 44 43 42 41 41 42 43 45 47 47 44 47 50 54 64 60 60 59 59 63 62 59 56 58 56 54 55 56 55 50 46 44 37 28 27
66 65 62 60 59 57 55 52 48 43 43 44 43 44 44 46 47 50 52 50 50 53 55 57 60 65 65 68 67 68 67 64 63 64 59 55 54 55 55 49 47 46 28 35 44
63 64 62 58 53 51 49 46 44 44 48 46 46 48 51 50 51 54 58 56 55 57 61 62 64 69 71 71 76 70 68 66 65 64 59 56 54 56 53 54 48 35 30 43 57
60 57 56 52 51 51 51 49 50 48 53 54 53 55 56 57 57 59 63 61 61 62 63 66 69 71 74 74 72 73 73 71 68 64 62 58 56 55 50 51 44 28 39 57 58
61 59 60 58 58 58 58 58 58 57 58 60 62 60 62 64 66 66 69 68 68 69 71 71 73 72 72 77 74 73 72 71 68 63 64 61 59 60 49 51 42 28 49 60 60
69 66 67 68 67 67 67 68 66 67 68 66 68 69 69 71 72 74 76 79 76 78 76 75 75 74 72 78 77 74 74 71 68 65 64 62 61 56 47 47 32 28 60 61 63
77 75 74 77 76 76 75 75 75 75 75 75 74 74 75 77 77 77 79 80 83 82 79 77 77 77 75 74 75 76 78 76 73 68 64 62 58 56 46 40 27 38 61 64 73
79 78 79 80 78 79 79 80 80 79 77 77 77 79 80 80 80 79 78 80 85 85 84 81 79 79 78 79 78 76 76 73 74 71 65 61 59 56 49 40 27 42 69 74 82
80 82 81 81 79 78 80 81 81 82 80 80 77 78 80 80 81 81 82 83 85 88 86 85 81 81 80 83 82 80 79 75 75 73 70 65 60 54 49 38 26 49 60 68 74
82 81 83 82 82 82 84 83 83 82 83 82 83 83 84 84 82 83 85 86 88 89 90 90 89 86 82 87 84 83 81 78 76 73 72 65 57 48 40 31 24 56 62 74 62

GFSSW_250_spd_105.txt.gz
Wind_Speed
18 18 18 18 18 20 23 25 27 29 33 34 35 37 39 36 36 43 42 31 22 20 21 21 23 24 24 26 26 23 21 21 16 12 16 23 23 24 30 29 26 27 29 23 21
19 19 19 19 22 22 23 26 28 32 34 34 34 37 38 35 38 42 36 25 22 21 22 23 24 25 24 24 24 25 23 21 21 19 18 18 15 14 15 19 23 26 27 28 23
20 20 21 22 23 23 24 26 30 33 35 34 36 36 35 36 39 39 30 23 21 22 23 22 22 22 24 24 25 26 24 20 19 19 19 20 19 14 16 15 18 19 24 25 22
23 23 22 24 23 25 26 30 31 32 34 35 36 35 33 35 40 38 27 20 19 21 22 21 21 21 22 24 24 24 24 24 22 16 16 20 22 19 15 14 14 15 19 20 23
26 26 24 23 25 27 29 30 32 35 37 37 37 35 33 34 38 35 25 19 19 20 21 21 21 22 22 20 23 24 25 26 27 25 21 19 19 19 18 13 14 11 16 21 22
26 26 25 26 28 29 31 34 36 38 40 41 40 37 33 35 39 34 23 18 17 20 21 21 23 21 21 23 24 25 25 25 25 27 28 27 26 23 20 17 17 16 13 15 21
28 28 29 30 32 34 37 38 39 40 42 42 40 37 34 34 37 35 25 19 17 20 21 20 21 21 21 23 27 29 28 28 26 25 27 28 27 27 26 21 17 18 18 16 19
30 31 32 32 34 38 39 41 42 43 44 43 40 34 34 35 36 34 27 21 18 19 20 19 19 20 21 23 25 28 30 32 30 29 29 33 31 30 28 26 21 19 21 22 22
34 35 37 38 38 40 42 44 45 44 45 42 37 33 33 37 39 36 30 23 21 20 22 20 20 20 22 23 26 29 31 35 34 32 32 31 35 33 30 29 27 27 21 22 26
39 39 40 40 42 44 47 47 46 46 42 39 36 34 34 38 39 38 33 28 23 22 23 21 22 22 24 25 26 29 32 35 38 36 36 37 38 38 34 31 29 27 27 26 23
43 44 45 46 47 49 49 49 46 44 40 36 36 36 37 39 42 38 32 30 28 25 27 25 25 24 26 28 30 31 33 37 42 42 42 41 46 45 38 30 29 24 24 20 25
49 50 50 52 52 52 51 50 48 43 41 38 38 38 41 42 42 39 33 32 31 28 30 29 28 29 30 30 32 32 33 37 42 44 43 42 44 48 43 39 33 27 24 25 24
55 54 54 55 54 53 53 51 48 46 44 43 43 44 46 46 43 37 33 34 33 31 33 33 32 32 33 32 35 38 36 37 39 44 45 42 45 44 44 44 41 40 34 27 28
60 60 58 58 56 54 52 52 50 50 49 49 50 48 46 46 42 37 35 34 35 35 36 36 36 37 35 35 37 41 40 39 41 47 49 48 43 47 48 46 41 42 44 40 35
63 62 61 58 58 58 55 54 53 54 52 54 52 50 49 43 38 37 36 36 37 39 40 40 39 40 40 40 41 43 43 44 46 51 54 53 49 49 49 49 47 45 44 45 44
66 65 63 61 60 60 60 59 57 55 55 55 54 50 44 40 38 38 38 38 38 40 43 44 44 45 45 44 44 44 46 48 51 54 54 51 51 51 52 49 46 44 45 46 44
68 67 65 64 63 63 62 60 58 57 55 54 52 48 42 39 38 39 39 38 37 42 45 48 48 47 49 49 50 48 49 51 54 57 56 56 54 56 54 49 46 47 46 49 53
71 70 68 68 66 66 65 61 56 54 52 51 48 42 37 37 37 38 40 40 40 44 47 52 57 55 54 52 51 55 57 56 56 57 55 57 56 55 56 54 53 51 49 50 53
69 68 65 65 65 63 61 57 53 52 48 44 41 35 36 37 38 41 41 43 44 46 48 52 58 66 66 59 57 61 61 62 60 59 58 57 60 59 57 59 54 53 52 46 51
66 65 61 62 61 60 58 55 52 49 45 42 40 39 40 39 41 45 46 46 48 50 53 56 59 64 68 67 65 64 66 66 64 63 59 57 61 59 61 59 58 55 52 46 48
62 61 60 60 59 58 56 51 48 46 47 48 46 44 45 47 48 49 51 52 52 54 60 63 64 68 73 71 73 73 70 68 66 65 63 58 57 60 61 60 55 50 50 45 45
62 60 60 58 56 55 55 55 53 52 53 54 53 53 55 55 58 59 60 59 60 62 65 67 67 70 74 75 72 73 74 71 68 66 66 61 56 58 59 57 55 48 48 43 41
67 64 65 65 63 64 64 63 61 61 61 62 63 62 62 65 67 68 69 67 67 69 70 69 70 71 74 76 76 74 75 73 71 68 67 64 61 56 56 56 51 50 42 41 36
74 72 73 73 72 72 72 71 70 70 68 69 70 69 69 71 71 71 73 73 72 73 73 72 71 72 74 74 75 80 80 80 77 73 69 69 64 59 56 56 52 48 42 36 31
75 76 75 75 75 75 75 74 73 73 72 73 72 71 72 73 74 74 70 73 76 76 76 75 75 75 77 78 78 78 79 80 81 80 76 72 70 64 59 58 51 44 41 33 28
77 77 75 75 74 75 76 75 74 73 73 72 70 70 71 73 75 72 72 75 77 79 80 80 79 80 80 83 84 81 83 82 81 79 79 75 73 67 59 55 48 39 37 35 29
82 82 81 79 78 79 77 77 76 75 76 75 74 74 75 77 75 74 76 78 79 82 85 84 84 84 81 86 84 83 86 86 84 83 80 77 73 63 55 47 44 37 35 34 29

GFSSW_250_spd_108.txt.gz
Wind_Speed
18 18 16 16 18 20 22 24 26 28 31 34 33 36 36 34 35 38 37 27 22 22 23 23 23 24 25 25 25 25 23 21 20 17 13 10 11 16 16 20 20 21 17 21 22
18 17 18 18 18 19 23 25 28 29 32 32 33 35 36 33 35 38 37 27 22 22 23 23 23 23 24 25 24 23 24 25 22 20 18 13 11 11 11 14 18 21 20 18 20
19 19 19 19 20 23 25 27 29 31 31 33 35 37 38 35 32 37 36 28 21 20 21 21 22 23 23 22 22 23 23 22 25 24 24 21 18 16 13 13 13 17 19 20 17
22 22 21 22 22 24 25 27 30 31 33 35 36 38 37 34 32 34 34 28 21 19 21 21 21 21 21 22 22 24 24 23 22 23 25 25 23 19 20 20 20 18 18 17 17
27 25 25 26 25 25 27 30 31 33 36 38 40 39 40 32 30 33 34 30 22 18 19 20 18 17 17 19 21 22 22 22 23 25 26 25 26 26 22 22 22 21 24 24 21
27 26 26 26 26 28 29 32 34 36 38 40 41 40 39 31 27 30 34 33 26 21 18 19 18 16 16 16 18 20 22 24 25 26 25 26 26 25 24 24 22 21 19 21 22
28 26 25 27 29 30 32 33 35 38 39 43 43 42 37 28 27 31 33 31 26 23 20 18 20 17 16 17 19 19 21 23 24 27 28 26 27 27 31 30 26 22 21 22 21
30 28 29 30 30 33 35 37 38 40 42 44 45 42 36 31 28 29 34 34 28 25 23 20 20 20 19 19 21 22 25 25 27 27 31 32 30 32 27 27 25 24 25 19 21
32 32 33 33 34 36 39 40 40 42 44 44 44 39 34 31 30 32 33 35 30 27 25 23 22 22 21 22 23 24 26 27 27 30 30 34 35 28 26 27 25 26 27 29 25
36 36 36 37 38 40 42 42 43 45 47 45 43 38 34 32 33 35 37 35 31 30 29 26 24 25 24 24 24 26 29 30 31 32 30 31 35 36 32 29 28 25 26 29 33
41 41 41 42 43 44 46 47 47 48 49 47 45 40 38 36 37 40 39 37 34 31 31 29 28 28 27 28 26 27 30 32 34 38 41 40 39 41 38 36 35 31 25 26 31
46 46 46 46 47 49 51 51 50 50 48 46 44 43 43 42 41 40 39 37 33 33 34 33 33 31 29 31 28 29 32 34 36 39 42 45 46 46 43 40 38 36 33 28 31
53 52 52 53 54 54 55 55 53 53 50 47 46 46 46 45 44 42 41 36 33 35 36 37 38 35 34 34 33 31 33 35 37 40 42 43 44 44 41 40 39 39 36 33 31
58 58 58 58 59 58 59 57 56 54 52 49 48 48 47 45 45 44 41 36 34 36 38 39 40 39 38 39 37 35 36 37 39 42 45 45 48 51 48 46 43 39 38 38 36
62 61 61 61 63 62 60 58 56 56 54 53 53 52 48 48 47 44 40 36 35 38 39 39 42 43 42 42 41 40 41 41 42 46 48 49 51 52 51 51 48 46 43 43 44
64 64 64 64 64 62 62 59 58 57 57 56 56 52 51 49 46 42 37 34 36 39 40 39 42 44 45 44 43 43 44 44 46 49 53 53 54 52 52 51 48 48 46 45 47
66 66 65 66 66 66 64 62 61 60 60 59 57 54 51 47 44 39 35 34 36 40 40 41 42 45 47 46 44 44 45 46 49 52 56 58 56 55 54 54 52 50 50 50 49
69 68 67 69 69 68 67 65 63 61 60 59 56 53 49 45 39 36 34 33 36 40 43 43 46 48 47 44 44 48 51 52 51 55 58 59 59 58 56 55 53 51 50 50 50
65 64 65 66 67 66 65 63 60 57 54 54 52 48 45 40 36 34 35 35 37 39 43 47 51 53 52 48 48 51 54 56 57 58 58 59 60 60 59 57 57 55 55 51 48
62 60 61 62 61 60 59 56 56 55 53 51 48 45 39 35 35 37 37 39 41 44 47 48 52 56 58 59 58 59 61 61 61 61 61 59 58 63 62 62 61 59 59 53 48
60 57 56 56 56 55 53 52 52 51 50 49 45 40 39 41 43 43 43 45 48 49 53 56 59 61 64 65 66 66 65 65 66 65 63 60 59 62 62 62 61 59 59 54 51
62 58 58 55 54 54 54 53 52 50 49 47 49 47 47 48 52 53 53 54 55 57 59 62 64 65 67 68 68 68 67 68 66 66 67 63 62 64 63 63 60 57 57 54 51
67 65 65 63 62 61 61 59 57 55 55 57 57 58 57 57 60 61 62 62 62 62 62 63 65 66 66 67 68 70 70 69 69 69 69 69 66 66 63 63 58 54 51 50 49
71 70 70 69 68 68 67 65 65 63 63 63 64 64 64 63 64 65 67 66 65 63 63 64 65 64 65 67 68 71 75 75 73 73 72 76 68 71 67 65 58 53 50 47 46
74 73 72 70 70 70 71 68 68 67 67 65 65 65 65 66 67 68 67 67 65 65 67 66 64 66 67 69 71 72 75 78 78 80 79 77 76 74 73 69 64 58 49 43 41
78 78 77 75 73 74 74 73 72 71 69 67 65 65 66 65 66 68 67 66 68 69 70 71 70 70 69 74 74 74 78 78 79 81 81 81 79 77 75 69 64 57 49 40 37
82 82 81 80 79 78 78 76 76 75 74 72 71 69 70 70 70 70 69 69 70 73 76 76 76 75 72 76 77 78 81 82 82 84 84 84 82 79 74 66 58 52 45 35 37

GFSSW_250_spd_111.txt.gz
Wind_Speed
20 18 18 17 17 18 19 20 24 27 28 32 32 33 34 34 30 32 34 32 24 23 23 23 24 24 22 21 22 21 20 21 22 19 19 20 20 19 21 22 24 20 16 17 22
19 17 18 17 18 20 20 22 24 26 28 30 32 34 36 35 30 28 32 32 26 22 22 22 23 22 22 20 20 21 21 21 21 20 18 17 17 18 19 20 20 19 17 16 15
19 18 18 18 21 21 21 23 25 27 29 30 34 36 37 37 29 25 29 32 28 22 21 21 22 20 21 21 22 23 22 21 21 22 23 20 18 17 19 20 20 20 19 16 15
22 22 22 22 22 22 23 26 28 29 30 31 34 36 38 39 29 23 26 30 28 24 20 19 19 18 17 18 19 21 22 24 26 26 25 25 24 24 22 21 19 18 19 18 14
26 26 24 25 26 26 25 27 30 32 33 32 34 37 38 37 30 25 24 28 28 25 20 18 16 15 14 14 15 18 21 22 23 25 28 29 26 24 24 23 22 22 22 20 18
28 29 27 27 28 27 26 29 32 34 34 34 35 36 38 35 28 23 25 28 29 26 23 20 16 15 11 10 12 14 16 20 21 22 24 28 26 26 27 28 26 24 21 22 19
29 29 28 28 29 28 28 32 34 35 36 36 36 37 37 34 28 24 23 26 30 29 25 23 21 18 16 13 12 12 15 18 20 20 20 24 27 28 27 29 29 26 24 20 21
30 29 29 29 31 31 32 34 35 36 37 37 38 39 39 35 30 26 26 27 30 30 27 25 24 23 21 19 16 15 16 16 19 21 20 20 24 26 26 26 26 27 27 24 21
33 32 31 32 32 35 35 36 38 39 39 40 40 42 41 37 32 29 29 29 28 29 28 27 26 27 25 24 21 18 18 18 19 19 21 23 23 22 24 24 25 27 28 29 25
35 35 35 36 37 38 39 39 41 42 41 42 44 45 43 39 34 33 33 33 30 30 29 27 28 29 28 28 26 24 22 22 22 22 21 22 22 23 27 28 23 25 27 28 28
40 41 41 41 42 41 41 43 44 45 45 46 47 48 46 41 38 36 36 36 34 33 30 28 31 31 31 31 30 29 28 28 29 28 27 26 26 30 31 35 36 35 33 31 28
47 45 44 44 45 45 46 46 48 49 50 50 50 50 47 43 40 39 40 38 37 38 33 30 32 34 34 33 33 33 32 31 33 34 34 34 32 34 37 37 37 36 37 34 33
52 51 50 50 50 51 50 50 51 52 52 53 53 51 47 45 43 42 42 41 41 39 34 32 33 36 36 36 35 35 36 34 35 37 38 38 37 35 36 37 37 36 37 35 34
56 55 55 56 55 54 54 54 55 55 54 52 53 51 48 47 46 45 44 44 43 39 36 34 34 35 37 37 37 38 38 37 36 38 39 39 40 40 42 42 43 42 41 40 38
58 58 59 60 61 59 58 57 56 58 56 55 55 54 52 50 48 48 48 46 43 40 36 35 36 36 37 38 38 37 37 37 37 39 41 40 41 43 45 45 44 45 45 44 42
62 60 59 61 59 58 59 58 58 58 59 58 57 56 55 54 52 51 49 46 43 39 36 36 37 37 37 37 37 37 38 39 41 41 43 44 46 48 48 48 48 48 47 47 46
64 65 63 62 61 61 61 61 61 62 61 61 61 59 56 52 50 49 46 43 40 38 35 36 37 37 37 38 37 38 40 40 41 44 47 49 52 50 49 50 50 48 49 48 49
64 65 66 67 65 63 63 62 62 61 62 61 60 57 54 50 48 45 41 38 36 37 36 36 37 38 39 37 38 40 42 43 44 48 52 55 55 55 54 52 51 48 48 50 50
67 65 64 64 63 61 60 59 58 58 57 56 55 51 47 45 42 41 38 35 35 36 38 40 40 39 39 39 41 43 47 49 51 52 54 56 56 58 54 54 55 54 53 51 51
64 62 60 60 59 58 57 55 55 54 52 51 47 45 42 41 40 38 37 36 38 40 42 43 43 45 47 49 50 52 53 54 55 55 55 55 55 58 55 56 57 60 59 58 55
64 61 60 59 59 59 56 53 50 49 46 46 44 43 42 41 40 39 39 40 42 44 46 47 50 51 55 56 56 56 58 59 59 59 58 55 56 59 56 57 60 61 62 62 62
65 61 60 59 58 58 57 55 51 50 49 47 46 44 43 43 44 45 46 47 48 50 52 54 54 56 58 59 60 61 63 63 60 59 60 59 59 61 59 59 61 62 63 64 62
63 62 62 62 62 62 62 60 57 56 55 54 54 54 53 52 53 54 56 56 55 56 55 55 56 58 59 60 60 61 64 65 62 62 62 62 63 66 61 63 63 61 64 63 63
68 67 68 67 67 66 64 63 62 60 59 59 58 59 58 58 59 60 62 61 60 59 58 57 58 58 59 59 60 62 64 67 66 65 63 68 63 70 67 66 64 63 63 62 60
71 71 70 69 69 68 67 65 65 64 62 60 59 59 59 60 60 62 62 61 61 60 60 59 58 59 60 62 63 64 67 71 69 69 67 69 70 72 73 70 70 67 63 60 56
76 75 72 70 71 73 72 70 71 70 70 68 66 64 64 64 64 65 66 65 64 64 65 64 63 64 62 66 66 66 71 71 72 73 73 72 75 76 75 73 72 68 63 57 52
83 79 80 79 78 78 77 77 75 75 74 72 71 70 69 69 69 69 69 69 68 69 70 68 69 67 67 70 70 71 74 75 76 76 76 76 77 76 77 74 69 66 54 46 44

GFSSW_250_spd_114.txt.gz
Wind_Speed
19 19 18 18 17 18 16 19 21 23 26 29 29 31 32 33 26 21 26 30 28 23 21 21 19 19 19 20 19 19 21 20 20 18 17 17 17 16 16 15 15 15 13 12 11
20 19 19 16 17 18 18 20 20 23 25 29 30 31 32 32 27 22 23 26 28 27 21 19 17 17 17 18 19 21 23 21 19 18 19 18 17 16 16 16 16 15 13 10 11
22 20 19 18 18 20 19 19 21 23 25 29 32 31 31 32 28 23 21 23 26 26 24 19 16 15 15 15 16 18 20 22 24 22 16 16 16 16 15 15 14 13 13 15 11
25 23 21 20 21 22 22 21 24 24 26 29 32 31 30 31 28 22 21 21 23 25 24 20 16 13 12 13 13 15 17 18 19 20 18 18 17 17 17 17 17 18 15 12 16
26 25 24 23 23 24 25 25 26 26 27 30 31 31 30 31 30 25 19 20 22 23 23 22 18 16 13 11 12 14 14 16 16 16 16 17 18 19 20 19 19 18 18 17 15
29 28 27 25 26 27 27 26 27 28 29 31 31 31 31 31 31 27 24 22 22 23 21 21 19 16 15 15 14 15 16 16 16 15 17 18 20 22 23 23 22 21 21 19 17
30 29 28 27 28 28 28 28 29 31 33 32 33 33 33 33 31 27 23 24 25 24 21 21 21 19 16 16 16 15 16 16 15 12 14 17 21 24 24 24 24 23 23 20 17
30 30 29 29 29 29 30 31 32 35 35 34 35 36 34 34 34 31 25 25 25 25 24 24 23 22 19 17 17 19 17 17 16 15 14 14 17 19 23 25 25 25 24 24 22
31 31 29 32 32 33 33 34 35 37 38 38 38 37 37 37 36 35 30 27 27 27 26 26 27 26 25 21 19 20 22 21 20 20 20 18 18 18 20 21 24 24 25 26 25
32 32 33 33 34 36 37 38 39 40 41 42 42 41 40 40 39 36 33 30 29 28 28 29 30 28 26 25 25 23 24 23 23 22 24 24 23 23 24 24 23 25 24 26 25
37 36 37 37 38 39 40 40 41 42 44 44 45 44 44 43 41 38 35 33 31 30 30 32 32 30 29 28 29 29 29 27 26 25 26 26 26 26 27 27 29 31 32 31 30
39 41 41 42 43 44 43 43 45 46 47 48 48 47 46 46 42 39 38 36 34 32 34 34 33 32 30 30 31 32 31 31 30 30 30 29 30 29 30 30 31 33 32 33 32
45 47 47 47 47 47 48 49 50 50 50 49 50 51 49 47 45 42 41 39 37 35 36 36 34 32 31 31 32 34 33 33 32 32 32 32 30 32 32 34 35 35 36 35 36
51 52 51 51 52 51 52 52 52 54 54 53 53 52 51 49 48 46 45 44 41 39 37 36 35 33 32 32 33 33 33 32 32 33 33 33 34 33 33 35 37 38 40 41 41
55 55 56 56 55 55 55 55 55 55 54 54 54 53 53 52 52 51 49 48 44 40 39 37 35 33 33 33 32 32 34 34 34 34 34 35 36 33 35 36 39 40 41 41 40
61 60 60 60 60 59 59 57 56 58 57 57 58 57 57 56 54 53 52 48 43 39 38 35 34 33 33 32 32 32 32 34 35 37 35 38 39 38 40 40 41 42 43 42 41
65 65 63 62 63 62 61 60 60 60 60 61 61 59 57 56 53 51 49 46 41 39 38 35 33 33 32 31 30 30 33 34 36 37 40 41 44 45 43 45 46 46 45 45 46
67 67 66 65 63 62 61 62 61 61 60 59 59 57 55 54 52 48 44 40 39 38 36 36 34 33 31 30 30 31 34 36 38 41 44 45 48 46 47 48 48 48 48 46 46
68 69 67 67 65 64 65 62 59 59 58 58 57 56 53 49 46 43 41 38 39 39 38 38 33 32 32 32 34 34 39 42 44 44 47 48 51 50 51 50 50 51 51 51 51
68 68 70 69 68 66 62 60 58 59 57 57 55 52 48 45 42 40 38 37 38 40 39 37 36 36 36 38 40 43 45 46 47 48 49 52 52 53 53 49 51 53 53 55 54
69 68 68 67 66 65 63 61 59 59 55 53 49 47 45 44 43 41 38 37 38 38 40 41 42 37 44 45 48 49 49 52 52 51 52 52 54 52 53 53 55 56 56 59 60
70 68 68 67 66 66 64 62 59 56 54 51 50 50 51 51 49 47 45 44 43 43 44 46 48 51 50 51 53 54 55 55 54 54 52 53 55 55 59 55 56 58 61 63 64
71 69 70 68 67 66 65 61 56 56 55 53 54 54 54 53 52 51 51 50 49 48 48 49 52 55 57 57 56 57 58 59 57 56 58 57 60 58 56 58 59 61 65 65 66
71 67 66 64 62 62 61 60 60 59 58 58 58 58 55 54 53 52 52 51 50 49 49 49 52 52 55 56 56 57 58 60 61 60 59 62 60 62 63 64 64 64 66 66 69
70 68 68 67 67 66 65 65 65 62 61 61 61 59 58 58 58 58 57 57 56 55 53 54 53 54 56 57 59 60 60 62 62 63 65 65 66 66 66 65 65 67 70 71 71
76 74 72 70 70 70 70 68 68 67 67 65 64 63 64 64 64 65 65 62 61 59 59 59 60 59 60 63 64 63 65 66 67 68 69 69 68 68 70 68 68 71 72 73 70
79 79 77 75 75 75 74 74 74 73 72 72 72 71 70 68 69 69 69 68 67 66 65 67 67 66 67 69 71 70 69 71 72 72 73 73 72 73 73 73 73 74 74 69 67

GFSSW_250_spd_117.txt.gz
Wind_Speed
19 18 17 17 17 16 15 16 18 19 23 25 28 28 29 29 24 21 21 23 25 24 19 18 18 18 19 20 20 19 17 15 15 15 14 12 12 12 11 9 9 10 11 12 9
20 20 19 18 17 17 16 18 18 19 23 25 28 29 26 28 26 22 20 21 23 23 21 17 16 15 15 15 16 18 18 17 17 16 14 15 15 15 17 16 15 14 13 13 12
23 22 21 19 19 18 17 19 19 21 24 25 27 29 26 27 27 23 19 19 21 21 21 19 15 13 13 13 12 13 14 14 15 14 14 12 13 13 14 16 16 14 13 12 12
26 25 23 22 20 19 18 19 20 23 25 25 27 28 27 28 27 23 20 19 19 22 20 19 16 13 12 11 11 12 12 12 13 12 11 12 13 14 14 15 15 16 15 14 14
28 27 26 24 22 21 21 22 22 24 24 26 28 29 28 30 29 24 22 18 19 21 20 19 18 17 13 11 13 13 14 14 13 11 12 10 10 12 14 16 14 13 15 18 17
29 28 28 27 24 23 24 24 24 24 25 26 30 30 29 31 30 29 26 21 19 19 20 20 19 19 17 15 14 15 14 15 13 15 15 15 15 14 13 16 19 19 18 18 20
32 31 30 28 26 24 26 27 25 24 27 29 31 30 31 33 32 31 29 26 22 20 19 19 20 21 21 18 15 16 17 17 15 14 16 17 18 19 18 17 18 20 20 20 19
36 33 30 29 28 28 27 28 27 27 29 32 32 32 33 34 33 32 31 28 24 22 21 20 20 22 23 23 20 17 19 19 19 19 18 18 19 19 20 20 20 21 21 23 22
37 34 32 30 30 30 31 32 32 32 33 35 35 35 36 36 34 34 33 30 27 25 23 23 21 22 23 24 24 22 22 21 22 22 23 22 23 24 22 22 23 23 21 21 22
37 36 34 32 32 33 33 33 31 33 35 37 38 38 38 38 37 37 35 33 30 28 27 26 25 24 24 24 25 26 27 26 24 24 26 26 25 27 26 26 26 25 25 25 24
38 37 35 34 34 35 35 35 35 38 40 41 41 42 41 41 40 40 37 36 34 31 29 28 27 26 25 25 26 27 28 30 28 27 28 29 28 28 28 28 26 27 27 27 28
39 38 37 38 38 39 39 39 39 41 42 43 43 43 44 45 44 43 41 38 37 36 34 32 31 29 27 27 28 29 29 30 29 29 29 29 27 28 27 28 27 27 28 30 29
42 41 40 41 42 42 42 42 43 43 45 46 46 45 45 45 43 42 42 42 42 41 38 36 34 32 28 28 28 29 29 30 31 31 29 30 26 29 29 29 28 29 31 33 33
45 46 46 45 46 45 46 46 46 48 49 49 49 50 48 47 46 45 47 48 46 43 40 38 35 30 28 28 29 27 30 31 32 31 30 30 33 20 28 30 33 34 35 36 36
51 50 49 48 49 49 49 50 51 53 54 52 53 52 51 51 49 50 51 50 48 46 42 39 33 30 27 28 29 29 30 31 31 31 31 32 33 26 31 33 35 38 38 39 41
54 52 54 54 53 54 54 55 56 57 54 55 55 54 53 53 53 53 51 49 47 45 43 37 32 30 27 28 28 29 30 30 32 32 32 32 35 36 34 37 37 40 41 42 42
59 59 58 57 59 59 58 60 59 59 59 57 57 56 55 56 53 52 50 50 47 44 37 33 30 28 27 28 28 28 29 31 31 32 36 34 40 42 42 42 42 41 41 42 43
62 62 61 62 62 63 64 62 62 61 61 61 60 59 58 56 54 52 50 47 42 37 32 31 26 28 27 28 27 27 30 31 33 35 42 39 44 45 45 46 46 44 45 44 45
69 70 70 68 67 67 67 67 65 63 63 63 63 60 58 57 55 52 47 40 37 33 32 29 27 26 27 29 30 27 34 36 37 41 44 49 48 47 48 51 47 49 47 47 48
73 72 72 71 70 69 69 67 63 67 67 65 61 59 60 57 56 49 42 38 36 37 35 30 33 25 29 31 33 37 36 42 43 47 48 51 53 52 48 50 49 50 51 51 52
76 74 75 73 71 69 69 67 68 68 65 63 61 61 61 58 54 48 42 39 42 42 41 38 38 36 31 37 41 39 47 46 47 47 49 51 56 51 51 51 50 51 54 53 55
76 73 76 73 72 70 70 68 68 68 66 63 63 63 60 58 53 48 45 41 45 41 44 42 44 44 43 38 46 44 46 46 48 49 49 51 54 57 54 56 53 54 56 61 61
73 72 72 73 73 71 71 71 70 68 65 65 65 61 58 55 52 49 48 44 45 45 43 42 45 45 48 47 41 46 49 49 49 49 52 53 56 57 54 54 57 56 59 61 62
76 75 73 74 75 74 72 73 68 67 66 63 59 56 54 55 53 52 54 47 50 45 46 46 47 48 51 54 50 46 51 54 55 57 58 59 59 62 64 63 63 63 65 65 65
78 76 76 76 73 74 72 70 69 65 62 60 58 59 57 58 57 56 55 53 54 50 53 54 53 56 54 56 58 56 56 58 59 61 61 63 67 67 66 68 67 66 67 69 69
78 76 76 74 72 72 70 69 67 67 62 66 61 62 61 62 61 61 63 60 58 57 60 59 60 60 58 60 60 61 64 65 67 69 68 70 71 71 71 71 71 72 74 74 76
79 78 77 75 76 75 76 72 71 72 69 70 66 70 68 67 65 69 69 68 67 65 64 66 66 66 65 68 67 66 67 68 71 73 74 75 77 77 77 77 78 77 81 79 79

GFSSW_250_spd_120.txt.gz
Wind_Speed
19 17 15 15 15 15 14 14 16 17 19 24 26 27 26 29 27 23 21 21 22 23 22 19 17 16 15 14 14 15 16 12 11 11 10 11 12 13 12 11 11 9 6 9 11
21 19 18 17 17 16 15 14 16 17 19 22 24 25 25 27 27 23 21 20 21 21 20 19 16 15 13 12 10 10 12 11 13 14 14 15 15 15 15 14 14 14 14 12 11
23 21 18 18 19 18 16 15 17 17 19 22 23 25 26 26 27 23 22 21 20 20 19 18 17 15 13 13 14 13 13 13 13 13 13 13 14 15 15 16 15 15 15 16 16
24 23 21 21 21 20 18 17 18 20 21 22 23 25 26 26 27 26 23 21 21 20 18 17 17 16 16 14 14 15 14 15 14 12 11 11 12 13 14 15 16 17 17 18 18
27 26 25 24 23 21 20 19 20 21 22 21 22 26 26 26 29 27 25 22 20 20 19 17 16 17 17 16 17 16 15 13 12 12 12 11 12 13 14 15 17 18 19 18 19
30 29 28 26 24 23 21 21 22 22 23 22 24 26 27 27 29 28 25 23 20 18 19 19 18 16 17 18 17 18 17 16 14 14 14 15 14 14 15 17 18 20 22 22 19
31 31 29 27 26 24 23 24 24 23 24 24 27 28 29 29 30 30 27 26 24 20 19 19 19 18 16 19 20 20 19 19 18 18 18 19 19 19 18 18 19 20 22 23 23
34 33 32 31 30 27 26 27 26 26 27 27 27 28 30 31 31 31 30 27 24 24 21 20 19 20 19 18 21 23 23 21 21 20 21 22 22 21 21 21 20 20 22 22 22
39 38 36 35 33 30 30 29 28 27 28 27 28 30 33 32 32 33 33 32 29 26 25 23 22 22 21 21 20 24 25 26 24 24 24 24 23 23 22 22 23 22 21 23 23
43 42 41 38 36 33 33 31 29 30 28 29 31 33 34 33 35 36 36 35 32 29 27 25 26 25 25 25 23 23 25 27 27 27 27 27 27 25 23 22 23 24 25 23 23
46 44 42 39 37 36 35 34 32 31 31 31 33 35 36 36 38 38 38 37 34 32 32 31 31 29 28 27 26 24 26 27 29 28 29 29 27 27 26 22 22 23 26 24 24
45 43 41 40 38 37 36 35 35 35 34 34 35 37 39 39 39 42 41 40 39 38 37 36 35 31 30 27 26 26 26 26 28 30 29 30 28 27 25 24 24 24 26 25 26
45 43 43 42 40 39 37 38 38 37 37 38 39 41 41 41 43 44 45 44 43 43 42 39 37 32 30 28 26 25 27 27 26 29 30 31 30 24 29 26 26 27 28 29 31
46 45 45 44 43 42 40 41 40 41 39 42 43 44 46 45 45 46 46 45 46 45 43 39 37 34 29 28 27 25 28 26 27 28 31 29 33 23 22 30 29 29 29 33 33
48 48 47 45 45 44 44 45 44 44 44 43 48 48 49 48 48 47 47 48 48 46 43 41 37 31 26 26 27 27 28 27 27 29 30 30 30 25 21 28 31 34 35 34 35
51 50 50 49 49 49 49 48 47 49 48 48 51 52 52 52 51 50 49 49 49 47 43 39 32 26 22 24 26 27 28 27 27 28 28 26 34 29 23 32 35 39 40 41 39
56 55 55 53 53 52 52 51 52 55 52 51 56 54 54 55 53 51 52 50 48 47 42 37 26 22 21 22 25 26 28 28 28 27 31 26 33 39 38 39 43 42 41 42 42
59 58 57 57 57 57 56 55 56 58 57 57 60 58 58 57 54 54 54 51 49 48 42 33 24 22 20 23 23 26 31 28 31 31 37 30 36 37 44 45 49 49 47 43 42
63 62 62 61 60 60 59 58 60 61 62 63 62 62 60 58 58 56 54 50 50 51 44 34 28 23 26 30 26 23 31 31 32 34 38 42 46 44 44 47 49 48 47 46 45
68 66 63 64 64 64 63 65 66 65 66 65 64 63 61 61 58 58 54 53 52 50 45 36 34 29 22 37 29 34 30 34 37 39 42 47 52 49 45 45 44 45 46 49 51
69 69 67 68 69 69 69 71 69 67 71 65 65 64 62 64 59 56 57 54 50 49 45 38 35 40 28 32 37 35 37 38 41 43 45 48 55 46 47 46 47 45 46 50 54
76 76 71 76 74 74 74 75 70 72 69 68 66 65 64 62 63 58 62 54 46 52 40 41 41 39 38 34 34 39 38 42 40 44 45 47 53 51 50 51 53 51 54 55 57
82 81 78 79 78 78 77 75 72 72 70 69 68 67 65 64 63 61 62 53 45 47 39 47 44 43 43 46 39 36 45 45 47 47 48 50 53 59 55 55 58 57 59 59 61
82 83 80 79 81 78 76 75 73 72 70 69 69 68 67 65 63 60 58 50 42 46 45 48 47 47 48 51 49 47 47 51 54 53 53 56 58 61 62 61 65 67 67 67 68
84 82 77 79 79 76 77 75 73 74 73 70 70 69 67 65 62 56 55 54 44 49 49 49 50 51 51 53 57 55 55 55 57 58 60 61 65 67 66 66 70 72 72 73 76
82 79 79 80 77 78 79 78 77 76 74 71 69 69 66 63 59 59 55 56 57 47 54 57 57 57 56 59 59 61 63 65 64 66 66 67 69 73 69 71 74 77 77 82 82
82 84 84 83 82 81 81 79 77 74 75 71 68 68 68 63 61 63 63 63 62 59 57 58 62 63 62 66 65 64 68 68 70 71 71 73 75 76 77 77 79 83 82 86 86

GFSSW_250_spd_123.txt.gz
Wind_Speed
19 17 15 12 12 12 13 13 14 16 18 20 23 25 26 30 28 25 22 22 22 23 21 19 17 16 12 9 8 8 8 13 14 14 14 13 14 14 14 11 11 12 11 10 9
21 20 17 14 13 12 13 12 13 15 17 20 21 23 24 27 28 27 23 20 19 19 20 20 18 16 15 12 11 11 11 10 12 12 13 13 13 15 16 17 13 11 11 11 10
24 22 19 16 15 14 13 12 12 14 16 18 19 21 23 24 27 27 25 22 19 17 17 17 18 17 16 14 12 14 13 13 13 13 12 13 14 14 14 13 16 15 15 16 18
26 24 21 19 17 17 15 14 13 14 16 17 17 21 23 24 25 27 24 23 21 17 17 16 15 17 17 16 15 13 13 13 13 11 10 11 12 13 13 13 14 14 16 18 18
30 26 23 22 21 19 17 15 15 15 16 17 17 19 23 24 26 27 25 23 21 19 16 15 17 16 17 19 18 17 16 16 15 13 11 10 11 13 14 15 13 16 16 16 18
32 28 27 25 23 22 18 17 17 17 18 18 19 20 21 24 26 26 25 23 22 20 17 16 14 16 17 18 19 21 21 18 18 17 17 16 15 16 16 18 18 17 17 18 18
32 30 29 27 26 24 20 19 20 20 20 20 20 20 21 23 26 27 27 28 26 23 20 19 18 17 18 20 21 21 22 22 21 18 17 18 18 18 19 19 20 21 17 19 20
33 32 30 29 28 26 24 23 23 23 23 22 21 20 22 24 26 28 31 31 30 28 24 22 21 20 20 22 23 23 23 23 23 23 20 19 20 19 20 22 20 22 24 17 15
38 35 33 31 30 30 29 27 27 27 25 24 23 21 23 25 27 31 33 34 34 32 28 26 26 26 25 24 25 26 25 25 24 24 23 21 23 18 21 21 21 19 22 23 18
42 40 38 37 36 35 34 32 31 30 28 26 24 23 24 26 28 32 35 38 37 35 32 31 31 29 29 27 27 26 25 25 25 25 25 23 24 22 15 19 21 21 19 21 20
47 45 43 42 40 40 38 36 33 33 30 28 26 26 26 28 31 34 38 39 38 38 35 35 36 33 30 29 28 27 27 26 25 27 26 25 23 25 17 15 18 21 23 19 20
50 48 46 45 43 43 40 37 36 34 31 29 29 28 29 30 33 37 40 40 40 40 38 37 39 34 33 30 28 26 27 27 25 26 25 26 26 23 22 17 17 20 22 23 20
54 51 50 48 46 43 40 38 37 35 32 32 31 32 32 33 36 40 42 42 42 41 40 38 39 37 35 30 27 24 25 27 24 26 25 27 26 21 26 21 18 19 20 22 25
57 55 53 49 47 43 42 40 39 37 34 35 35 35 35 36 39 45 45 44 43 43 42 41 40 37 34 29 23 25 22 24 24 24 28 26 29 21 18 20 21 21 22 25 29
57 56 54 50 47 45 44 43 41 41 35 38 38 39 38 38 43 46 47 46 45 45 43 43 40 38 32 27 20 21 22 22 23 24 27 26 25 18 17 16 22 25 27 29 33
56 54 52 50 48 48 48 47 44 44 39 39 45 42 43 43 45 49 49 48 47 46 44 42 40 38 30 25 22 19 22 22 25 25 25 28 26 21 16 18 24 28 32 35 36
58 56 54 53 51 51 50 48 47 49 46 41 45 47 46 48 48 52 52 51 48 48 45 43 41 38 30 26 24 21 22 23 25 24 25 27 29 22 23 25 29 31 33 34 36
60 59 58 57 56 55 53 51 53 53 52 46 46 49 50 50 53 54 54 52 49 48 47 43 42 38 31 28 26 26 25 25 28 25 25 28 31 25 27 30 34 35 36 35 35
64 64 63 61 60 58 56 54 59 57 53 51 54 52 51 56 57 54 54 54 51 49 52 44 42 37 33 35 28 21 29 27 31 32 32 33 29 32 31 32 35 38 40 42 42
69 68 66 65 62 60 59 61 62 59 56 54 57 56 57 60 61 57 55 52 51 46 52 49 44 40 29 32 35 29 28 29 31 35 38 42 37 36 36 36 37 39 42 43 46
71 70 69 68 67 65 64 65 63 61 54 60 61 60 61 64 65 59 55 60 50 46 55 51 46 46 33 30 33 35 32 32 35 35 37 44 44 44 42 39 38 40 43 46 48
74 72 69 71 70 68 68 67 63 63 58 65 64 65 66 67 67 65 61 54 54 50 54 52 51 44 40 37 33 34 36 37 38 41 40 45 49 48 48 46 46 48 50 53 53
78 77 75 76 72 72 72 71 69 67 67 69 69 70 70 69 65 66 65 56 56 52 51 52 48 41 42 44 39 35 37 41 41 41 46 47 53 55 52 51 50 52 55 58 60
81 83 79 76 77 76 75 75 74 70 72 72 73 72 70 68 67 66 68 60 58 57 54 49 45 44 45 48 44 40 40 40 43 48 51 52 56 61 60 59 60 59 61 60 63
84 84 79 78 80 78 78 78 77 77 79 79 74 72 72 70 69 66 67 68 58 54 55 52 48 49 45 48 50 46 47 47 49 50 52 55 61 62 63 65 66 68 70 71 71
87 85 85 87 84 85 84 82 83 81 78 77 73 71 72 71 69 68 68 67 70 62 52 51 53 49 52 52 53 53 55 56 55 57 60 62 64 64 65 66 68 72 75 77 76
92 93 91 90 87 87 88 87 86 85 80 77 73 72 75 72 70 69 70 73 72 60 57 51 52 59 58 56 55 55 63 64 64 66 66 67 71 71 71 72 74 76 80 81 81

GFSSW_250_spd_126.txt.gz
Wind_Speed
17 13 11 9 8 7 9 11 11 14 16 19 21 24 25 29 30 28 26 22 18 17 16 15 15 13 10 4 8 10 12 13 12 12 10 12 14 13 16 15 14 14 12 11 11
19 17 15 11 8 7 8 9 9 11 14 16 18 21 23 25 28 29 27 26 23 19 16 13 13 12 10 10 10 9 8 12 13 13 13 10 12 14 12 14 15 13 13 13 13
23 21 18 16 10 8 8 8 9 10 12 14 15 18 20 23 25 26 26 25 25 23 20 18 15 13 12 12 14 16 17 18 19 17 14 12 10 12 12 10 10 12 13 16 17
27 25 22 18 13 10 10 10 9 10 11 13 13 16 17 20 23 24 24 23 23 22 22 22 21 18 17 17 16 17 17 17 18 18 17 14 12 8 13 15 11 12 12 14 16
30 28 25 22 18 14 11 12 11 10 11 12 13 14 15 18 21 23 24 24 22 21 21 21 22 24 23 21 21 20 19 18 18 18 17 16 14 12 12 16 17 13 14 12 12
33 31 29 26 22 18 13 13 13 11 13 13 14 14 13 16 20 22 25 25 25 25 22 20 21 22 23 23 22 23 22 20 20 19 18 17 17 13 13 15 18 19 16 13 9
37 34 32 29 26 23 18 16 15 14 15 16 15 14 13 15 18 21 24 26 27 27 24 23 21 22 24 25 26 25 24 22 21 21 21 18 19 17 15 14 14 16 18 17 15
41 37 35 31 29 25 21 19 18 18 19 18 17 17 14 15 17 20 24 28 31 29 27 26 24 26 26 27 26 27 27 26 24 21 22 20 20 22 18 15 14 11 13 15 13
42 38 35 33 30 27 24 23 22 22 22 22 20 20 17 15 18 21 25 29 32 32 30 29 28 29 29 28 26 26 27 27 26 24 21 22 18 21 21 19 19 14 8 8 13
43 40 37 35 33 31 28 27 27 27 25 26 24 23 19 18 19 22 26 30 33 35 34 33 32 31 32 31 28 25 25 28 26 25 22 21 20 17 23 21 20 20 16 8 8
46 43 41 38 37 35 33 31 31 31 30 30 27 25 22 21 21 24 28 31 34 37 35 36 34 34 34 34 32 26 23 23 30 23 22 19 20 17 17 21 23 19 15 15 10
50 47 45 43 41 39 37 36 35 34 33 31 30 27 24 25 24 26 29 32 35 38 36 37 36 37 35 35 33 29 24 21 23 23 22 19 17 16 15 17 20 21 15 15 12
55 52 49 46 45 44 41 40 39 38 35 32 31 30 27 28 27 29 31 33 36 39 38 39 37 38 37 37 33 30 25 21 21 21 20 20 14 13 14 15 15 18 16 15 18
59 56 54 51 49 47 45 44 42 41 37 35 34 31 31 30 31 30 33 36 37 41 41 41 39 38 37 37 31 28 25 22 20 22 18 17 15 9 12 16 15 15 19 21 22
64 61 58 55 52 51 49 47 46 43 40 39 35 34 32 33 35 34 35 37 40 43 43 41 38 38 37 38 30 27 23 20 20 20 21 17 16 8 8 8 20 17 19 25 30
67 65 62 60 58 55 52 50 47 46 42 42 38 39 35 35 37 38 39 41 43 45 44 42 39 39 38 38 29 26 25 22 19 18 18 14 13 8 6 10 14 20 25 28 29
68 66 63 61 60 56 54 52 51 50 44 42 41 43 40 40 38 43 41 43 44 47 45 42 39 40 39 38 33 29 26 24 20 19 19 11 9 12 9 12 16 22 25 28 32
70 68 65 61 59 56 54 52 55 54 45 44 44 49 46 43 42 43 46 46 47 48 46 42 41 41 40 39 37 32 28 27 23 22 23 15 13 14 14 14 16 20 25 27 28
72 71 67 64 60 57 55 55 60 55 52 48 45 52 51 49 47 45 48 50 50 50 50 47 43 42 41 45 40 30 35 29 30 26 24 18 18 18 18 17 19 22 25 30 34
74 73 70 68 64 61 59 61 65 60 54 52 51 54 53 53 51 48 47 52 55 54 55 54 44 42 38 42 47 40 33 33 34 33 29 23 23 24 24 24 26 28 30 33 38
78 77 75 71 68 65 64 67 69 62 58 57 57 60 57 56 56 55 53 54 54 55 52 53 51 45 41 41 42 40 39 34 38 38 36 35 33 31 29 30 35 37 39 42 44
80 77 77 74 73 70 70 72 70 65 62 60 61 64 60 59 59 59 58 57 59 60 48 52 55 49 46 43 41 38 38 39 42 43 38 39 39 36 34 35 39 42 45 47 48
82 79 80 77 74 74 74 71 70 70 67 63 67 66 63 62 62 65 61 63 63 57 52 51 53 54 51 52 49 44 36 38 41 43 45 42 42 41 41 42 45 48 50 52 54
85 83 80 78 79 76 73 74 75 73 69 66 65 68 67 68 66 67 68 66 65 59 56 53 51 53 55 55 54 46 42 40 40 43 47 49 48 46 45 48 52 54 56 57 59
87 82 80 80 80 78 77 80 80 79 76 74 72 72 71 67 68 68 73 68 64 62 61 58 54 53 54 54 52 52 49 45 45 46 45 49 52 53 54 57 59 61 62 63 65
89 87 86 85 84 83 83 84 83 81 78 77 75 70 70 69 69 71 72 73 67 64 63 61 58 57 57 58 53 54 54 52 50 50 49 50 51 55 58 58 60 64 65 67 70
92 92 90 87 86 86 84 82 83 82 81 77 76 73 70 71 72 76 76 75 72 68 64 63 62 60 60 61 57 53 58 56 53 54 54 54 57 58 60 63 67 68 70 73 76